[[{"header":{"parameterUnit":"m.s-1","parameterCategory":1,"la1":30.6,"la2":28.766,"lo1":-90.7593,"lo2":-88.6598,"dy":0.0162,"dx":0.0183,"nx":116,"ny":114,"refTime":"2024-03-26T06:00:00:Z","depth":0,"parameterNumber":2,"parameterNumberName":"U-component_of_WINDS"},"data":[0.0,0.0,0.0,0.0,0.0,0.0,0.0,0.0,0.0,0.0,0.0,0.0,0.0,0.0,0.0,0.0,0.0,0.0,0.0,0.0,0.0,0.0,0.0,0.0,0.0,0.0,0.0,0.0,0.0,0.0,0.0,0.0,0.0,0.0,0.0,0.0,0.0,0.0,0.0,0.0,0.0,0.0,0.0,0.0,0.0,0.0,0.0,0.0,0.0,0.0,0.0,0.0,0.0,0.0,0.0,0.0,0.0,0.0,0.0,0.0,0.0,0.0,0.0,0.0,0.0,0.0,0.0,0.0,0.0,0.0,0.0,0.0,0.0,0.0,0.0,0.0,0.0,0.0,0.0,0.0,0.0,0.0,0.0,0.0,0.0,0.0,0.0,0.0,0.0,0.0,0.0,0.0,0.0,0.0,0.0,0.0,0.0,0.0,0.0,0.0,0.0,0.0,0.0,0.0,0.0,0.0,0.0,0.0,0.0,0.0,0.0,0.0,0.0,0.0,0.0,0.0,0.0,0.0,0.0,0.0,0.0,0.0,0.0,0.0,0.0,0.0,0.0,0.0,0.0,0.0,0.0,0.0,0.0,0.0,0.0,0.0,0.0,0.0,0.0,0.0,0.0,0.0,0.0,0.0,0.0,0.0,0.0,0.0,0.0,0.0,0.0,0.0,0.0,0.0,0.0,0.0,0.0,0.0,0.0,0.0,0.0,0.0,0.0,0.0,0.0,0.0,0.0,0.0,0.0,0.0,0.0,0.0,0.0,0.0,0.0,0.0,0.0,0.0,0.0,0.0,0.0,0.0,0.0,0.0,0.0,0.0,0.0,0.0,0.0,0.0,0.0,0.0,0.0,0.0,0.0,0.0,0.0,0.0,0.0,0.0,0.0,0.0,0.0,0.0,0.0,0.0,0.0,0.0,0.0,0.0,0.0,0.0,0.0,0.0,0.0,0.0,0.0,0.0,0.0,0.0,0.0,0.0,0.0,0.0,0.0,0.0,0.0,0.0,0.0,0.0,0.0,0.0,0.0,0.0,0.0,0.0,0.0,0.0,0.0,0.0,0.0,0.0,0.0,0.0,0.0,0.0,0.0,0.0,0.0,0.0,0.0,0.0,0.0,0.0,0.0,0.0,0.0,0.0,0.0,0.0,0.0,0.0,0.0,0.0,0.0,0.0,0.0,0.0,0.0,0.0,0.0,0.0,0.0,0.0,0.0,0.0,0.0,0.0,0.0,0.0,0.0,0.0,0.0,0.0,0.0,0.0,0.0,0.0,0.0,0.0,0.0,0.0,0.0,0.0,0.0,0.0,0.0,0.0,0.0,0.0,0.0,0.0,0.0,0.0,0.0,0.0,0.0,0.0,0.0,0.0,0.0,0.0,0.0,0.0,0.0,0.0,0.0,0.0,0.0,0.0,0.0,0.0,0.0,0.0,0.0,0.0,0.0,0.0,0.0,0.0,0.0,0.0,0.0,0.0,0.0,0.0,0.0,0.0,0.0,0.0,0.0,0.0,0.0,0.0,0.0,0.0,0.0,0.0,0.0,0.0,0.0,0.0,0.0,0.0,0.0,0.0,0.0,0.0,0.0,0.0,0.0,0.0,0.0,0.0,0.0,0.0,0.0,0.0,0.0,0.0,0.0,0.0,0.0,0.0,0.0,0.0,0.0,0.0,0.0,0.0,0.0,0.0,0.0,0.0,0.0,0.0,0.0,0.0,0.0,0.0,0.0,0.0,0.0,0.0,0.0,0.0,0.0,0.0,0.0,0.0,0.0,0.0,0.0,0.0,0.0,0.0,0.0,0.0,0.0,0.0,0.0,0.0,0.0,0.0,0.0,0.0,0.0,0.0,0.0,0.0,0.0,0.0,0.0,0.0,0.0,0.0,0.0,0.0,0.0,0.0,0.0,0.0,0.0,0.0,0.0,0.0,0.0,0.0,0.0,0.0,0.0,0.0,0.0,0.0,0.0,0.0,0.0,0.0,0.0,0.0,0.0,0.0,0.0,0.0,0.0,0.0,0.0,0.0,0.0,0.0,0.0,0.0,0.0,0.0,0.0,0.0,0.0,0.0,0.0,0.0,0.0,0.0,0.0,0.0,0.0,0.0,0.0,0.0,0.0,0.0,0.0,0.0,0.0,0.0,0.0,0.0,0.0,0.0,0.0,0.0,0.0,0.0,0.0,0.0,0.0,0.0,0.0,0.0,0.0,0.0,0.0,0.0,0.0,0.0,0.0,0.0,0.0,0.0,0.0,0.0,0.0,0.0,0.0,0.0,0.0,0.0,0.0,0.0,0.0,0.0,0.0,0.0,0.0,0.0,0.0,0.0,0.0,0.0,0.0,0.0,0.0,0.0,0.0,0.0,0.0,0.0,0.0,0.0,0.0,0.0,0.0,0.0,0.0,0.0,0.0,0.0,0.0,0.0,0.0,0.0,0.0,0.0,0.0,0.0,0.0,0.0,0.0,0.0,0.0,0.0,0.0,0.0,0.0,0.0,0.0,0.0,0.0,0.0,0.0,0.0,0.0,0.0,0.0,0.0,0.0,0.0,0.0,0.0,0.0,0.0,0.0,0.0,0.0,0.0,0.0,0.0,0.0,0.0,0.0,0.0,0.0,0.0,0.0,0.0,0.0,0.0,0.0,0.0,0.0,0.0,0.0,0.0,0.0,0.0,0.0,0.0,0.0,0.0,0.0,0.0,0.0,0.0,0.0,0.0,0.0,0.0,0.0,0.0,0.0,0.0,0.0,0.0,0.0,0.0,0.0,0.0,0.0,0.0,0.0,0.0,0.0,0.0,0.0,0.0,0.0,0.0,0.0,0.0,0.0,0.0,0.0,0.0,0.0,0.0,0.0,0.0,0.0,0.0,0.0,0.0,0.0,0.0,0.0,0.0,0.0,0.0,0.0,0.0,0.0,0.0,0.0,0.0,0.0,0.0,0.0,0.0,0.0,0.0,0.0,0.0,0.0,0.0,0.0,0.0,0.0,0.0,0.0,0.0,0.0,0.0,0.0,0.0,0.0,0.0,0.0,0.0,0.0,0.0,0.0,0.0,0.0,0.0,0.0,0.0,0.0,0.0,0.0,0.0,0.0,0.0,0.0,0.0,0.0,0.0,0.0,0.0,0.0,0.0,0.0,0.0,0.0,0.0,0.0,0.0,0.0,0.0,0.0,0.0,0.0,0.0,0.0,0.0,0.0,0.0,0.0,0.0,0.0,0.0,0.0,0.0,0.0,0.0,0.0,0.0,0.0,0.0,0.0,0.0,0.0,0.0,0.0,0.0,0.0,0.0,0.0,0.0,0.0,0.0,0.0,0.0,0.0,0.0,0.0,0.0,0.0,0.0,0.0,0.0,0.0,0.0,0.0,0.0,0.0,0.0,0.0,0.0,0.0,0.0,0.0,0.0,0.0,0.0,0.0,0.0,0.0,0.0,0.0,0.0,0.0,0.0,0.0,0.0,0.0,0.0,0.0,0.0,0.0,0.0,0.0,0.0,0.0,0.0,0.0,0.0,0.0,0.0,0.0,0.0,0.0,0.0,0.0,0.0,0.0,0.0,0.0,0.0,0.0,0.0,0.0,0.0,0.0,0.0,0.0,0.0,0.0,0.0,0.0,0.0,0.0,0.0,0.0,0.0,0.0,0.0,0.0,0.0,0.0,0.0,0.0,0.0,0.0,0.0,0.0,0.0,0.0,0.0,0.0,0.0,0.0,0.0,0.0,0.0,0.0,0.0,0.0,0.0,0.0,0.0,0.0,0.0,0.0,0.0,0.0,0.0,0.0,0.0,0.0,0.0,0.0,0.0,0.0,0.0,0.0,0.0,0.0,0.0,0.0,0.0,0.0,0.0,0.0,0.0,0.0,0.0,0.0,0.0,0.0,0.0,0.0,0.0,0.0,0.0,0.0,0.0,0.0,0.0,0.0,0.0,0.0,0.0,0.0,0.0,0.0,0.0,0.0,0.0,0.0,0.0,0.0,0.0,0.0,0.0,0.0,0.0,0.0,0.0,0.0,0.0,0.0,0.0,0.0,0.0,0.0,0.0,0.0,0.0,0.0,0.0,0.0,0.0,0.0,0.0,0.0,0.0,0.0,0.0,0.0,0.0,0.0,0.0,0.0,0.0,0.0,0.0,0.0,0.0,0.0,0.0,0.0,0.0,0.0,0.0,0.0,0.0,0.0,0.0,0.0,0.0,0.0,0.0,0.0,0.0,0.0,0.0,0.0,0.0,0.0,0.0,0.0,0.0,0.0,0.0,0.0,0.0,0.0,0.0,0.0,0.0,0.0,0.0,0.0,0.0,0.0,0.0,0.0,0.0,0.0,0.0,0.0,0.0,0.0,0.0,0.0,0.0,0.0,0.0,0.0,0.0,0.0,0.0,0.0,0.0,0.0,0.0,0.0,0.0,0.0,0.0,0.0,0.0,0.0,0.0,0.0,0.0,0.0,0.0,0.0,0.0,0.0,0.0,0.0,0.0,0.0,0.0,0.0,0.0,0.0,0.0,0.0,0.0,0.0,0.0,0.0,0.0,0.0,0.0,0.0,0.0,0.0,0.0,0.0,0.0,0.0,0.0,0.0,0.0,0.0,0.0,0.0,0.0,0.0,0.0,0.0,0.0,0.0,0.0,0.0,0.0,0.0,0.0,0.0,0.0,0.0,0.0,0.0,0.0,0.0,0.0,0.0,0.0,0.0,0.0,0.0,0.0,0.0,0.0,0.0,0.0,0.0,0.0,0.0,0.0,0.0,0.0,0.0,0.0,0.0,0.0,0.0,0.0,0.0,0.0,0.0,0.0,0.0,0.0,0.0,0.0,0.0,0.0,0.0,0.0,0.0,0.0,0.0,0.0,0.0,0.0,0.0,0.0,0.0,0.0,0.0,0.0,0.0,0.0,0.0,0.0,0.0,0.0,0.0,0.0,0.0,0.0,0.0,0.0,0.0,0.0,0.0,0.0,0.0,0.0,0.0,0.0,0.0,0.0,0.0,0.0,0.0,0.0,0.0,0.0,0.0,0.0,0.0,0.0,0.0,0.0,0.0,0.0,0.0,0.0,0.0,0.0,0.0,0.0,0.0,0.0,0.0,0.0,0.0,0.0,0.0,0.0,0.0,0.0,0.0,0.0,0.0,0.0,0.0,0.0,0.0,0.0,0.0,0.0,0.0,0.0,0.0,0.0,0.0,0.0,0.0,0.0,0.0,0.0,0.0,0.0,0.0,0.0,0.0,0.0,0.0,0.0,0.0,0.0,0.0,0.0,0.0,0.0,0.0,0.0,0.0,0.0,0.0,0.0,0.0,0.0,0.0,0.0,0.0,0.0,0.0,0.0,0.0,0.0,0.0,0.0,0.0,0.0,0.0,0.0,0.0,0.0,0.0,0.0,0.0,0.0,0.0,0.0,0.0,0.0,0.0,0.0,0.0,0.0,0.0,0.0,0.0,0.0,0.0,0.0,0.0,0.0,0.0,0.0,0.0,0.0,0.0,0.0,0.0,0.0,0.0,0.0,0.0,0.0,0.0,0.0,0.0,0.0,0.0,0.0,0.0,0.0,0.0,0.0,0.0,0.0,0.0,0.0,0.0,0.0,0.0,0.0,0.0,0.0,0.0,0.0,0.0,0.0,0.0,0.0,0.0,0.0,0.0,0.0,0.0,0.0,0.0,0.0,0.0,0.0,0.0,0.0,0.0,0.0,0.0,0.0,0.0,0.0,0.0,0.0,0.0,0.0,0.0,0.0,0.0,0.0,0.0,0.0,0.0,0.0,0.0,0.0,0.0,0.0,0.0,0.0,0.0,0.0,0.0,0.0,0.0,0.0,0.0,0.0,0.0,0.0,0.0,0.0,0.0,0.0,0.0,0.0,0.0,0.0,0.0,0.0,0.0,0.0,0.0,0.0,0.0,0.0,0.0,0.0,0.0,0.0,0.0,0.0,0.0,0.0,0.0,0.0,0.0,0.0,0.0,0.0,0.0,0.0,0.0,0.0,0.0,0.0,0.0,0.0,0.0,0.0,0.0,0.0,0.0,0.0,0.0,0.0,0.0,0.0,0.0,0.0,0.0,0.0,0.0,0.0,0.0,0.0,0.0,0.0,0.0,0.0,0.0,0.0,-5.6322,-5.6222,0.0,0.0,0.0,0.0,0.0,0.0,0.0,0.0,0.0,0.0,0.0,0.0,0.0,0.0,0.0,0.0,0.0,0.0,0.0,0.0,0.0,0.0,0.0,-4.9583,-4.9817,-5.0393,-5.0123,-4.999,-5.0201,0.0,0.0,0.0,0.0,0.0,-4.8392,-4.8026,-4.7821,-4.7821,-4.7391,-4.7411,-4.783,-4.8562,-4.9004,-4.919,0.0,0.0,0.0,0.0,0.0,0.0,0.0,0.0,0.0,0.0,0.0,0.0,0.0,0.0,0.0,0.0,0.0,0.0,0.0,0.0,0.0,0.0,0.0,0.0,0.0,0.0,0.0,0.0,0.0,0.0,0.0,0.0,0.0,0.0,0.0,0.0,0.0,0.0,0.0,0.0,0.0,0.0,0.0,0.0,0.0,0.0,0.0,0.0,0.0,0.0,0.0,0.0,0.0,0.0,0.0,0.0,0.0,0.0,0.0,0.0,0.0,0.0,0.0,0.0,0.0,0.0,0.0,0.0,0.0,0.0,-5.6023,-5.6296,0.0,0.0,0.0,0.0,0.0,0.0,0.0,0.0,0.0,0.0,0.0,0.0,0.0,0.0,0.0,0.0,0.0,0.0,0.0,0.0,0.0,-4.9123,-4.9716,-4.9665,-4.9834,-5.0452,-4.9763,-4.9313,-4.9373,-4.862,0.0,0.0,0.0,-4.7954,-4.7954,-4.7312,-4.6965,-4.6971,-4.6272,-4.6302,-4.702,-4.7738,-4.796,-4.7766,-4.8036,0.0,0.0,0.0,0.0,0.0,0.0,0.0,0.0,0.0,0.0,0.0,0.0,0.0,0.0,0.0,0.0,0.0,0.0,0.0,0.0,0.0,0.0,0.0,0.0,0.0,0.0,0.0,0.0,0.0,0.0,0.0,0.0,0.0,0.0,0.0,0.0,0.0,0.0,0.0,0.0,0.0,0.0,0.0,0.0,0.0,0.0,0.0,0.0,0.0,0.0,0.0,0.0,0.0,0.0,0.0,0.0,0.0,0.0,0.0,0.0,0.0,0.0,0.0,-5.429,-5.4006,-5.3993,-5.3993,-5.4009,-5.4065,-5.5342,-5.5913,-5.5967,-5.5906,0.0,0.0,0.0,0.0,0.0,0.0,0.0,0.0,0.0,0.0,0.0,0.0,0.0,0.0,0.0,0.0,0.0,0.0,0.0,-4.9123,-4.9716,-4.918,-4.8993,-4.9605,-4.891,-4.8458,-4.8466,-4.7712,-4.727,-4.727,-4.6561,-4.6169,-4.6242,-4.6125,-4.6067,-4.608,-4.6076,-4.6138,-4.6251,-4.6368,-4.6399,-4.6422,-4.7829,-4.8284,-4.7998,0.0,0.0,0.0,0.0,0.0,0.0,0.0,0.0,0.0,0.0,0.0,0.0,0.0,0.0,0.0,0.0,0.0,0.0,0.0,0.0,0.0,0.0,0.0,0.0,0.0,0.0,0.0,0.0,0.0,0.0,0.0,0.0,0.0,0.0,0.0,0.0,0.0,0.0,0.0,0.0,0.0,-5.6315,-5.6324,0.0,0.0,0.0,0.0,0.0,0.0,0.0,0.0,0.0,0.0,0.0,0.0,0.0,-5.4328,-5.4314,-5.4211,-5.4152,-5.4138,-5.4055,-5.3992,-5.3994,-5.3994,-5.3994,-5.4012,-5.422,0.0,-5.4234,-5.4211,0.0,0.0,0.0,0.0,0.0,0.0,0.0,0.0,0.0,0.0,0.0,0.0,0.0,0.0,0.0,0.0,0.0,0.0,0.0,0.0,0.0,-4.8547,-4.8335,-4.8789,-4.8094,-4.7623,-4.7634,-4.6837,-4.6368,-4.6368,-4.604,-4.586,-4.59,-4.5964,-4.6036,-4.6068,-4.6128,-4.6167,-4.6153,-4.6153,-4.6137,-4.6137,-4.6837,-4.7008,-4.6746,-4.6746,0.0,0.0,0.0,0.0,0.0,0.0,0.0,0.0,0.0,0.0,0.0,0.0,0.0,0.0,0.0,0.0,0.0,0.0,0.0,0.0,0.0,0.0,0.0,0.0,0.0,0.0,0.0,0.0,0.0,0.0,0.0,0.0,0.0,0.0,0.0,0.0,0.0,0.0,0.0,-5.5246,-5.4873,-5.4796,-5.4771,-5.483,0.0,0.0,0.0,0.0,0.0,0.0,0.0,0.0,0.0,-5.2447,-5.2494,-5.2546,-5.2546,-5.2058,-5.1802,-5.1802,-5.1316,-5.1082,-5.1082,-5.1082,-5.1082,-5.1082,-5.1082,-5.1055,-5.1187,-5.3141,-5.3905,-5.3762,0.0,0.0,0.0,0.0,-5.1567,-5.1482,0.0,0.0,0.0,0.0,0.0,0.0,0.0,0.0,0.0,0.0,0.0,0.0,-4.8592,-4.8125,-4.7866,-4.7978,-4.7237,-4.6769,-4.6767,-4.6181,-4.584,-4.584,-4.5874,-4.5912,-4.5955,-4.6067,-4.6156,-4.6202,-4.6192,-4.6195,-4.6195,-4.6195,-4.6177,-4.6125,-4.6109,-4.5988,-4.5782,-4.5782,-4.5627,0.0,0.0,0.0,0.0,0.0,0.0,0.0,0.0,0.0,0.0,0.0,0.0,0.0,0.0,0.0,0.0,0.0,0.0,0.0,0.0,0.0,0.0,0.0,0.0,0.0,0.0,0.0,0.0,0.0,0.0,0.0,0.0,0.0,0.0,0.0,0.0,0.0,0.0,-5.392,-5.3339,-5.3223,-5.299,-5.2868,0.0,0.0,0.0,0.0,0.0,0.0,-5.0767,-5.0787,-5.0711,-5.0497,-5.0628,-5.0716,-5.0716,-5.0081,-4.9772,-4.9753,-4.9111,-4.8798,-4.8798,-4.8798,-4.8798,-4.8798,-4.8798,-4.8798,-4.8993,-5.1599,-5.2649,-5.2539,-5.1894,-5.1612,-5.1394,-5.0108,-4.9638,-4.9558,0.0,0.0,0.0,0.0,0.0,0.0,0.0,0.0,0.0,0.0,0.0,-4.915,-4.8649,-4.8184,-4.7702,-4.7206,-4.6378,-4.5858,-4.5865,-4.588,-4.5893,-4.5893,-4.5906,-4.5956,-4.6099,-4.6167,-4.62,-4.6202,-4.6207,-4.6191,-4.6191,-4.6191,-4.6206,-4.6199,-4.6131,-4.6052,-4.5991,-4.5991,-4.586,-4.5676,0.0,0.0,0.0,0.0,0.0,0.0,0.0,0.0,0.0,0.0,0.0,0.0,0.0,0.0,0.0,0.0,0.0,0.0,0.0,0.0,0.0,0.0,0.0,0.0,0.0,0.0,0.0,0.0,0.0,0.0,0.0,0.0,0.0,0.0,0.0,0.0,0.0,0.0,0.0,-5.2177,-5.1391,0.0,0.0,0.0,0.0,-5.0966,-5.0966,-5.0591,-4.9724,-4.9742,-4.9409,-4.8569,-4.8727,-4.884,-4.884,-4.8855,-4.8876,-4.8857,-4.8818,-4.8798,-4.8798,-4.8798,-4.8798,-4.8798,-4.8798,-4.8798,-4.8818,-4.8993,-4.9054,-4.9057,-4.9085,-4.905,-4.8973,-4.8893,-4.8898,-4.894,0.0,0.0,0.0,0.0,0.0,-4.8532,-4.8587,-4.8715,-4.8706,-4.8429,-4.8177,-4.7871,-4.7373,-4.6858,-4.6479,-4.6274,-4.5986,-4.5807,-4.5807,-4.586,-4.59,-4.59,-4.5986,-4.6068,-4.6153,-4.6184,-4.621,-4.6267,-4.6261,-4.6258,-4.6258,-4.6258,-4.6248,-4.6207,-4.6179,-4.6128,-4.6052,-4.6013,-4.595,-4.5879,-4.5879,-4.5802,0.0,0.0,0.0,0.0,0.0,0.0,0.0,0.0,0.0,0.0,0.0,0.0,0.0,0.0,0.0,0.0,0.0,0.0,0.0,0.0,0.0,0.0,0.0,0.0,0.0,0.0,0.0,0.0,0.0,0.0,0.0,0.0,0.0,0.0,0.0,0.0,0.0,-4.9471,-4.9173,0.0,-4.9024,-4.9033,-4.9033,-4.9033,-4.9033,-4.8638,-4.7782,-4.7851,-4.7504,-4.6639,-4.6799,-4.6892,-4.6892,-4.6925,-4.6976,-4.7053,-4.7053,-4.7111,-4.7198,-4.7198,-4.7198,-4.7198,-4.7198,-4.7198,-4.7198,-4.7198,-4.7822,-4.8798,-4.8821,-4.8823,-4.8745,-4.8216,-4.8044,-4.7987,0.0,0.0,0.0,0.0,-4.8438,-4.855,-4.8587,-4.8714,-4.8756,-4.8549,-4.8096,-4.7589,-4.7056,-4.6549,-4.6126,-4.5819,-4.5807,-4.5807,-4.5807,-4.5848,-4.5918,-4.5922,-4.6064,-4.6142,-4.6191,-4.6229,-4.6261,-4.63,-4.63,-4.63,-4.63,-4.63,-4.6258,-4.6191,-4.6205,-4.6154,-4.6098,-4.6039,-4.6013,-4.6002,-4.6002,-4.5964,-4.5925,0.0,0.0,0.0,0.0,0.0,0.0,0.0,0.0,0.0,0.0,0.0,0.0,0.0,0.0,0.0,0.0,0.0,0.0,0.0,0.0,0.0,0.0,0.0,0.0,0.0,0.0,0.0,0.0,0.0,0.0,0.0,0.0,0.0,0.0,-4.8207,-4.775,-4.795,-4.7679,-4.7611,-4.7899,-4.7937,-4.7937,-4.7937,-4.7937,-4.7688,-4.7103,-4.7184,-4.6977,-4.6392,-4.6537,-4.6506,-4.6235,-4.6278,-4.6215,-4.6028,-4.6037,-4.6084,-4.6164,-4.6209,-4.624,-4.624,-4.6275,-4.63,-4.63,-4.63,-4.6944,-4.7959,-4.7959,-4.7959,-4.7881,-4.7354,-4.7159,-4.7081,0.0,0.0,0.0,-4.86,-4.8476,-4.8605,-4.8605,-4.8767,-4.9027,-4.9346,-4.8959,-4.8441,-4.7843,-4.7345,-4.6709,-4.5865,-4.5807,-4.5807,-4.5807,-4.5854,-4.5931,-4.6,-4.6131,-4.6191,-4.6191,-4.6277,-4.63,-4.6298,-4.6298,-4.6298,-4.6296,-4.6298,-4.6256,-4.6191,-4.6191,-4.6157,-4.6105,-4.6102,-4.6056,-4.6007,-4.6002,-4.6002,-4.6002,0.0,0.0,0.0,0.0,0.0,0.0,0.0,0.0,0.0,0.0,0.0,0.0,0.0,0.0,0.0,0.0,0.0,0.0,0.0,0.0,0.0,0.0,0.0,0.0,0.0,0.0,0.0,0.0,0.0,0.0,0.0,0.0,0.0,-4.7672,-4.7152,-4.691,-4.7752,-4.7067,-4.6882,-4.7712,-4.7788,-4.7807,-4.7845,-4.7845,-4.7845,-4.7845,-4.79,-4.7914,-4.7895,-4.8019,-4.7709,-4.6936,-4.7023,-4.6705,-4.5933,-4.5903,-4.5883,-4.59,-4.6028,-4.6095,-4.6098,-4.6238,-4.6298,-4.6298,-4.6298,-4.6298,-4.63,-4.63,-4.63,-4.63,-4.63,-4.63,-4.63,0.0,0.0,-5.027,-4.86,-4.8476,-4.8605,-4.8605,-4.8767,-4.8868,-4.8763,-4.8123,-4.7571,-4.7249,-4.6584,-4.6068,-4.5819,-4.5807,-4.5807,-4.5807,-4.5854,-4.5964,-4.6131,0.0,0.0,-4.6274,-4.6285,-4.6247,-4.6147,-4.6147,-4.6102,-4.6005,-4.6105,-4.6156,-4.6136,-4.6186,-4.619,-4.6162,-4.6123,-4.6087,-4.606,-4.6013,-4.6002,-4.6002,0.0,0.0,0.0,0.0,0.0,0.0,0.0,0.0,0.0,0.0,0.0,0.0,0.0,0.0,0.0,0.0,0.0,0.0,0.0,0.0,0.0,0.0,0.0,0.0,0.0,0.0,0.0,0.0,0.0,0.0,0.0,-4.5348,-4.5481,-4.598,-4.6322,-4.6617,-4.6866,-4.7207,-4.754,-4.7769,-4.7788,-4.8067,-4.8697,-4.8735,-4.8735,-4.8735,-4.8753,-4.8477,-4.7848,-4.7909,-4.7855,-4.7626,-4.7031,-4.6703,-4.6631,-4.5979,-4.5751,-4.59,-4.5938,-4.5959,-4.5959,-4.5987,-4.608,-4.6144,-4.6049,-4.6112,-4.63,-4.63,-4.63,-4.63,-4.63,-4.63,-4.63,0.0,-5.0802,-5.027,-4.86,-4.8476,-4.8605,-4.8605,-4.8767,-4.8938,-4.9026,-4.8029,-4.7354,-4.7531,-4.6511,-4.5803,-4.58,-4.5807,-4.5807,-4.5807,-4.5911,-4.6037,0.0,0.0,-4.6235,-4.6214,-4.6214,-4.6147,-4.6028,-4.6028,-4.5983,-4.5905,-4.5983,-4.6049,-4.6105,-4.6132,-4.6164,-4.6191,-4.6156,-4.6128,-4.6095,-4.6022,-4.6002,-4.6002,-4.6002,-4.6002,-4.6002,-4.6002,-4.6027,-4.6054,-4.6084,0.0,0.0,0.0,0.0,0.0,0.0,0.0,0.0,0.0,0.0,0.0,0.0,0.0,0.0,0.0,0.0,0.0,0.0,0.0,0.0,0.0,0.0,0.0,0.0,-4.55,-4.5639,-4.5639,-4.6129,-4.6768,-4.7494,-4.7907,-4.8322,-4.88,-4.8708,-4.8905,-4.9557,-4.9595,-4.9595,-4.9595,-4.961,-4.9362,-4.8869,-4.8892,-4.8734,-4.8411,-4.7905,-4.7347,-4.6767,-4.6285,-4.594,-4.5696,-4.5743,-4.5777,-4.5783,-4.5869,-4.5939,-4.6011,-4.5925,-4.5992,-4.6141,0.0,0.0,0.0,0.0,-4.63,-4.63,0.0,-5.0857,-5.0306,-4.8728,-4.8531,-4.8587,-4.8587,-4.8767,-4.9106,-4.9735,-4.8351,-4.7552,-4.8234,-4.6793,-4.5795,-4.58,-4.5807,-4.5807,-4.5814,-4.599,0.0,-4.6108,-4.6229,-4.624,-4.6102,-4.6098,-4.6037,-4.5883,-4.5883,-4.5878,-4.5861,-4.5878,-4.5959,-4.6087,-4.6095,-4.6145,-4.6211,-4.6201,-4.6167,-4.6105,-4.6041,-4.6012,-4.6002,-4.6002,-4.6002,-4.6002,-4.6002,-4.6046,-4.6102,-4.6109,0.0,0.0,0.0,0.0,0.0,0.0,0.0,0.0,0.0,0.0,0.0,0.0,0.0,0.0,0.0,0.0,0.0,0.0,0.0,0.0,0.0,0.0,0.0,0.0,-4.5763,-4.6107,-4.6297,-4.6528,-4.7251,-4.8807,-4.8795,-4.9085,-5.0099,-4.9929,-4.987,-5.0156,-5.0224,-5.0236,-5.0236,-5.029,0.0,0.0,0.0,-4.9962,-4.9234,-4.9157,-4.8315,-4.6757,-4.6702,-4.6223,-4.5389,-4.5518,-4.5571,-4.5579,-4.5764,-4.5859,-4.5877,-4.585,-4.5867,-4.5889,-4.6033,-4.6144,-4.6247,-4.6247,-4.6251,-4.6275,0.0,-5.1242,-5.049,-4.9537,-4.8879,-4.8532,-4.8587,-4.8714,-4.9059,-4.9702,-4.835,-4.7574,-4.8225,-4.6769,-4.5746,-4.58,-4.5807,-4.5821,-4.5886,-4.6017,-4.6097,-4.6108,-4.6229,-4.624,-4.6102,-4.6098,-4.6007,-4.5828,-4.5828,-4.5766,-4.5657,-4.5773,-4.5859,-4.5935,-4.6053,-4.6164,-4.6273,-4.6211,-4.6182,-4.6167,-4.6109,-4.6054,-4.6002,-4.6002,-4.6002,-4.6002,-4.6002,-4.6046,-4.6109,-4.6158,-4.6199,-4.6211,-4.6258,0.0,0.0,0.0,0.0,0.0,0.0,0.0,0.0,0.0,0.0,0.0,0.0,0.0,0.0,0.0,0.0,0.0,0.0,0.0,0.0,-4.584,-4.5814,-4.6168,-4.7521,-4.7767,-4.7909,-4.8244,-4.8802,-4.9254,-4.9464,-4.942,-4.9405,-4.9498,-4.9744,-4.9903,-4.9903,-5.0156,-5.0302,-5.0302,-5.0302,-5.0225,-5.0065,-4.9427,-4.8608,-4.7646,-4.6887,0.0,-4.5408,-4.5438,-4.5438,-4.5448,-4.5475,-4.5602,-4.5728,-4.5618,-4.565,-4.5743,-4.5883,-4.5945,-4.5983,-4.5983,-4.6049,-4.6141,0.0,-5.1628,-5.0545,-4.9739,-4.9028,-4.855,-4.8587,-4.8732,-4.9092,-4.9721,-4.8229,-4.7397,-4.8161,-4.6592,-4.5577,-4.5783,-4.5793,-4.5814,-4.5854,-4.6013,-4.6094,-4.6099,-4.623,-4.6209,-4.6,-4.5996,-4.5897,-4.5708,-4.5708,-4.566,-4.5594,-4.5668,-4.5752,-4.5853,-4.5954,-4.6064,-4.6192,-4.6205,-4.6207,-4.6199,-4.6128,-4.6052,-4.6002,-4.6002,-4.6013,-4.6059,-4.6059,-4.6096,-4.6167,-4.6181,-4.6211,-4.6261,-4.6287,-4.63,-4.6296,0.0,0.0,0.0,0.0,0.0,0.0,0.0,0.0,0.0,0.0,0.0,0.0,0.0,0.0,-4.54,-4.5389,0.0,-4.564,-4.6026,-4.6383,-4.689,-4.7727,-4.8046,-4.8321,-4.8655,-4.8902,-4.9113,-4.9268,-4.9145,-4.9129,-4.9302,-4.9468,-4.9613,-4.9784,-4.9955,-5.0132,-5.029,-5.0302,-5.0302,-5.0302,-4.9901,-4.9071,-4.7832,-4.7371,-4.6511,-4.5348,-4.5348,-4.5348,-4.5348,-4.538,-4.5457,-4.5547,-4.5475,-4.5484,-4.556,-4.5627,-4.5751,-4.5903,-4.5903,-4.5944,-4.5996,0.0,-5.1903,-5.06,-4.9959,-4.912,-4.855,-4.8587,-4.875,-4.904,-4.9651,-4.8268,-4.7426,-4.7981,-4.6589,-4.5682,-4.5781,-4.5805,-4.5807,0.0,-4.5987,-4.6095,-4.6108,-4.6211,-4.6177,-4.594,-4.5915,-4.5815,-4.5646,-4.5612,-4.5594,-4.5594,-4.5594,-4.5668,-4.5794,-4.5869,-4.5959,-4.6109,-4.6198,-4.6209,-4.62,-4.6142,-4.6076,-4.6013,-4.6013,-4.6039,-4.6102,-4.6115,-4.6142,-4.6191,-4.6191,-4.6245,-4.63,-4.63,-4.6275,-4.6243,-4.6138,-4.6091,0.0,0.0,0.0,0.0,0.0,0.0,0.0,0.0,-4.555,-4.5485,-4.5485,-4.5429,-4.5359,-4.5298,-4.568,-4.6036,-4.6135,-4.69,-4.7564,-4.7712,-4.8071,-4.8514,-4.9048,-4.8866,-4.8816,-4.908,-4.8866,-4.8797,-4.9097,-4.9177,-4.9333,-4.9584,-4.973,-4.991,-5.0181,-5.0278,-5.0302,-5.0302,-5.0149,-4.9308,-4.7788,-4.7635,-4.6768,-4.5307,-4.5307,-4.5307,-4.5307,-4.5359,-4.5408,-4.5408,-4.539,-4.541,-4.541,-4.54,-4.5541,-4.5796,-4.5822,-4.584,-4.5886,0.0,-5.1903,-5.0765,-5.0674,-4.9372,-4.8383,-4.8569,-4.8623,-4.8837,-4.938,-4.8801,-4.8117,-4.754,-4.7079,-4.6537,-4.587,-4.58,-4.5807,-4.5807,-4.5942,-4.6049,-4.6106,-4.6162,-4.6162,-4.6072,-4.5949,-4.5858,-4.5778,-4.5651,-4.5594,-4.5594,-4.5594,-4.5668,-4.5794,-4.5869,-4.5959,-4.6105,-4.6249,-4.6249,-4.6202,-4.6199,-4.6147,-4.6087,-4.6087,-4.6091,-4.6109,-4.6162,-4.618,-4.6191,-4.6191,-4.6245,-4.63,-4.63,-4.6214,-4.6112,-4.6102,-4.6028,-4.5914,-4.5829,-4.5708,-4.5627,-4.5629,-4.5612,-4.5594,0.0,-4.5504,-4.541,-4.541,-4.537,-4.5224,-4.4915,-4.531,-4.5813,-4.6289,-4.6813,-4.7408,-4.8124,-4.827,-4.8344,-4.8402,-4.8383,-4.8364,-4.842,-4.8383,-4.8364,-4.842,-4.8676,-4.8866,-4.89,-4.9468,-4.9817,-4.9857,-5.0144,-5.0302,-5.0302,-4.9595,-4.8754,-4.7788,-4.7016,-4.6175,-4.5307,-4.5307,-4.5307,-4.5307,-4.5359,-4.5408,-4.5408,-4.5389,-4.5399,-4.5389,-4.5319,-4.537,-4.5465,-4.553,-4.5653,-4.5808,0.0,0.0,-5.1353,-5.0875,-4.9483,-4.8457,-4.8569,-4.866,-4.8873,-4.9352,-4.8602,-4.8102,-4.8312,-4.7521,-4.668,-4.5861,-4.5793,0.0,-4.5807,-4.5925,-4.6028,-4.6095,-4.6152,-4.6169,-4.6099,-4.6045,-4.5959,-4.5865,-4.579,-4.5764,-4.5764,-4.5764,-4.5796,-4.5852,-4.5969,-4.6049,-4.6105,-4.6232,-4.6267,-4.6202,-4.6199,-4.6177,-4.6153,-4.6154,-4.6165,-4.6167,-4.6182,-4.623,0.0,0.0,-4.6273,-4.63,-4.63,-4.6211,-4.6072,-4.6005,-4.5914,-4.5822,-4.5712,-4.5635,-4.5594,-4.5594,-4.5594,-4.5594,-4.5594,-4.5522,-4.5467,-4.5467,-4.5409,-4.5451,-4.5794,-4.6087,-4.6529,-4.7268,-4.7623,-4.7921,-4.8251,-4.8306,-4.8306,-4.8306,-4.8306,-4.8306,-4.8306,-4.8306,-4.8306,-4.8306,-4.8439,-4.8586,-4.8799,-4.9083,-4.9394,-4.9803,-4.9942,-5.0088,-5.0302,-4.95,-4.8659,-4.7788,-4.692,-4.608,-4.5307,-4.5307,-4.5307,-4.5307,-4.5328,-4.5338,-4.53,-4.4793,-4.4582,-4.4582,-4.4562,-4.4573,-4.471,-4.5247,-4.5538,-4.5684,0.0,0.0,0.0,-5.1224,-4.9853,-4.879,-4.8624,-4.8715,-4.8909,-4.9225,-4.8621,-4.8386,-4.8934,-4.7643,-4.6593,-4.6198,-4.5945,-4.5793,0.0,-4.5885,-4.5979,-4.6075,-4.6147,-4.6151,-4.6138,-4.6111,-4.6043,-4.5968,-4.592,-4.5906,-4.5906,-4.5906,-4.5906,-4.5911,-4.6041,-4.6096,-4.6099,-4.6241,-4.6267,-4.6208,-4.6205,-4.6194,-4.6193,-4.6203,-4.621,-4.623,-4.6229,-4.6259,0.0,0.0,-4.63,-4.6298,-4.6267,-4.6147,-4.6009,-4.5908,-4.5822,-4.5719,-4.5629,-4.5594,-4.5594,-4.5594,-4.5594,-4.5594,-4.5594,-4.5559,-4.5504,-4.5504,-4.5458,-4.5617,-4.6347,-4.6656,-4.705,-4.785,-4.8139,-4.8306,-4.8306,-4.8306,-4.8306,-4.8306,-4.8306,-4.8306,-4.8306,-4.8306,-4.8306,-4.8306,-4.8306,-4.8402,-4.8658,-4.8746,-4.9048,-4.9627,-4.9744,-4.9841,-4.9977,-4.9156,-4.8296,-4.7425,-4.6577,-4.5851,-4.5307,-4.5307,-4.5307,-4.5307,-4.5307,-4.5307,-4.522,-4.435,-4.4006,-4.3987,-4.3758,-4.3703,-4.3848,-4.471,-4.5266,-4.5559,0.0,0.0,0.0,-5.1958,-5.068,-4.9416,-4.8716,-4.8715,-4.884,-4.8909,-4.9174,-4.9258,-4.9022,-4.7281,-4.6372,-4.7008,-4.6283,-4.5803,-4.58,-4.5787,-4.5873,-4.5998,-4.6072,-4.6123,-4.6205,-4.6132,-4.6108,-4.6086,-4.5959,-4.5899,-4.5899,-4.5899,-4.5899,-4.5903,-4.604,-4.6108,-4.6111,-4.6233,-4.6269,-4.6204,-4.6204,-4.6204,-4.6203,-4.6204,-4.623,-4.6301,-4.6308,0.0,0.0,0.0,-4.63,-4.6275,-4.6144,-4.6009,0.0,-4.5815,-4.5723,-4.5622,-4.5594,-4.5594,-4.5594,-4.5594,-4.5594,-4.5594,-4.5594,-4.5559,-4.5504,-4.5504,-4.5458,-4.5566,-4.6114,-4.6523,-4.6989,-4.7525,-4.7997,-4.8306,-4.8306,-4.8306,-4.8306,-4.8306,-4.8306,-4.8306,-4.8306,-4.8306,-4.8306,-4.8306,-4.8306,-4.8306,-4.8325,-4.8623,-4.8967,-4.9299,-4.9632,-4.9588,-4.9137,-4.8277,-4.7387,-4.6538,-4.5717,-4.5326,-4.5307,-4.5307,-4.5307,-4.5307,-4.5307,-4.5307,-4.522,-4.435,-4.4006,-4.3911,-4.3138,-4.2843,-4.2948,-4.3829,-4.4691,-4.5419,0.0,0.0,0.0,-5.2087,-5.1698,-5.0968,-4.9602,-4.9066,-4.8822,-4.8891,-4.9193,0.0,0.0,0.0,0.0,0.0,-4.6538,-4.629,-4.558,-4.5704,-4.5848,-4.5988,-4.6027,-4.6082,-4.6198,-4.617,-4.6189,-4.623,-4.6199,-4.6173,-4.6173,-4.6173,-4.6173,-4.6173,-4.6206,-4.623,-4.6233,-4.623,-4.6224,-4.6196,-4.6147,-4.6131,-4.6133,-4.6189,-4.6203,-4.6248,0.0,0.0,0.0,0.0,0.0,-4.6275,-4.6141,-4.6005,-4.5861,-4.5708,-4.5637,-4.5594,-4.5594,-4.5594,-4.5594,-4.5594,-4.5594,-4.5594,-4.5594,-4.5577,-4.5568,-4.5568,-4.5947,-4.6481,-4.724,-4.7534,-4.7909,-4.8618,-4.8491,-4.8306,-4.8306,-4.8306,-4.8306,-4.8306,-4.8306,-4.8306,-4.8306,-4.8306,-4.8306,-4.8306,-4.8306,-4.8306,-4.8306,-4.8402,-4.8623,-4.8967,-4.9302,-4.915,-4.845,-4.784,-4.7091,-4.6235,-4.5595,-4.5307,-4.5307,-4.5307,-4.5307,-4.5307,-4.5307,-4.4972,-4.438,-4.3539,-4.287,-4.2316,-4.203,-4.1944,-4.204,-4.2919,-4.377,-4.4565,0.0,0.0,0.0,0.0,0.0,0.0,0.0,0.0,0.0,0.0,0.0,0.0,0.0,0.0,0.0,0.0,0.0,-4.654,-4.587,0.0,-4.5805,-4.5917,-4.5944,-4.6022,-4.6123,-4.6143,-4.6186,-4.6226,-4.6249,-4.6269,-4.6269,-4.6288,-4.6306,-4.6306,-4.6306,-4.6288,-4.6269,-4.622,-4.6184,-4.6169,-4.6122,-4.6098,-4.6105,-4.6155,-4.6181,0.0,0.0,0.0,0.0,0.0,-4.6309,-4.6277,-4.6095,-4.5924,-4.5769,-4.5643,-4.5594,-4.5594,-4.5594,-4.5594,-4.5594,-4.5594,-4.5594,-4.5594,-4.5594,-4.5594,-4.5594,-4.5594,-4.6215,-4.6992,-4.7844,-4.8074,-4.8378,-4.9167,-4.8746,-4.8306,-4.8306,-4.8306,-4.8306,-4.8306,-4.8306,-4.8306,-4.8306,-4.8306,-4.8306,-4.8306,-4.8306,-4.8306,-4.8306,-4.8306,-4.8439,-4.8799,-4.8735,-4.835,-4.7684,-4.7089,-4.6391,-4.5628,-4.5289,-4.5184,-4.5307,-4.5307,-4.5307,-4.5288,-4.4972,-4.4532,-4.3911,-4.2794,-4.2011,-4.1457,-4.117,-4.1074,-4.117,-4.2011,-4.266,-4.3281,0.0,0.0,0.0,0.0,0.0,0.0,0.0,0.0,0.0,0.0,0.0,0.0,0.0,0.0,0.0,0.0,0.0,0.0,0.0,0.0,0.0,-4.5781,-4.5861,-4.5925,-4.5997,-4.6052,-4.6095,-4.6098,-4.616,-4.6181,-4.62,-4.6265,-4.6289,-4.6289,-4.6289,-4.6245,-4.62,-4.6197,-4.615,-4.6095,-4.6091,-4.6087,-4.6087,-4.6091,0.0,0.0,0.0,0.0,0.0,0.0,-4.6291,-4.6236,-4.5972,-4.5763,-4.5594,-4.5594,-4.5594,-4.5594,-4.5594,-4.5594,-4.5594,-4.5594,-4.5594,-4.5594,-4.5594,-4.5594,-4.5594,-4.5594,-4.6281,-4.7089,-4.7854,-4.8131,-4.8491,-4.9186,-4.8746,-4.8306,-4.8306,-4.8306,-4.8306,-4.8306,-4.8306,-4.8306,-4.8306,-4.8306,-4.8306,-4.8306,-4.8306,-4.8306,-4.8306,-4.8306,-4.8439,-4.8708,-4.7999,-4.7327,-4.678,-4.6002,-4.5329,-4.4751,-4.4763,-4.4946,-4.5267,-4.5267,-4.5267,-4.5239,-4.438,-4.3987,-4.3815,-4.2163,-4.1476,-4.1361,-4.0597,-4.0301,-4.0377,-4.1151,-4.1457,-4.1734,0.0,0.0,0.0,0.0,0.0,0.0,0.0,0.0,0.0,0.0,0.0,0.0,0.0,0.0,0.0,0.0,0.0,0.0,0.0,0.0,0.0,0.0,0.0,0.0,0.0,0.0,0.0,0.0,0.0,-4.6128,-4.6128,-4.6142,-4.615,-4.615,-4.615,-4.6142,-4.6125,-4.6068,-4.6046,-4.6013,0.0,-4.5872,-4.5885,0.0,0.0,0.0,0.0,0.0,0.0,-4.6289,-4.6171,-4.5982,-4.593,-4.5763,-4.5594,-4.5594,-4.5594,-4.5594,-4.5594,-4.5594,-4.5594,-4.5594,-4.5594,-4.5594,-4.5594,-4.5594,-4.5594,-4.5594,-4.6723,-4.776,-4.7969,-4.8606,-4.913,-4.928,-4.8746,-4.8306,-4.8306,-4.8306,-4.8306,-4.8306,-4.8306,-4.8306,-4.8306,-4.8306,-4.8306,-4.8306,-4.8306,-4.8306,-4.8306,-4.8306,-4.8069,-4.7537,-4.7583,-4.6854,-4.528,-4.4727,-4.436,-4.421,-4.4416,-4.465,-4.4934,-4.4934,-4.5057,-4.5239,-4.438,-4.3663,-4.3023,-4.1934,-4.1151,-4.0597,-4.0377,-4.0301,-4.032,-4.054,-4.0998,-4.1562,0.0,0.0,0.0,0.0,0.0,0.0,0.0,0.0,0.0,0.0,0.0,0.0,0.0,0.0,0.0,0.0,0.0,0.0,0.0,0.0,0.0,0.0,0.0,0.0,0.0,0.0,0.0,0.0,0.0,0.0,0.0,-4.6061,-4.6098,-4.6098,-4.6098,-4.608,-4.6044,-4.6027,0.0,0.0,0.0,0.0,0.0,0.0,0.0,0.0,0.0,0.0,0.0,-4.6289,-4.6154,-4.5974,-4.5925,-4.5809,-4.5676,-4.562,-4.5594,-4.5594,-4.5594,-4.5594,-4.5594,-4.5594,-4.5594,-4.5594,-4.5594,-4.5594,-4.5594,-4.5594,-4.6626,-4.7617,-4.7931,-4.8597,-4.9131,-4.9273,-4.8866,-4.8458,-4.8325,-4.8306,-4.8306,-4.8306,-4.8306,-4.8306,-4.8306,-4.8306,-4.8306,-4.8306,-4.8306,-4.8306,-4.8306,-4.7957,-4.7571,-4.7113,-4.6596,-4.5636,-4.4195,-4.3904,-4.3862,-4.4005,-4.4151,-4.436,-4.4624,-4.4624,-4.4525,-4.4341,-4.3577,-4.2729,-4.1816,-4.1096,-4.0466,-3.9965,-4.0077,-4.0057,-3.9965,-4.0087,-4.0342,-4.0629,0.0,0.0,0.0,0.0,0.0,0.0,0.0,0.0,0.0,0.0,-5.0339,-4.9968,0.0,0.0,0.0,0.0,0.0,0.0,0.0,0.0,0.0,0.0,0.0,0.0,0.0,0.0,0.0,0.0,0.0,0.0,0.0,0.0,0.0,0.0,0.0,0.0,0.0,0.0,0.0,0.0,0.0,0.0,0.0,0.0,0.0,0.0,0.0,0.0,0.0,0.0,-4.6207,-4.6076,-4.5963,-4.5869,-4.5787,-4.5673,-4.5627,-4.5629,-4.5629,-4.5612,-4.5594,-4.5594,-4.5594,-4.5594,-4.5594,-4.5594,-4.5594,-4.5594,-4.6297,-4.7088,-4.7711,-4.83,-4.8808,-4.9078,-4.8959,-4.8676,-4.8363,-4.8306,-4.8306,-4.8306,-4.8306,-4.8306,-4.8306,-4.8306,-4.8306,-4.8306,-4.8214,-4.8141,-4.8141,-4.748,-4.7003,-4.6782,-4.5315,-4.4213,-4.3515,-4.3515,-4.3649,-4.3942,-4.3942,-4.4075,-4.4327,-4.4215,-4.3811,-4.3165,-4.2421,-4.1566,-4.0666,-4.0072,-3.9717,-3.9508,-3.9751,-3.9705,-3.9539,-3.9762,-3.9705,-3.9514,0.0,0.0,0.0,0.0,0.0,0.0,0.0,0.0,0.0,0.0,-5.1584,-5.0878,0.0,0.0,0.0,0.0,0.0,0.0,0.0,0.0,0.0,0.0,0.0,0.0,0.0,0.0,0.0,0.0,-4.5719,0.0,0.0,0.0,0.0,0.0,0.0,0.0,0.0,0.0,0.0,0.0,0.0,0.0,0.0,0.0,0.0,0.0,0.0,0.0,0.0,0.0,-4.6212,-4.61,-4.6073,-4.5977,-4.5886,-4.5844,-4.5803,-4.5764,-4.5764,-4.5684,-4.5594,-4.5594,-4.5594,-4.5594,-4.5594,-4.5594,-4.5594,-4.5594,-4.6297,-4.6915,-4.6925,-4.7899,-4.8605,-4.8348,-4.8588,-4.8676,-4.8363,-4.8306,-4.8306,-4.8306,-4.8306,-4.8306,-4.8306,-4.8306,-4.8306,-4.8306,-4.7681,-4.7314,-4.7314,-4.7186,-4.6489,-4.515,-4.4195,-4.3626,-4.3515,-4.3515,-4.3513,-4.3582,-4.3582,-4.3765,-4.4042,-4.3316,-4.3067,-4.3115,-4.1613,-4.0879,-4.0635,-3.9883,-3.9532,-3.9495,-3.9544,-3.9551,-3.9514,-3.9544,-3.9551,-3.9514,0.0,0.0,0.0,0.0,0.0,0.0,0.0,-5.3813,-5.3664,-5.3274,-5.2902,-5.2178,-5.0952,-5.0803,-5.0641,0.0,0.0,0.0,0.0,0.0,0.0,0.0,0.0,0.0,0.0,-4.6313,-4.6091,-4.5654,0.0,-4.5695,-4.5695,-4.5692,-4.5708,-4.5708,-4.5708,-4.5715,0.0,0.0,0.0,0.0,0.0,0.0,0.0,0.0,0.0,0.0,0.0,0.0,0.0,0.0,-4.6264,-4.6186,-4.6123,-4.6059,-4.599,-4.5925,-4.5881,-4.5841,-4.5808,-4.5749,-4.5692,-4.562,-4.5594,-4.5594,-4.5594,-4.5594,-4.5594,-4.5594,-4.5932,-4.6328,-4.6647,-4.7608,-4.8274,-4.8119,-4.864,-4.8883,-4.8364,-4.8306,-4.8306,-4.8306,-4.8306,-4.8306,-4.8306,-4.8306,-4.8141,-4.77,-4.7314,-4.7094,-4.7094,-4.6305,-4.5296,-4.4103,-4.3699,-4.3515,-4.3515,-4.3515,-4.3515,-4.3515,-4.3515,-4.3361,-4.3086,-4.2678,-4.2125,-4.1456,-4.078,-4.0188,-3.964,-3.9381,-3.9205,-3.9101,-3.9232,-3.9205,-3.9101,-3.9232,-3.9192,-3.9087,0.0,0.0,0.0,0.0,0.0,0.0,-5.3813,-5.3813,-5.3832,-5.3907,-5.3926,-5.3442,-5.2263,-5.186,-5.1533,0.0,0.0,0.0,0.0,0.0,0.0,0.0,0.0,0.0,0.0,0.0,0.0,-4.5883,-4.5937,0.0,0.0,0.0,0.0,0.0,-4.5676,-4.5684,-4.5692,-4.577,0.0,0.0,0.0,-4.58,0.0,0.0,0.0,0.0,0.0,0.0,0.0,0.0,-4.6308,-4.6286,-4.6173,-4.6131,-4.6114,-4.6021,-4.5978,-4.5939,-4.5885,-4.5835,-4.5794,-4.5676,-4.5635,-4.5637,-4.5603,-4.5594,-4.5594,-4.5594,-4.5594,-4.5771,-4.6321,-4.7135,-4.7758,-4.7914,-4.8563,-4.8891,-4.8477,-4.8344,-4.8306,-4.8306,-4.8306,-4.8306,-4.8306,-4.8141,-4.7773,-4.7149,-4.6782,-4.6581,-4.6581,-4.5205,-4.4158,-4.3533,-4.3515,-4.3515,-4.3515,-4.3515,-4.3515,-4.3515,-4.3331,-4.291,-4.2286,-4.1937,-4.1093,-3.9898,-3.9937,-3.9483,-3.8723,-3.8921,-3.8896,-3.8723,-3.8921,-3.8896,-3.8738,-3.8935,-3.8881,-3.8707,0.0,0.0,0.0,0.0,0.0,0.0,-5.3813,-5.3813,-5.3907,-5.4212,-5.4264,-5.4307,-5.4477,-5.328,-5.2305,0.0,0.0,0.0,0.0,0.0,0.0,0.0,0.0,0.0,0.0,0.0,0.0,-4.6778,-4.6797,0.0,0.0,0.0,0.0,0.0,0.0,-4.5648,-4.5709,-4.5709,0.0,0.0,0.0,0.0,0.0,0.0,0.0,0.0,0.0,-4.6139,-4.6204,0.0,-4.6308,-4.6308,-4.6286,-4.6279,-4.6288,-4.6264,-4.6189,-4.6087,-4.6061,-4.5978,-4.5875,-4.5801,-4.5786,-4.5749,-4.5629,-4.5594,-4.5594,-4.5594,-4.5594,-4.5578,-4.5534,-4.6225,-4.6944,-4.7315,-4.7848,-4.834,-4.8704,-4.8495,-4.8306,-4.8306,-4.8306,-4.8306,-4.8306,-4.7626,-4.7186,-4.7113,-4.5737,-4.4911,-4.4911,-4.4085,-4.3588,-4.3515,-4.3515,-4.3515,-4.3515,-4.3515,-4.3515,-4.3496,-4.2763,-4.2378,-4.2249,-4.0781,-4.0029,-3.9861,-3.9142,-3.8793,-3.8707,-3.8738,-3.8719,-3.8707,-3.8738,-3.8719,-3.8707,-3.8738,-3.8723,-3.8707,0.0,0.0,0.0,0.0,0.0,0.0,-5.3813,-5.3813,-5.3907,-5.4264,-5.4315,-5.443,-5.4761,-5.4292,-5.3714,-5.321,0.0,0.0,0.0,0.0,0.0,0.0,0.0,0.0,0.0,0.0,-4.8471,-4.7625,-4.7625,0.0,0.0,0.0,0.0,0.0,0.0,-4.6402,-4.6382,-4.5915,0.0,0.0,0.0,0.0,0.0,0.0,0.0,0.0,0.0,0.0,-4.6153,-4.6266,-4.6308,-4.6308,-4.6308,-4.6307,0.0,-4.6295,-4.6262,-4.6199,-4.6115,-4.6057,-4.5992,-4.5881,-4.5852,-4.5835,-4.5749,-4.5712,-4.57,-4.5612,-4.5594,-4.5559,-4.5419,-4.611,-4.6668,-4.6581,-4.7429,-4.7925,-4.7421,-4.7481,-4.7407,-4.6911,-4.6856,-4.6856,-4.6856,-4.6581,-4.6195,-4.5682,-4.4617,-4.3975,-4.3975,-4.3663,-4.3515,-4.3515,-4.3515,-4.3515,-4.3515,-4.3515,-4.3259,-4.2763,-4.2451,-4.1791,-4.0818,-4.0175,-3.9643,-3.9166,-3.8836,-3.8707,-3.8707,-3.8707,-3.8707,-3.8707,-3.8707,-3.8707,-3.8707,-3.8707,-3.8707,-3.8707,0.0,0.0,0.0,0.0,0.0,-5.3813,-5.3813,-5.387,-5.4072,-5.4397,-5.4525,-5.4712,-5.5018,-5.5078,-5.4911,-5.4546,-5.3625,0.0,0.0,0.0,0.0,0.0,0.0,0.0,0.0,0.0,-4.9356,-4.849,-4.849,-4.8355,0.0,0.0,-4.8105,-4.8086,0.0,0.0,0.0,0.0,0.0,0.0,0.0,0.0,0.0,0.0,0.0,0.0,0.0,0.0,0.0,0.0,0.0,0.0,0.0,0.0,0.0,0.0,-4.6296,-4.6287,-4.617,-4.6153,-4.6135,-4.5992,-4.5925,-4.5872,-4.5822,-4.5771,-4.5704,-4.562,-4.5594,-4.5559,-4.5419,-4.5899,-4.6287,0.0,0.0,-4.717,-4.6619,-4.6648,-4.6544,-4.5975,-4.5902,-4.5902,-4.5902,-4.5681,-4.5204,-4.4415,-4.3809,-4.3515,-4.3515,-4.3515,-4.3515,-4.3515,-4.3515,-4.3404,-4.3149,-4.3149,-4.2745,-4.1937,-4.1699,-4.1001,-3.9882,-3.9643,-3.9239,-3.8707,-3.8707,-3.8707,-3.8707,-3.8707,-3.8707,-3.8707,-3.8707,-3.8707,-3.8707,-3.8707,-3.8707,-3.8707,0.0,0.0,0.0,0.0,0.0,0.0,-5.3813,-5.4089,-5.4413,-5.4746,-5.5064,-5.5389,-5.5651,-5.5703,-5.5684,-5.5684,-5.4633,0.0,0.0,0.0,0.0,0.0,0.0,0.0,0.0,0.0,-5.0269,-4.9394,-4.9394,-4.8952,-4.8105,-4.8105,-4.8105,-4.8105,0.0,0.0,0.0,0.0,0.0,0.0,0.0,0.0,0.0,0.0,0.0,0.0,0.0,0.0,0.0,0.0,0.0,0.0,0.0,-4.6308,-4.6308,0.0,-4.6301,-4.6293,-4.6293,-4.6306,-4.6271,-4.6135,-4.5996,-4.5872,-4.5822,-4.57,-4.5594,-4.5594,-4.5594,-4.5559,-4.5419,-4.54,-4.5658,-4.6377,-4.6013,0.0,-4.6768,-4.6318,-4.5902,-4.5902,-4.5902,-4.5902,-4.5902,-4.5186,-4.4378,-4.357,-4.3515,-4.3515,-4.3515,-4.3515,-4.3515,-4.3515,-4.3515,-4.3112,-4.2323,-4.2304,-4.1919,-4.1095,-4.0304,-3.9918,-3.9863,-3.9074,-3.8707,-3.8707,-3.8707,-3.8707,-3.8707,-3.8707,-3.8707,-3.8707,-3.8707,-3.8707,-3.8707,-3.8707,-3.8707,-3.8707,0.0,0.0,0.0,0.0,0.0,0.0,-5.4107,-5.4229,-5.4511,-5.5069,-5.523,-5.5401,-5.5662,-5.5703,-5.5703,-5.5703,-5.4869,0.0,0.0,0.0,0.0,0.0,0.0,0.0,0.0,-5.0712,-5.0558,-5.0289,-5.0289,-5.0144,-4.9875,-4.9875,-4.9875,-4.9856,-4.924,-4.899,0.0,0.0,0.0,0.0,0.0,0.0,-4.5933,0.0,0.0,0.0,0.0,0.0,0.0,0.0,0.0,0.0,0.0,0.0,0.0,-4.6308,-4.6307,-4.6302,-4.6295,-4.6291,-4.6285,-4.6247,-4.6209,-4.6128,-4.5914,-4.5834,-4.5769,-4.5627,-4.5594,-4.5559,-4.5419,-4.54,-4.5467,-4.5642,-4.5615,-4.55,-4.5228,-4.5131,-4.4874,-4.4323,-4.4267,-4.4232,-4.4198,-4.396,-4.3722,-4.3447,-4.3429,-4.3464,-4.3497,-4.2983,-4.2671,-4.2671,-4.2671,-4.2286,-4.148,-4.148,-4.1093,-4.0286,-4.001,-3.9606,-3.9074,-3.8817,-3.8707,-3.8707,-3.8707,-3.8707,-3.8707,-3.8707,-3.8707,-3.8707,-3.8707,-3.8707,-3.8707,-3.8707,-3.8707,-3.8707,0.0,0.0,0.0,0.0,0.0,0.0,-5.4281,-5.4509,-5.4836,-5.5249,-5.5389,-5.5508,-5.5673,-5.5703,-5.5703,-5.5703,-5.5241,0.0,0.0,0.0,0.0,0.0,0.0,0.0,-5.0712,-5.0712,-5.0712,-5.0712,-5.0712,-5.0712,-5.0712,-5.0712,-5.0712,-5.0673,-5.0125,-4.9894,0.0,0.0,0.0,0.0,0.0,0.0,-4.6046,0.0,0.0,0.0,0.0,0.0,0.0,0.0,0.0,0.0,0.0,0.0,0.0,0.0,-4.6308,-4.6307,-4.63,-4.6295,-4.6291,-4.6303,-4.6216,-4.6102,-4.5935,-4.5832,-4.5749,-4.5618,-4.5594,-4.5559,-4.5419,-4.54,-4.5371,-4.5298,-4.5212,-4.497,-4.4458,-4.4316,-4.4066,-4.357,-4.348,-4.3446,-4.3394,-4.3394,-4.3394,-4.3394,-4.3411,-4.33,-4.3023,-4.2527,-4.1979,-4.1374,-4.1682,-4.1462,-4.0622,-4.0636,-4.0249,-3.9441,-3.9441,-3.9184,-3.8707,-3.8707,-3.8707,-3.8707,-3.8707,-3.8707,0.0,-3.8707,-3.8707,-3.8707,-3.8707,-3.8707,-3.8707,-3.8707,-3.8707,-3.8707,0.0,0.0,0.0,0.0,0.0,0.0,0.0,-5.4909,-5.5301,-5.5326,-5.5551,-5.5703,-5.5703,-5.5703,-5.5703,-5.5703,-5.5645,0.0,0.0,0.0,0.0,0.0,0.0,0.0,-5.0712,-5.0712,-5.0712,-5.0712,-5.0712,-5.0712,-5.0712,-5.0712,-5.0712,-5.0712,-5.0712,-5.0702,0.0,0.0,0.0,0.0,-4.7693,-4.6872,0.0,0.0,0.0,0.0,0.0,0.0,0.0,0.0,0.0,0.0,0.0,0.0,0.0,0.0,0.0,0.0,0.0,-4.6299,-4.6291,-4.6303,-4.6102,-4.591,-4.5905,-4.5749,0.0,-4.5594,-4.5605,-4.5559,-4.5419,-4.54,-4.539,-4.5298,-4.4814,-4.4411,-4.4397,-4.3886,-4.3497,-4.3497,-4.3446,-4.3394,-4.3394,-4.3394,-4.3376,-4.3303,-4.3354,-4.3023,-4.2166,-4.2058,-4.1327,-3.9829,-4.0514,-4.0531,-3.9717,-3.9795,-3.9441,-3.8707,-3.8707,-3.8707,-3.8707,-3.8707,-3.8707,-3.8707,-3.8707,-3.8707,-3.8707,-3.8707,-3.8707,-3.8707,-3.8707,-3.8707,-3.8707,-3.8707,-3.8707,-3.8707,0.0,0.0,0.0,0.0,0.0,0.0,0.0,0.0,0.0,0.0,-5.5651,-5.5703,-5.5703,-5.5703,-5.5703,0.0,0.0,0.0,0.0,0.0,0.0,0.0,0.0,0.0,-5.0712,-5.0712,-5.0712,-5.0712,-5.0712,-5.0712,-5.0712,-5.0712,-5.0712,-5.0712,-5.0712,-5.0756,0.0,0.0,0.0,0.0,-4.7761,-4.6947,0.0,0.0,0.0,0.0,-4.6288,-4.6289,0.0,0.0,0.0,0.0,0.0,0.0,0.0,0.0,-4.6308,-4.6308,-4.6304,0.0,-4.6297,-4.6305,-4.6178,-4.6037,0.0,-4.5822,-4.5719,-4.562,0.0,-4.5504,-4.5419,-4.539,-4.5379,-4.5317,-4.4976,-4.4637,-4.4425,-4.3886,-4.348,-4.3429,-4.3412,-4.3358,-4.3251,-4.3251,-4.3031,-4.2534,-4.2408,-4.2043,-4.1325,-4.06,-4.0039,-3.9655,-3.9298,-3.9069,-3.897,-3.8967,-3.8891,-3.8707,-3.8707,-3.8707,-3.8707,-3.8707,-3.8707,-3.8707,-3.8707,-3.8707,-3.8707,-3.8707,-3.8707,-3.8707,-3.8707,-3.8707,-3.8707,-3.8707,-3.8707,-3.8707,0.0,0.0,0.0,0.0,0.0,0.0,0.0,0.0,0.0,0.0,-5.5703,-5.5703,-5.5703,-5.5703,-5.5703,0.0,0.0,0.0,0.0,0.0,0.0,0.0,0.0,-5.0712,-5.0712,-5.0712,-5.0712,-5.0712,-5.0712,-5.0712,-5.0712,-5.0712,-5.0712,-5.0693,-5.0766,-5.0871,-5.095,-5.0205,-4.9403,-4.8586,-4.785,0.0,0.0,0.0,0.0,0.0,-4.6308,-4.6308,0.0,-4.6308,-4.6308,-4.6308,0.0,0.0,0.0,0.0,-4.6308,-4.6308,-4.6304,-4.6301,-4.63,-4.6305,-4.6147,-4.5992,-4.5915,0.0,0.0,0.0,0.0,0.0,-4.541,-4.54,-4.5388,-4.5307,-4.4929,-4.4479,-4.4053,-4.3714,-4.3497,-4.3464,-4.3358,-4.3269,-4.3214,-4.285,-4.245,-4.2084,-4.1682,-4.1117,-4.0349,-3.9843,-3.939,-3.901,-3.8652,-3.8494,-3.8609,-3.8658,-3.8707,-3.8707,-3.8707,-3.8707,-3.8707,-3.8707,-3.8707,-3.8707,-3.8707,-3.8707,-3.8707,-3.8707,-3.8707,-3.8707,-3.8707,-3.8707,-3.8707,-3.8707,-3.8707,-3.8707,0.0,0.0,0.0,0.0,0.0,0.0,0.0,0.0,0.0,0.0,0.0,0.0,0.0,0.0,0.0,0.0,0.0,0.0,0.0,0.0,0.0,0.0,-5.0721,-5.0712,-5.0712,-5.0712,-5.0712,-5.0712,-5.0712,-5.0712,-5.0693,-5.0721,-5.074,-5.0747,-5.0882,-5.095,-5.0873,-5.0152,-4.9325,-4.8475,-4.7713,0.0,0.0,0.0,0.0,0.0,0.0,0.0,0.0,-4.6308,-4.6308,-4.6308,-4.6308,0.0,0.0,0.0,0.0,0.0,-4.6304,-4.6301,-4.6299,-4.6305,-4.6098,-4.5899,-4.5899,0.0,0.0,0.0,0.0,0.0,0.0,-4.539,-4.5378,-4.5307,-4.4801,-4.4202,-4.3631,-4.3496,-4.348,-4.3445,-4.3286,-4.3142,-4.3014,-4.2341,-4.1796,-4.1559,-4.0956,-4.0227,-3.936,-3.9306,-3.8997,-3.8325,-3.837,-3.8415,-3.8494,-3.8609,-3.8658,-3.8643,-3.8658,-3.8658,-3.8673,-3.8692,-3.8707,-3.8707,-3.8707,-3.8707,-3.8707,-3.8707,-3.8707,-3.8707,-3.8707,-3.8707,-3.8707,-3.8707,-3.8707,-3.8707,0.0,0.0,0.0,0.0,0.0,0.0,0.0,0.0,0.0,0.0,0.0,0.0,0.0,0.0,0.0,0.0,0.0,0.0,0.0,0.0,0.0,-5.0794,-5.074,-5.0712,-5.0712,-5.0712,-5.0712,-5.0712,-5.0712,-5.0712,-5.0693,-5.0819,-5.0908,-5.0957,-5.1096,-5.0787,-5.0115,-4.9385,-4.8573,-4.7694,-4.6836,0.0,0.0,0.0,0.0,0.0,0.0,0.0,0.0,-4.6308,-4.6308,-4.6308,-4.6308,0.0,0.0,0.0,0.0,0.0,-4.6303,-4.6299,-4.6293,-4.6303,-4.6098,-4.5899,-4.5899,0.0,0.0,0.0,0.0,0.0,0.0,-4.5348,-4.5317,-4.5307,-4.4801,-4.4242,-4.3804,-4.3565,-4.334,-4.3196,-4.3141,-4.285,-4.2159,-4.1978,-4.1359,-4.0045,-3.9792,-3.934,-3.8525,-3.8422,-3.8368,-3.8307,-3.8323,-3.8354,-3.8415,-3.8494,-3.8494,-3.8449,-3.8494,-3.8525,-3.8525,-3.8658,-3.8707,-3.8707,-3.8707,-3.8707,-3.8707,-3.8707,-3.8707,-3.8707,-3.8707,-3.8707,-3.8707,-3.8707,-3.8707,-3.8707,0.0,0.0,0.0,0.0,0.0,0.0,0.0,0.0,0.0,0.0,0.0,0.0,0.0,0.0,0.0,0.0,0.0,0.0,0.0,0.0,-5.1284,-5.0821,-5.0776,-5.074,-5.0712,-5.0702,-5.0693,-5.0712,-5.0764,-5.0805,-5.0805,-5.0958,-5.1036,-5.1081,-5.0719,-5.0391,-5.0026,-4.8748,-4.7969,-4.7519,0.0,0.0,0.0,0.0,0.0,0.0,0.0,0.0,0.0,0.0,-4.6308,-4.6308,-4.6308,0.0,0.0,0.0,0.0,0.0,-4.6303,-4.6297,-4.6287,-4.6214,-4.6049,-4.5883,-4.5859,-4.57,0.0,0.0,0.0,0.0,0.0,-4.5338,-4.5184,-4.4862,-4.4457,-4.4026,-4.3631,-4.3481,-4.3176,-4.2577,-4.2468,-4.2141,-4.1324,-4.0834,-4.0254,-3.9544,-3.9073,-3.8657,-3.8277,-3.8225,-3.8225,-3.8241,-3.8274,-3.8307,-3.8289,-3.837,-3.8401,-3.8399,-3.8478,-3.851,-3.8491,-3.8643,-3.8707,-3.8707,-3.8707,-3.8707,-3.8707,-3.8707,-3.8707,-3.8707,-3.8707,-3.8707,-3.8707,-3.8707,-3.8707,-3.8707,0.0,0.0,0.0,0.0,0.0,0.0,0.0,0.0,0.0,0.0,0.0,0.0,0.0,0.0,0.0,0.0,0.0,0.0,0.0,-5.2564,-5.1734,-5.0866,-5.0819,-5.0793,-5.072,-5.072,-5.072,-5.0757,-5.0848,-5.0919,-5.0966,-5.1084,-5.1168,-5.121,-5.041,-4.9984,-4.9784,-4.8242,-4.748,-4.7246,0.0,0.0,0.0,0.0,0.0,0.0,0.0,0.0,0.0,0.0,0.0,0.0,0.0,0.0,0.0,-4.6308,-4.6308,-4.6305,-4.6302,-4.6296,-4.6261,-4.6122,-4.5996,-4.5892,-4.5808,-4.5621,0.0,0.0,0.0,0.0,-4.5388,-4.5267,-4.5011,-4.4498,-4.4162,-4.3846,-4.3411,-4.334,-4.2994,-4.2031,-4.1887,-4.1469,-4.0488,-3.9784,-3.9315,-3.9115,-3.8553,-3.8209,-3.8209,-3.8209,-3.8209,-3.8209,-3.8241,-3.8241,-3.8209,-3.8241,-3.8289,-3.8352,-3.8415,-3.8462,-3.8478,-3.8609,-3.8673,-3.8707,-3.8707,-3.8707,-3.8707,-3.8707,-3.8707,-3.8707,-3.8707,-3.8707,-3.8707,-3.8707,-3.8707,-3.8707,0.0,0.0,0.0,0.0,0.0,0.0,0.0,0.0,0.0,0.0,0.0,0.0,0.0,0.0,0.0,0.0,0.0,0.0,0.0,-5.2633,-5.1807,-5.0929,-5.0897,-5.0855,-5.0793,-5.0793,-5.0811,-5.0898,-5.0893,-5.1006,-5.1184,-5.1187,-5.1269,-5.1344,-5.0544,-4.9745,-4.8926,-4.8008,-4.7129,-4.6387,-4.6328,0.0,0.0,0.0,0.0,0.0,0.0,0.0,0.0,0.0,0.0,0.0,0.0,0.0,-4.6308,-4.6308,-4.6307,-4.6302,-4.6301,-4.6294,-4.6273,-4.6138,-4.5996,-4.5867,-4.5735,-4.5596,0.0,-4.5419,0.0,-4.5369,-4.5317,-4.5045,-4.4739,-4.4438,-4.4162,-4.383,-4.3286,-4.3196,-4.2832,-4.185,-4.1723,-4.1126,-3.964,-3.9441,-3.9079,-3.8354,-3.8227,-3.8209,-3.8209,-3.8209,-3.8209,-3.8209,-3.8209,-3.8209,-3.8209,-3.8209,-3.8209,-3.8225,-3.829,-3.8354,-3.8415,-3.8478,-3.8575,-3.8707,-3.8707,-3.8707,-3.8707,-3.8707,-3.8707,-3.8707,-3.8707,-3.8707,-3.8707,-3.8707,-3.8707,-3.8707,0.0,0.0,0.0,0.0,0.0,0.0,0.0,0.0,0.0,0.0,0.0,0.0,0.0,0.0,0.0,0.0,0.0,0.0,0.0,-5.318,-5.2376,-5.0956,-5.0901,-5.0921,-5.099,-5.0949,-5.0911,-5.09,-5.1026,-5.1161,-5.1324,-5.1315,-5.1088,-5.0623,-4.9765,-4.8906,-4.8027,-4.7168,-4.6601,-4.6308,-4.6308,-4.6308,0.0,0.0,0.0,0.0,0.0,0.0,0.0,0.0,-4.6308,-4.6308,-4.6308,-4.6308,-4.6308,-4.6308,-4.6307,-4.6419,-4.6964,-4.7113,-4.7071,-4.6937,-4.6818,0.0,0.0,-4.5552,-4.5429,-4.5399,-4.5378,-4.5328,-4.5307,-4.4887,-4.4519,-4.443,-4.3983,-4.3532,-4.3232,-4.316,-4.2777,-4.1814,-4.1252,-4.0528,-3.9496,-3.8952,-3.8535,-3.8227,-3.8209,-3.8209,-3.8209,-3.8209,-3.8054,-3.7774,-3.7756,-3.765,-3.7394,-3.7376,-3.7376,-3.7412,-3.7757,-3.7932,-3.7984,-3.8033,-3.81,-3.8168,-3.8446,-3.8575,-3.8575,-3.8658,-3.8707,-3.8707,-3.8707,-3.8707,-3.8707,-3.8707,-3.8707,-3.8707,0.0,0.0,0.0,0.0,0.0,0.0,0.0,0.0,0.0,0.0,0.0,0.0,0.0,0.0,0.0,0.0,0.0,0.0,-5.3614,-5.3498,-5.2748,-5.1032,-5.0954,-5.1024,-5.1136,-5.1118,-5.1079,-5.1039,-5.1183,-5.1315,-5.1383,-5.1132,-5.0722,-5.0155,-4.9004,-4.8164,-4.7539,-4.668,-4.6308,-4.6308,-4.6308,-4.6308,0.0,0.0,0.0,0.0,0.0,0.0,0.0,0.0,-4.6308,-4.6308,-4.6308,-4.6308,-4.6308,-4.6308,-4.6306,-4.6497,-4.7353,-4.7403,-4.7227,-4.7363,0.0,0.0,-4.5836,-4.5535,-4.539,-4.5379,-4.5328,-4.5307,-4.5307,-4.4814,-4.4383,-4.4374,-4.3825,-4.3359,-4.3196,-4.3123,-4.274,-4.1814,-4.1216,-4.0583,-3.9822,-3.9025,-3.8589,-3.8589,-3.8354,-3.814,-3.8003,-3.7967,-3.7756,-3.7322,-3.7321,-3.7189,-3.69,-3.69,-3.69,-3.69,-3.715,-3.7338,-3.7487,-3.7542,-3.7578,-3.7632,-3.7963,-3.8132,-3.8132,-3.8285,-3.8401,-3.8515,-3.8515,-3.8596,-3.8707,-3.8707,-3.8707,-3.8707,0.0,0.0,0.0,0.0,0.0,0.0,0.0,0.0,-5.5797,-5.5797,-5.5856,0.0,0.0,0.0,0.0,0.0,0.0,0.0,-5.3622,-5.3486,-5.2782,-5.1177,-5.1105,-5.1122,-5.1199,-5.1272,-5.1297,-5.1297,-5.1364,-5.1406,-5.1367,-5.0566,-5.0195,-5.0098,-4.8379,-4.7598,-4.7539,-4.668,-4.6308,-4.6308,-4.6308,-4.6308,-4.6308,0.0,0.0,0.0,0.0,0.0,0.0,0.0,-4.6308,-4.6308,-4.6308,-4.6308,-4.6308,-4.6307,-4.6305,-4.6496,-4.7368,-4.697,-4.6485,-4.7229,0.0,0.0,-4.5645,-4.5509,-4.5371,-4.5309,-4.5307,-4.5307,-4.5307,-4.4814,-4.4388,-4.4303,-4.3777,-4.3323,-4.3123,-4.3104,-4.274,-4.1832,-4.1705,-4.1397,-4.0583,-3.984,-3.9405,-3.9405,-3.8663,-3.8003,-3.7541,-3.7505,-3.7321,-3.69,-3.69,-3.688,-3.688,-3.688,-3.688,-3.688,-3.6492,-3.6536,-3.6981,-3.6981,-3.7058,-3.7209,-3.7268,-3.7305,-3.7305,-3.7451,-3.7721,-3.8101,-3.8101,-3.8352,-3.8692,-3.8692,-3.8692,-3.8692,0.0,0.0,0.0,0.0,0.0,0.0,0.0,0.0,-5.5836,-5.5924,-5.5962,0.0,0.0,0.0,0.0,0.0,0.0,0.0,-5.3643,-5.3085,-5.2309,-5.1219,-5.1161,-5.1203,-5.1274,-5.1334,-5.1364,-5.1364,-5.1386,-5.1113,-5.0547,-5.0312,-4.9551,-4.8359,-4.7832,-4.7266,-4.668,-4.6406,-4.6308,-4.6308,-4.6308,-4.6308,-4.6308,0.0,0.0,0.0,0.0,0.0,0.0,0.0,0.0,0.0,-4.6308,-4.6308,-4.6308,-4.6307,-4.6305,-4.6613,-4.8051,-4.7769,-4.7275,-4.8116,-4.7524,0.0,0.0,-4.5509,0.0,0.0,-4.5307,-4.5307,-4.5307,-4.4764,-4.4318,-4.4303,-4.3679,-4.316,-4.3104,-4.303,-4.2865,-4.2574,-4.2049,-4.1614,-4.1361,-4.0619,-4.0041,-3.9692,-3.8976,-3.8344,-3.7888,-3.7357,-3.69,-3.6492,-3.6492,-3.6326,-3.6006,-3.5985,-3.5985,-3.5968,-3.5871,-3.6049,-3.6495,-3.6495,-3.6536,-3.6597,-3.6941,-3.7154,-3.7248,-3.7414,-3.7578,-3.7685,-3.7685,-3.7738,-3.7896,-3.8168,-3.8269,-3.832,0.0,0.0,0.0,0.0,0.0,0.0,0.0,0.0,-5.5914,-5.599,-5.5989,-5.5996,0.0,0.0,0.0,0.0,0.0,0.0,-5.3738,-5.2937,-5.2127,-5.1284,-5.1245,-5.1277,-5.1335,-5.1385,-5.1406,-5.1406,-5.1406,-5.0996,-5.0195,-4.9844,-4.8945,-4.7578,-4.7246,-4.6797,-4.6308,-4.6308,-4.6308,-4.6308,-4.6308,-4.6308,-4.6308,0.0,0.0,0.0,0.0,0.0,0.0,0.0,0.0,0.0,-4.6308,-4.6308,-4.6308,-4.6306,-4.6304,-4.6592,-4.7949,-4.7618,-4.7088,-4.7895,-4.7334,-4.639,-4.5673,-4.5438,-4.5341,-4.5317,-4.5307,-4.5307,-4.5307,-4.4752,-4.4289,-4.4227,-4.3577,-4.3086,-4.303,-4.2938,-4.2901,-4.2901,-4.2466,-4.2101,-4.1912,-4.0904,-4.007,-3.9589,-3.8577,-3.7782,-3.7359,-3.6902,-3.6471,-3.6045,-3.6023,-3.5893,-3.56,-3.56,-3.56,-3.56,-3.56,-3.5739,-3.6023,-3.6023,-3.6023,-3.6045,-3.6416,-3.6681,-3.6801,-3.6958,-3.7132,-3.7265,-3.7265,-3.7377,-3.756,-3.7948,-3.8101,-3.817,0.0,0.0,-5.5703,-5.5703,0.0,0.0,0.0,0.0,-5.5999,-5.5999,-5.5996,-5.5993,0.0,0.0,0.0,0.0,0.0,-5.4562,-5.3744,-5.2871,-5.2068,-5.134,-5.1302,-5.1335,-5.1406,-5.1406,-5.1406,-5.1406,-5.1328,-5.0879,-5.0058,-4.9199,-4.832,-4.7441,-4.6641,-4.6308,-4.6308,-4.6308,-4.6308,-4.6308,-4.6289,-4.6288,-4.6286,-4.6288,0.0,0.0,0.0,0.0,0.0,0.0,0.0,0.0,-4.6308,-4.6308,-4.6308,-4.6304,-4.6301,-4.6494,-4.7357,-4.6866,-4.6267,-4.7018,-4.648,-4.57,-4.5466,-4.5341,-4.5307,-4.5307,-4.5307,-4.5307,-4.5307,-4.4752,-4.4242,-4.4132,-4.3525,-4.303,-4.2919,-4.2901,-4.2901,-4.2901,-4.2863,-4.2637,-4.2149,-4.0786,-3.9716,-3.9178,-3.7769,-3.6783,-3.6362,-3.6272,-3.6045,-3.5622,-3.56,-3.56,-3.56,-3.56,-3.56,-3.56,-3.56,-3.56,-3.56,-3.56,-3.56,-3.5622,-3.5866,-3.6058,-3.6187,-3.6255,-3.6512,-3.6841,-3.6841,-3.7075,-3.745,-3.7844,-3.7982,-3.8051,0.0,0.0,-5.5703,-5.5703,0.0,0.0,0.0,0.0,0.0,-5.6005,0.0,0.0,0.0,0.0,0.0,0.0,-5.4577,-5.3774,-5.2916,-5.209,-5.1558,-5.1385,-5.1385,-5.1386,-5.1406,-5.1406,-5.1406,-5.1406,-5.0762,-5.0019,-4.916,-4.8281,-4.7402,-4.6562,-4.6387,-4.6308,-4.6308,-4.6308,-4.6308,-4.6287,-4.6195,-4.614,-4.615,-4.6132,-4.6132,0.0,0.0,0.0,0.0,0.0,0.0,0.0,-4.6308,-4.6308,-4.6307,-4.6303,-4.6299,-4.6488,-4.7356,-4.6794,-4.6144,-4.6998,-4.6346,-4.5465,-4.54,-4.5341,-4.5307,-4.5307,-4.5307,-4.5307,-4.5307,-4.4663,-4.4132,-4.4098,-4.3456,-4.2938,-4.2901,-4.2901,-4.2901,-4.2901,-4.2557,-4.2067,-4.1399,-4.0683,-3.9866,-3.8799,-3.7893,-3.7176,-3.6724,-3.6101,-3.5694,-3.56,-3.56,-3.56,-3.56,-3.56,-3.56,-3.56,-3.56,-3.56,-3.56,-3.56,-3.56,-3.56,-3.5773,-3.5927,-3.6041,-3.6165,-3.6297,-3.643,-3.643,-3.6492,-3.6597,-3.7017,-3.717,-3.7265,0.0,0.0,0.0,0.0,0.0,0.0,0.0,0.0,0.0,0.0,0.0,0.0,0.0,0.0,0.0,0.0,-5.4014,-5.3134,-5.2685,-5.1854,-5.1406,-5.1406,-5.1406,-5.1406,-5.1406,-5.1406,-5.1211,-5.082,-4.998,-4.9355,-4.8887,-4.8008,-4.7129,-4.6308,-4.6308,-4.6308,-4.6308,-4.6225,-4.6199,-4.6194,-4.6067,-4.6008,-4.599,-4.6001,-4.5997,-4.602,-4.6167,0.0,0.0,0.0,0.0,0.0,0.0,0.0,-4.6304,-4.63,-4.6295,-4.6386,-4.6784,-4.6403,-4.5994,-4.6338,-4.5921,-4.54,-4.54,-4.5341,-4.5307,-4.5307,-4.5307,-4.5297,-4.5265,-4.4618,-4.4084,-4.4058,-4.3386,-4.2901,-4.2901,-4.2901,-4.2755,-4.2375,-4.1939,-4.1281,-4.0278,-3.9498,-3.866,-3.7792,-3.7028,-3.649,-3.6254,-3.5842,-3.56,-3.56,-3.56,-3.56,-3.56,-3.56,-3.56,-3.56,-3.56,-3.56,-3.56,-3.56,-3.56,-3.56,-3.5751,-3.5883,-3.6019,-3.6144,-3.6251,-3.6301,-3.6301,-3.6301,-3.6364,-3.6741,-3.69,-3.6997,0.0,0.0,0.0,0.0,0.0,0.0,0.0,0.0,0.0,0.0,0.0,0.0,0.0,0.0,-5.4927,0.0,0.0,0.0,-5.248,-5.1797,-5.1406,-5.1406,-5.1406,-5.1406,-5.1406,-5.1269,-5.0879,-5.0195,-4.918,-4.8672,-4.8652,-4.7773,-4.6992,-4.6308,-4.6308,-4.6289,-4.6268,-4.6147,-4.6082,-4.6045,-4.5935,-4.5872,-4.5871,-4.5872,-4.5886,-4.5906,-4.6017,-4.6072,-4.6128,-4.6227,0.0,0.0,0.0,0.0,-4.63,-4.6295,-4.6293,-4.6284,-4.6156,-4.6013,-4.5844,-4.564,-4.5504,-4.54,-4.54,-4.5341,-4.5307,-4.5307,-4.5307,-4.5286,-4.5203,-4.4612,-4.4087,-4.3998,-4.3387,-4.2865,-4.2701,-4.2683,-4.2393,-4.1596,-4.1056,-4.0301,-3.9118,-3.8022,-3.7163,-3.6632,-3.5994,-3.56,-3.56,-3.56,-3.56,-3.56,-3.56,-3.56,-3.56,-3.56,-3.56,-3.56,-3.56,-3.56,-3.56,-3.56,-3.56,-3.56,-3.5728,-3.5839,-3.5975,-3.6101,-3.6212,-3.628,-3.6301,-3.6301,-3.6343,-3.6678,-3.6801,-3.6841,0.0,0.0,0.0,0.0,0.0,0.0,0.0,0.0,0.0,0.0,-5.5623,-5.5209,0.0,-5.4589,-5.3787,-5.3085,-5.2832,-5.2383,-5.1621,0.0,0.0,-5.1406,-5.1406,-5.1406,-5.1406,-5.0723,-5.0312,-5.0195,-4.8574,-4.7773,-4.7754,-4.6875,-4.6406,-4.6308,-4.6308,-4.6245,-4.6138,-4.6113,-4.6027,-4.5924,-4.585,-4.5816,-4.5802,-4.5809,-4.5809,-4.5822,-4.5894,-4.6009,-4.6092,-4.6114,-4.6191,0.0,0.0,0.0,-4.6294,-4.6293,-4.6308,-4.6302,-4.6275,0.0,-4.5844,-4.564,-4.5504,-4.54,-4.54,-4.5341,-4.5307,-4.5307,-4.5307,-4.5286,-4.5203,-4.4612,-4.4087,-4.3998,-4.3387,-4.2647,-4.1958,-4.185,-4.156,-4.0764,-3.9945,-3.9142,-3.8345,-3.7425,-3.6593,-3.5825,-3.565,-3.56,-3.56,-3.56,-3.56,-3.56,-3.56,-3.56,-3.56,-3.56,-3.56,-3.56,-3.56,-3.56,-3.56,-3.56,-3.56,-3.56,-3.5622,-3.5689,-3.5839,-3.5954,-3.6101,-3.6208,-3.6276,-3.6301,-3.6301,-3.6364,-3.6367,-3.643,0.0,0.0,0.0,0.0,0.0,0.0,0.0,0.0,0.0,0.0,0.0,-5.4423,0.0,-5.3743,-5.3082,-5.2734,-5.2246,-5.1816,-5.1426,-5.1406,-5.1406,-5.1406,-5.1406,-5.1406,-5.1406,-5.0605,-4.9961,-4.9473,-4.8203,-4.7344,-4.6855,-4.6484,-4.6308,-4.6308,-4.6308,-4.6221,-4.6106,-4.6018,-4.5929,-4.5832,-4.5733,-4.5688,-4.5692,-4.5692,-4.5692,-4.5696,-4.5809,-4.5877,-4.5933,-4.5983,-4.6079,-4.6192,-4.6199,0.0,0.0,0.0,-4.6303,-4.6271,-4.6128,-4.5969,-4.579,-4.5635,-4.5522,-4.5438,-4.541,-4.539,-4.5338,-4.5307,-4.4914,-4.4692,-4.5063,-4.4585,-4.3923,-4.3356,-4.2693,-4.1959,-4.1144,-4.1035,-4.0727,-3.9967,-3.9122,-3.8272,-3.7516,-3.6633,-3.5994,-3.5616,-3.56,-3.56,-3.56,-3.56,-3.56,-3.56,-3.56,-3.56,-3.56,-3.56,-3.56,-3.56,-3.56,-3.56,-3.56,-3.56,-3.56,-3.56,-3.56,-3.5684,-3.5817,-3.5932,-3.6079,-3.6225,-3.6259,-3.6301,-3.6301,-3.6301,-3.6301,-3.6322,0.0,0.0,0.0,0.0,0.0,0.0,0.0,0.0,0.0,0.0,0.0,0.0,0.0,0.0,0.0,0.0,-5.1777,-5.1406,-5.1406,-5.1406,-5.1406,-5.1406,-5.1406,-5.1308,-5.1094,-5.0293,-4.9433,-4.8574,-4.7695,-4.6933,-4.6308,-4.6308,-4.6288,-4.6247,-4.6245,-4.6168,-4.6033,-4.5924,-4.5826,-4.574,-4.5643,-4.5594,-4.5594,-4.5594,-4.5594,-4.5612,-4.5704,-4.5771,-4.5801,-4.5865,-4.5954,-4.6049,-4.6049,-4.6141,0.0,0.0,0.0,-4.5913,-4.5674,-4.5564,-4.5414,-4.5078,-4.5077,-4.5102,-4.4834,-4.4738,-4.4717,-4.4676,-4.415,-4.3842,-4.4364,-4.3937,-4.3252,-4.2538,-4.1851,-4.1126,-4.0329,-4.022,-3.9895,-3.903,-3.8264,-3.7529,-3.6831,-3.6049,-3.56,-3.56,-3.56,-3.56,-3.56,-3.56,-3.56,-3.56,-3.56,-3.56,-3.56,-3.56,-3.56,-3.56,-3.56,-3.56,-3.56,-3.56,-3.56,-3.56,-3.56,-3.5667,-3.5773,-3.5932,-3.6058,-3.6165,-3.6276,-3.6301,-3.6301,-3.6301,-3.6301,-3.6301,0.0,0.0,0.0,0.0,0.0,0.0,0.0,0.0,0.0,0.0,0.0,0.0,-5.2773,-5.1992,-5.1465,-5.1465,-5.1426,-5.1406,-5.1406,-5.1406,-5.1406,-5.1406,-5.1406,0.0,-5.0273,-4.9414,-4.8535,-4.7676,-4.6797,-4.6348,-4.6308,-4.6308,-4.6221,-4.6113,-4.6113,-4.6047,-4.5906,-4.5852,-4.5725,-4.5612,-4.5594,-4.5594,-4.5594,-4.5594,-4.5594,-4.5594,-4.5603,-4.5692,-4.5807,-4.5794,-4.5853,-4.591,-4.591,-4.6,-4.6105,0.0,0.0,0.0,-4.49,-4.4757,-4.4453,-4.3544,-4.3808,-4.4039,-4.3224,-4.2986,-4.2928,-4.2928,-4.2889,-4.284,-4.2756,-4.2234,-4.1787,-4.1683,-4.104,-4.0293,-3.955,-3.946,-3.8994,-3.7739,-3.7223,-3.6794,-3.6385,-3.5893,-3.56,-3.56,-3.56,-3.56,-3.56,-3.56,-3.56,-3.56,-3.56,-3.56,-3.56,-3.56,-3.56,-3.56,-3.56,-3.56,-3.56,-3.56,-3.56,-3.56,-3.56,-3.56,-3.5622,-3.5888,-3.5997,-3.6019,-3.6216,-3.6301,-3.6301,-3.6301,-3.6301,-3.6301,0.0,0.0,0.0,0.0,0.0,0.0,0.0,0.0,0.0,0.0,0.0,0.0,0.0,-5.1582,-5.1406,-5.1406,-5.1406,-5.1406,-5.1406,-5.1406,-5.1172,-5.0644,-5.0625,-5.0234,-4.9375,-4.8516,-4.791,-4.7598,-4.6738,-4.6308,-4.6308,-4.6308,-4.6238,-4.6097,-4.6108,-4.599,-4.5826,-4.5815,-4.5727,-4.5594,-4.5594,-4.5594,-4.5594,-4.5594,-4.5594,-4.5594,-4.5594,-4.5637,-4.5668,-4.5668,-4.5737,-4.5744,-4.5183,-4.5101,-4.5088,-4.4528,-4.4233,-4.4046,-4.3826,-4.3795,-4.371,-4.3253,-4.3313,-4.3382,-4.2983,-4.2889,-4.2862,-4.2804,-4.2354,-4.1934,-4.1854,-4.1769,-4.1493,-4.0877,-4.0217,-3.9514,-3.8735,-3.8644,-3.8362,-3.7595,-3.7133,-3.6741,-3.6343,-3.5871,-3.56,-3.56,-3.56,-3.56,-3.56,-3.56,-3.56,-3.56,-3.56,-3.5424,-3.5108,-3.5424,-3.5424,-3.5091,-3.5424,-3.56,-3.56,-3.56,-3.56,-3.56,-3.5689,-3.5667,-3.5622,-3.5888,-3.5997,-3.6019,-3.6216,-3.6301,-3.6301,-3.6301,-3.6301,-3.6301,0.0,0.0,0.0,0.0,0.0,-5.3264,-5.3084,-5.2561,-5.2216,-5.2265,0.0,0.0,0.0,0.0,-5.1406,-5.1406,-5.1406,-5.1289,-5.1016,-5.0996,-5.0625,-4.9805,-4.9766,-4.9355,-4.8476,-4.7891,-4.7461,-4.7168,-4.6582,-4.6308,-4.6308,-4.6307,-4.6207,-4.6031,-4.6029,-4.5954,-4.5796,-4.5745,-4.5684,-4.5594,-4.5594,-4.5594,-4.5594,-4.5594,-4.5594,-4.5594,-4.5594,-4.5594,-4.5594,-4.5594,-4.5459,-4.5205,-4.4626,-4.4324,-4.4095,-4.3554,-4.3259,0.0,-4.2884,0.0,0.0,-4.2396,-4.2464,-4.2524,-4.2139,-4.2036,-4.2,-4.1973,-4.1495,-4.1055,-4.0886,-4.0884,-4.068,-4.0021,-3.9392,-3.8825,-3.8281,-3.8209,-3.8037,-3.7578,-3.7133,-3.6741,-3.6343,-3.5871,-3.56,-3.56,-3.56,-3.56,-3.56,-3.56,-3.56,-3.56,-3.5424,-3.5155,-3.4793,-3.4975,-3.4975,-3.4793,-3.5155,-3.5424,-3.56,-3.56,-3.56,-3.56,-3.5751,-3.5751,-3.5689,-3.5971,-3.6079,-3.6062,-3.6237,-3.6301,-3.6301,-3.6301,-3.6301,-3.6301,0.0,0.0,-5.3405,-5.2689,-5.2561,-5.2303,-5.1523,-5.1406,-5.1406,-5.1406,0.0,0.0,0.0,0.0,0.0,-5.1367,-5.1348,-5.0996,-5.0215,-5.0156,-4.9766,-4.8906,-4.8867,-4.8457,-4.7578,-4.7558,-4.7148,-4.6308,-4.6308,-4.6308,-4.6307,-4.6303,-4.6143,-4.5901,-4.589,-4.5871,-4.5786,-4.5671,-4.5594,-4.5594,-4.5594,-4.5594,-4.5594,-4.5594,-4.5605,-4.5586,-4.5586,-4.5586,-4.5566,-4.5547,-4.497,-4.4259,-4.422,-4.3725,-4.3144,-4.3271,0.0,0.0,0.0,0.0,0.0,-4.0887,-4.1176,-4.1434,-4.0596,-4.0362,-4.0298,-4.0301,-4.0301,-4.0205,-3.987,-3.9537,-3.9257,-3.9125,-3.8597,-3.8209,-3.8209,-3.8209,-3.8037,-3.7578,-3.7133,-3.6741,-3.6343,-3.5871,-3.56,-3.56,-3.56,-3.56,-3.56,-3.56,-3.56,-3.5577,-3.5068,-3.4769,-3.4745,-3.426,-3.426,-3.4785,-3.4793,-3.5068,-3.56,-3.56,-3.56,-3.56,-3.5751,-3.5795,-3.5817,-3.6079,-3.6204,-3.6225,-3.6259,-3.6301,-3.6301,-3.6301,-3.6301,-3.6301,0.0,-5.1911,-5.1904,-5.1703,-5.1706,-5.1658,-5.1426,-5.1406,-5.1406,0.0,0.0,0.0,-5.1402,-5.0835,-5.0464,-5.0464,-4.9938,-4.9509,-4.9276,-4.9257,-4.8867,-4.8008,-4.7969,-4.7558,-4.668,-4.666,-4.6543,-4.6308,-4.6308,-4.6307,-4.6307,-4.62,-4.6053,-4.5896,-4.5846,-4.5766,-4.5643,-4.5612,-4.5594,-4.5594,-4.5594,-4.5568,-4.5522,-4.5522,-4.5495,-4.5467,-4.5467,-4.5083,-4.4584,-4.4639,-4.4081,-4.3263,-4.2673,-4.1925,0.0,-4.1296,0.0,0.0,-4.0971,0.0,0.0,0.0,0.0,0.0,-4.0532,-4.0424,-4.0362,-4.0317,-4.0291,-4.0253,-4.0108,-3.9656,-3.9288,-3.9248,-3.8691,-3.8257,-3.8209,-3.8209,-3.8037,-3.7578,-3.7133,-3.6741,-3.6343,-3.5871,-3.56,-3.56,-3.56,-3.56,-3.56,-3.56,-3.5424,-3.5021,-3.488,-3.4415,-3.3649,-3.3869,-3.4086,-3.4235,-3.4601,-3.5068,-3.56,-3.56,-3.56,-3.5622,-3.5844,-3.5932,-3.5971,-3.6122,-3.6204,-3.6225,-3.6259,-3.6301,-3.6301,-3.6301,-3.6301,-3.6301,-5.1346,-5.1293,-5.1337,-5.1337,-5.1366,-5.1406,-5.1406,-5.1405,-5.1404,0.0,0.0,0.0,-5.0384,-4.9895,-4.9602,-4.9602,-4.9173,-4.8744,-4.8375,-4.8356,-4.7966,-4.7108,-4.705,-4.6816,-4.6307,-4.6308,-4.6308,-4.6307,-4.6306,-4.6305,-4.6302,-4.616,-4.6025,-4.5901,-4.5841,-4.5739,-4.5594,-4.5568,-4.5577,-4.5586,-4.5438,-4.5362,-4.5322,-4.5171,-4.4859,-4.4543,-4.4647,-4.4201,-4.3551,-4.3674,-4.3162,-4.2324,-4.1519,-4.0912,-4.0496,-4.0496,-4.0564,0.0,0.0,0.0,0.0,-4.0519,0.0,0.0,-4.0466,-4.0432,-4.0389,-4.0308,-4.031,-4.0225,-3.9965,-3.9628,-3.9281,-3.9008,-3.8649,-3.8354,-3.8257,-3.8225,-3.8106,-3.7827,-3.7395,-3.6997,-3.6577,-3.6156,-3.5805,-3.5622,-3.56,-3.56,-3.56,-3.56,-3.5339,-3.4833,-3.4577,-3.407,-3.3224,-3.3293,-3.3433,-3.3665,-3.3978,-3.4536,-3.527,-3.527,-3.5424,-3.5689,-3.591,-3.6019,-3.6101,-3.6208,-3.6233,-3.6251,-3.628,-3.6301,-3.6301,-3.6301,-3.6301,-3.6301,0.0,-5.1362,-5.1406,-5.1406,-5.1405,-5.1404,-5.1404,-5.1323,-5.1262,0.0,-5.0497,-4.9673,-4.8949,-4.8772,-4.8714,-4.8714,-4.8616,-4.8248,-4.7489,-4.743,-4.7099,-4.6321,-4.6305,-4.6247,-4.6165,-4.6168,-4.611,-4.6009,-4.6009,-4.6005,-4.5996,-4.585,-4.5729,-4.5606,-4.5538,-4.5492,-4.5451,-4.5291,-4.5302,-4.5387,-4.5173,-4.5028,-4.4919,-4.4575,-4.39,-4.3202,-4.3437,-4.3036,-4.2417,-4.2537,-4.2111,-4.1432,-4.0723,-4.0508,-4.0508,-4.0496,-4.0496,0.0,0.0,0.0,0.0,-4.0496,-4.0489,0.0,-4.0413,-4.0407,-4.0381,-4.031,-4.031,-4.0157,-3.9682,-3.9556,-3.9357,-3.8763,-3.8582,-3.8494,-3.8322,-3.8241,-3.8209,-3.8209,-3.7792,-3.7377,-3.6997,-3.6557,-3.6131,-3.5717,-3.5644,-3.5622,-3.56,-3.56,-3.5333,-3.4721,-3.426,-3.3716,-3.3119,-3.2641,-3.2668,-3.3182,-3.3182,-3.3751,-3.4793,-3.4793,-3.5178,-3.5795,-3.5932,-3.6079,-3.6225,-3.6259,-3.6301,-3.6301,-3.6301,-3.6301,-3.6301,-3.6301,-3.6301,-3.6301,-5.1386,-5.1387,-5.1405,-5.1405,-5.1403,-5.14,-5.14,-5.0794,-5.0342,-5.0356,-4.9543,-4.8863,-4.8606,-4.7951,-4.7538,-4.7538,-4.6896,-4.6466,-4.6398,-4.6382,-4.6366,-4.6301,-4.6302,-4.597,-4.5266,-4.5248,-4.4916,-4.4213,-4.4209,-4.4175,-4.4122,-4.3993,-4.3859,-4.3718,-4.3662,-4.3965,-4.4509,-4.3793,-4.378,-4.4276,-4.4808,-4.4608,-4.3935,-4.3649,-4.3,-4.2246,-4.2297,-4.1795,-4.1014,-4.0623,-4.0568,-4.0643,-4.054,-4.0499,-4.0507,-4.0508,-4.0496,-4.0496,-4.0496,-4.0496,-4.0496,-4.0496,-4.0503,0.0,-4.0474,-4.0396,-4.0316,-4.0298,-4.03,-4.0263,-4.0166,-3.9975,-3.9785,-3.9651,-3.9171,-3.873,-3.8415,-3.8322,-3.8274,-3.8274,-3.7827,-3.7469,-3.7395,-3.6739,-3.6284,-3.6245,-3.5937,-3.5711,-3.56,-3.56,-3.5155,-3.4185,-3.4061,-3.3553,-3.2574,-3.2437,-3.2668,-3.3182,-3.3182,-3.3751,-3.4793,-3.4793,-3.5178,-3.5795,-3.5932,-3.6079,-3.6225,-3.6259,-3.6301,-3.6301,-3.6301,-3.6301,-3.6301,-3.6301,-3.6301,-3.6301,-5.0838,-5.0759,-5.0621,-5.0211,-5.0148,-5.0144,-5.0144,-4.9751,-4.9448,-4.9404,-4.8557,-4.7757,-4.7256,-4.6818,-4.6546,-4.6546,-4.6157,-4.593,-4.5994,-4.5998,-4.6056,-4.6184,-4.5783,-4.5381,-4.5003,-4.4578,-4.4148,-4.3697,-4.3677,-4.3631,-4.3601,-4.3379,-4.3252,-4.3188,-4.3138,-4.3291,-4.3574,-4.3134,-4.3044,-4.3221,-4.3414,-4.3164,-4.2623,-4.2328,-4.1686,-4.0965,-4.1101,-4.0694,-4.0089,-3.997,-4.0052,-4.0233,-4.0388,-4.0466,-4.051,-4.0495,-4.0503,-4.0503,-4.0503,-4.0503,-4.0495,-4.0471,-4.0447,0.0,0.0,-4.0342,-4.0298,-4.029,-4.0301,-4.0253,-4.0137,-3.9996,-3.987,-3.9728,-3.93,-3.8994,-3.8947,-3.86,-3.8354,-3.8354,-3.8101,-3.7861,-3.7667,-3.7284,-3.6902,-3.6519,-3.6131,-3.5822,-3.5706,-3.5756,-3.5253,-3.4036,-3.407,-3.3547,-3.241,-3.2398,-3.2547,-3.2788,-3.2788,-3.3319,-3.4267,-3.4415,-3.4934,-3.5728,-3.5975,-3.6165,-3.6255,-3.628,-3.6301,-3.6301,-3.6301,-3.6301,-3.6301,-3.6301,-3.6301,-3.6301,-4.9991,-4.9874,-4.9658,-4.8995,-4.8873,-4.8885,-4.8859,-4.8675,-4.8432,-4.8175,-4.7427,-4.6657,-4.5916,-4.5826,-4.5826,-4.5826,-4.582,-4.5826,-4.5856,-4.5861,-4.5915,-4.6053,-4.5386,-4.4985,-4.4926,-4.4079,-4.3554,-4.3387,-4.3166,-4.3054,-4.3035,-4.2815,-4.2705,-4.2676,-4.2614,-4.2631,-4.2657,-4.2486,-4.2297,-4.2143,-4.17,-4.1445,-4.1305,-4.0996,-4.0377,-3.9709,-3.9912,-3.9751,-3.9471,-3.9802,-3.9941,-4.0031,-4.0298,-4.0424,-4.0458,-4.0485,-4.0485,-4.0485,-4.0485,-4.0485,-4.0477,-4.0415,-4.0379,-4.037,0.0,0.0,0.0,-4.0291,-4.0301,-4.0234,-4.0017,-3.9986,-3.9903,-3.9682,-3.9439,-3.9337,-3.9551,-3.9017,-3.8585,-3.8507,-3.8446,-3.8267,-3.7947,-3.7861,-3.7487,-3.6661,-3.6308,-3.6045,-3.5861,-3.5932,-3.5413,-3.4161,-3.4227,-3.3726,-3.259,-3.2563,-3.2563,-3.2563,-3.2563,-3.2996,-3.3771,-3.4061,-3.4704,-3.5622,-3.5949,-3.6187,-3.6301,-3.6301,-3.6301,-3.6301,-3.6301,-3.6301,-3.6301,-3.6301,-3.6301,-3.6301,-4.9034,-4.9031,-4.8988,-4.8832,-4.8805,-4.8788,-4.8721,-4.8064,-4.7209,-4.6242,-4.6035,-4.5875,-4.5651,-4.5582,-4.5556,-4.5556,-4.5493,-4.5524,-4.5713,-4.572,-4.5783,-4.5915,-4.5828,-4.542,-4.4662,-4.3855,-4.3058,-4.2276,-4.1494,-4.1092,-4.1033,-4.1002,-4.0919,-4.0808,-4.0803,-4.1182,-4.178,-4.0945,-4.0746,-4.0921,-4.0108,-4.0055,-4.042,-4.0133,-3.9533,-3.8836,-3.8882,-3.8999,-3.9178,-3.9458,-3.9709,-3.9948,-4.0224,-4.0316,-4.0334,-4.0388,-4.0415,-4.0415,-4.0415,-4.0415,-4.0415,-4.0407,-4.0362,-4.0316,-4.0307,0.0,-4.0291,-4.0301,0.0,-4.0301,-4.0253,0.0,0.0,-4.0206,-3.9986,-3.9818,-3.984,-3.9568,-3.9248,-3.89,-3.8582,-3.8382,-3.8334,-3.8119,-3.7578,-3.6661,-3.6603,-3.6437,-3.5997,-3.5997,-3.5543,-3.4553,-3.4553,-3.4127,-3.3214,-3.3187,-3.3187,-3.3187,-3.3187,-3.3487,-3.405,-3.4084,-3.4658,-3.56,-3.5644,-3.591,-3.6301,-3.6301,-3.6301,-3.6301,-3.6301,-3.6301,-3.6301,-3.6301,-3.6301,-3.6301,-4.8047,-4.8143,-4.7984,-4.7437,-4.7299,-4.7226,-4.7196,-4.6775,-4.6304,-4.5859,-4.5727,-4.566,-4.5603,-4.5577,-4.5531,-4.5504,-4.5466,-4.5494,-4.5571,-4.558,-4.5658,-4.5828,-4.5363,-4.4928,-4.4602,-4.3811,-4.2976,-4.2102,-4.1657,-4.1174,-4.0694,-4.0615,-4.0534,-4.0436,-4.0482,-4.0553,-4.0644,-4.0405,-4.0119,-3.9805,-3.9577,-3.945,-3.9346,-3.9265,-3.9001,-3.8707,-3.8707,-3.8765,-3.8925,-3.9183,-3.9458,-3.969,-3.9791,-4.006,-4.027,-4.0148,-4.0224,-4.0334,-4.0334,-4.0233,-4.0139,-4.0309,-4.0196,-4.0099,-4.0253,-4.0301,-4.0301,-4.0301,0.0,0.0,0.0,0.0,0.0,0.0,-4.0058,-3.9946,-4.0108,-3.9781,-3.9433,-3.9274,-3.8994,-3.874,-3.8593,-3.8252,-3.7791,-3.7171,-3.6921,-3.66,-3.6144,-3.6148,-3.581,-3.4965,-3.4657,-3.4194,-3.3585,-3.324,-3.315,-3.3309,-3.3309,-3.3503,-3.3873,-3.4101,-3.465,-3.5379,-3.5605,-3.5937,-3.6301,-3.6301,-3.6301,-3.6301,-3.6301,-3.6301,-3.6301,-3.6301,-3.6301,-3.6301,-4.7003,-4.715,-4.6979,-4.6304,-4.6105,-4.6041,-4.6016,-4.5866,-4.5742,-4.5742,-4.5651,-4.5594,-4.5594,-4.5568,-4.5541,-4.5485,-4.5457,-4.5448,-4.5477,-4.5476,-4.5538,-4.5685,-4.5121,-4.4824,-4.4841,-4.4053,-4.3342,-4.2709,-4.2151,-4.1563,-4.0983,-4.065,-4.0479,-4.0432,-4.0441,-4.0252,-3.9916,-4.0119,-3.9777,-3.9129,-3.9311,-3.9115,-3.8707,-3.8707,-3.8707,-3.8707,-3.8707,-3.8707,-3.8735,-3.9021,-3.924,-3.9408,-3.9483,-3.9777,-4.0031,-3.9857,-3.992,-4.01,-4.0177,-4.006,-3.996,-4.0225,-4.0157,-4.0067,-4.0253,-4.0301,-4.0301,-4.0301,-4.0301,0.0,0.0,0.0,-4.0301,-4.0301,0.0,-4.0077,-4.0263,-3.9965,-3.9693,-3.9623,-3.9311,-3.9017,-3.8822,-3.8481,-3.8101,-3.7685,-3.7284,-3.6878,-3.6423,-3.6322,-3.6028,-3.5374,-3.4807,-3.4325,-3.3951,-3.3303,-3.315,-3.3398,-3.3398,-3.3555,-3.3822,-3.4126,-3.4586,-3.5224,-3.5498,-3.5876,-3.6301,-3.6301,-3.6301,-3.6301,-3.6301,-3.6301,-3.6301,-3.6301,-3.6301,-3.6301,-4.5954,-4.6067,-4.6099,-4.593,-4.591,-4.5892,-4.5822,-4.568,-4.5603,-4.5603,-4.5594,-4.5594,-4.5594,-4.5485,-4.541,-4.541,-4.533,-4.5338,-4.5408,-4.54,-4.541,-4.5419,-4.5512,-4.5547,-4.5464,-4.4682,-4.4256,-4.4237,-4.2593,-4.1777,-4.1739,-4.0891,-4.0502,-4.0493,-4.0351,-4.0158,-3.9891,-3.9916,-3.9611,-3.9101,-3.9115,-3.895,-3.8707,-3.8707,-3.8707,-3.8707,-3.8707,-3.8707,-3.8735,-3.9021,-3.9115,-3.917,-3.9427,-3.9508,-3.952,-3.9526,-3.9508,-3.9568,-3.984,-3.9914,-3.9956,-4.0234,-4.0301,-4.0291,-4.0301,-4.0301,-4.0301,-4.0301,-4.0301,-4.0301,-4.0301,-4.0301,-4.0301,0.0,-4.0301,0.0,0.0,-4.0291,-4.0176,-3.9914,-3.9427,-3.9101,-3.9087,-3.8837,-3.8515,-3.8101,-3.7703,-3.7303,-3.69,-3.6512,-3.6152,-3.5788,-3.5128,-3.4625,-3.43,-3.3633,-3.3424,-3.3684,-3.3684,-3.3822,-3.4101,-3.4101,-3.4505,-3.5201,-3.5224,-3.5633,-3.6301,-3.6301,-3.6301,-3.6301,-3.6301,-3.6301,-3.6301,-3.6301,-3.6301,-3.6301,-4.5724,-4.5751,-4.5808,-4.5889,-4.5858,-4.5782,-4.5632,-4.5566,-4.5513,-4.5457,-4.5476,-4.5476,-4.5476,-4.5429,-4.539,-4.54,-4.5379,-4.5388,-4.5408,-4.5399,-4.5409,-4.54,-4.5495,-4.5522,-4.5504,-4.528,-4.4885,-4.4292,-4.3139,-4.2296,0.0,0.0,-4.0415,-4.037,-4.0325,-4.0041,-3.9663,-3.9829,-3.9502,-3.8855,-3.8855,-3.878,-3.8707,-3.8707,-3.8707,-3.8707,-3.8707,-3.8707,-3.8704,-3.8792,-3.895,-3.9087,-3.9007,-3.9205,-3.9477,-3.9285,-3.9363,-3.9526,-3.9623,-3.9514,-3.9489,-3.9914,-3.9892,-3.9859,-4.0225,-4.0301,-4.0301,-4.0301,-4.0301,-4.0301,-4.0301,-4.0301,0.0,0.0,0.0,-4.0301,0.0,-4.0301,-4.0263,-4.0176,-3.9848,-3.9502,-3.9124,-3.9021,-3.8707,-3.8135,-3.7739,-3.7322,-3.6919,-3.6533,-3.6259,-3.6131,-3.5532,-3.5098,-3.4897,-3.4284,-3.3949,-3.3975,-3.3975,-3.4,-3.4101,-3.4101,-3.4382,-3.4866,-3.5108,-3.5498,-3.6002,-3.6216,-3.6301,-3.6301,-3.6301,-3.6301,-3.6301,-3.6301,-3.6301,-3.6301,-4.5558,-4.5533,-4.5571,-4.5703,-4.5691,-4.5613,-4.5475,-4.5457,-4.5438,-4.541,-4.54,-4.5362,-4.5282,-4.5232,-4.5231,-4.5227,-4.5205,-4.5227,-4.5348,-4.5398,-4.5389,-4.537,-4.5438,-4.5467,-4.5467,-4.5514,-4.5254,-4.468,-4.3537,-4.2675,0.0,0.0,0.0,0.0,-4.0196,-3.9908,-3.9514,-3.9568,-3.9259,-3.8707,-3.8707,-3.8673,-3.8624,-3.8624,-3.8658,-3.8707,-3.8707,-3.8707,-3.8707,-3.8707,-3.8807,-3.8921,-3.875,-3.8935,-3.9165,-3.8942,-3.9008,-3.9154,-3.9234,-3.9132,-3.9105,-3.9549,-3.9537,-3.9537,-3.9988,-4.0048,-4.0046,-4.0147,-4.0166,-4.0137,-4.0017,-4.0166,-4.0263,0.0,0.0,-4.0301,0.0,-4.0301,-4.0301,-4.0301,-4.0048,-3.9728,-3.9285,-3.917,-3.8869,-3.835,-3.793,-3.7542,-3.7114,-3.6721,-3.6451,-3.6301,-3.5727,-3.5283,-3.5052,-3.4423,-3.4059,-3.3949,-3.3949,-3.4,-3.4101,-3.4101,-3.4325,-3.4715,-3.5038,-3.543,-3.5827,-3.6174,-3.6301,-3.6301,-3.6301,-3.6301,-3.6301,-3.6301,-3.6301,-3.6301,-4.54,-4.54,-4.54,-4.54,-4.54,-4.54,-4.54,-4.54,-4.54,-4.5362,-4.5362,-4.5263,-4.5007,-4.4908,-4.4891,-4.4891,-4.4825,-4.4934,-4.5256,-4.5348,-4.5378,-4.5307,-4.537,-4.54,-4.5408,-4.54,-4.54,-4.54,-4.3713,-4.2889,0.0,0.0,0.0,0.0,-4.0029,-3.9751,-3.9471,-3.9205,-3.8935,-3.8692,-3.8692,-3.8609,-3.851,-3.851,-3.8575,-3.8692,-3.8692,-3.8692,-3.8692,-3.8692,-3.8692,-3.8692,-3.8692,-3.8692,-3.8658,-3.8525,-3.851,-3.8538,-3.873,-3.8789,-3.8843,-3.9112,-3.9218,-3.9352,-3.9599,-3.9585,-3.9556,-3.9807,-3.9881,-3.9796,-3.9544,-3.9933,-4.0186,0.0,0.0,0.0,-4.0301,-4.0301,-4.0301,-4.0301,-4.0048,-3.9785,-3.9539,-3.9272,-3.8989,-3.8723,-3.8336,-3.7913,-3.7523,-3.7132,-3.6719,-3.6322,-3.5749,-3.5243,-3.4854,-3.4194,-3.3825,-3.3761,-3.3736,-3.3848,-3.4101,-3.4101,-3.43,-3.4691,-3.5038,-3.5407,-3.5805,-3.6135,-3.6301,-3.6301,-3.6301,-3.6301,-3.6301,-3.6301,-3.6301,-3.6301,-4.5329,-4.5329,-4.5329,-4.5329,-4.537,-4.539,-4.539,-4.5409,-4.529,-4.4996,-4.4943,-4.4849,-4.4585,-4.4533,-4.4533,-4.4533,-4.4688,-4.4843,-4.4934,-4.5184,-4.5317,-4.5307,-4.5369,-4.5399,-4.5408,-4.54,-4.541,-4.5409,-4.3656,-4.2833,-4.2795,0.0,0.0,0.0,-4.0027,-3.9751,-3.9471,-3.9205,-3.8888,-3.8559,-3.8559,-3.8494,-3.843,-3.843,-3.8465,-3.8481,-3.8481,-3.8481,-3.8481,-3.8481,-3.8481,-3.8481,-3.8481,-3.8481,-3.8465,-3.843,-3.843,-3.843,-3.8491,-3.8507,-3.8566,-3.8828,-3.8915,-3.8994,-3.9269,-3.9295,-3.9301,-3.9364,-3.9377,-3.9439,-3.9625,-3.975,-3.9918,-4.0166,-4.0253,-4.0301,-4.0301,-4.0301,-4.0301,-4.0301,-4.0048,-3.9785,-3.9539,-3.9439,-3.9192,-3.8753,-3.8336,-3.7913,-3.7523,-3.7132,-3.6719,-3.6322,-3.6156,-3.5902,-3.5549,-3.5091,-3.4706,-3.4448,-3.4151,-3.4025,-3.4101,-3.4101,-3.4151,-3.43,-3.492,-3.527,-3.5407,-3.6028,-3.6301,-3.6301,-3.6301,-3.6301,-3.6301,-3.6301,-3.6301,-3.6301,-4.5307,-4.5184,-4.5087,-4.5087,-4.5026,-4.5007,-4.5132,-4.5143,-4.5004,-4.4663,-4.4624,-4.4519,-4.4265,-4.4221,-4.4221,-4.4221,-4.436,-4.4565,-4.4776,-4.4969,-4.5151,-4.5297,-4.5338,-4.5367,-4.5367,-4.536,-4.536,-4.5367,-4.3646,-4.2804,-4.2756,0.0,0.0,0.0,0.0,-3.9587,-3.9311,-3.8984,-3.8707,-3.851,-3.8478,-3.8433,0.0,-3.8352,-3.8354,-3.8322,-3.8322,-3.8352,-3.8399,-3.8399,-3.8399,-3.8399,-3.8399,-3.8399,-3.8382,-3.8368,-3.8352,-3.8336,-3.8322,-3.8322,-3.8336,-3.851,-3.8554,-3.8658,-3.891,-3.891,-3.8882,-3.9008,-3.9036,-3.9049,-3.9112,-3.9445,-3.9835,-4.0225,-4.0301,-4.0301,-4.0301,-4.0301,-4.0301,-4.0301,-4.0048,-3.9785,-3.9539,-3.9383,-3.9137,-3.8719,-3.8499,-3.8101,-3.7542,-3.7228,-3.6841,-3.6322,-3.6276,-3.6127,-3.5788,-3.5407,-3.5015,-3.4707,-3.43,-3.4101,-3.4101,-3.4101,-3.4101,-3.4151,-3.4873,-3.5201,-3.527,-3.5985,-3.6301,-3.6301,-3.6301,-3.6301,-3.6301,-3.6301,-3.6301,-3.6301,-4.5246,-4.4957,-4.4739,-4.4739,-4.4546,-4.4465,-4.465,-4.4714,-4.465,-4.4388,-4.4346,-4.4231,-4.3955,-4.3942,-4.3942,-4.3942,-4.3974,-4.421,-4.4663,-4.4751,-4.4934,-4.5224,-4.5286,-4.5307,-4.5307,-4.5307,-4.5307,-4.5307,-4.373,-4.2966,0.0,0.0,0.0,0.0,0.0,-3.9391,-3.9003,-3.8646,-3.8494,-3.8462,-3.8399,-3.8354,-3.829,-3.829,-3.8241,-3.8209,-3.8209,-3.8272,-3.8366,-3.8366,-3.8366,-3.8366,-3.8366,-3.8366,-3.8368,-3.8289,-3.829,-3.8274,-3.8225,-3.8209,-3.8209,-3.8209,-3.8241,-3.8354,-3.8582,-3.8507,-3.8446,-3.8673,-3.8715,-3.8673,-3.846,-3.9085,-3.975,-4.0108,-4.0196,-4.0206,-4.0147,-4.0196,-4.0206,-4.0176,-3.9935,0.0,-3.9477,-3.9232,-3.8993,-3.8723,-3.8707,-3.8352,-3.7542,-3.7378,-3.6981,-3.6301,-3.6212,-3.6062,-3.5849,-3.5407,-3.5055,-3.4763,-3.4325,-3.4101,-3.4101,-3.4101,-3.4101,-3.4151,-3.4873,-3.5201,-3.527,-3.5985,-3.6301,-3.6301,-3.6301,-3.6301,-3.6301,-3.6301,-3.6301,-3.6301,-4.4946,-4.465,-4.4465,-4.4465,-4.4425,-4.4299,-4.402,-4.4256,-4.4374,-4.4124,-4.4079,-4.3955,-4.3615,-4.3582,-4.3582,-4.3582,-4.3846,-4.4033,-4.4136,-4.4546,-4.4831,-4.4898,-4.5143,-4.5307,-4.5307,-4.5307,-4.5307,-4.5307,-4.4284,-4.3796,0.0,0.0,0.0,0.0,0.0,-3.9585,-3.86,-3.8541,-3.8449,-3.8322,-3.8322,-3.8274,-3.8225,-3.8225,-3.8209,-3.8209,-3.8209,-3.8225,-3.8241,-3.8241,-3.8241,-3.8241,-3.8241,-3.8241,-3.8224,-3.8207,-3.8225,-3.8225,-3.8209,-3.8209,-3.8209,-3.8209,-3.8209,-3.8224,-3.829,-3.8274,-3.8257,-3.8289,-3.8305,-3.8368,-3.8612,-3.9008,-3.9308,-3.9389,-3.9618,-3.9717,-3.9439,-3.9618,-3.9728,-3.95,-3.9236,-3.9095,-3.9165,-3.9129,-3.8993,-3.8723,-3.8707,-3.8352,-3.7542,-3.7378,-3.6962,-3.6251,-3.6101,-3.6079,-3.6122,-3.5464,-3.5118,-3.5108,-3.4431,-3.4101,-3.4101,-3.4101,-3.4101,-3.4151,-3.4873,-3.5201,-3.527,-3.5985,-3.6301,-3.6301,-3.6301,-3.6301,-3.6301,-3.6301,-3.6301,-3.6301,-4.4612,-4.4374,-4.4177,-4.4114,-4.3962,-4.3791,-4.3528,-4.3642,-4.3742,-4.3597,-4.3649,-4.36,-4.3375,-4.3339,-4.3339,-4.3339,-4.3496,-4.3664,-4.3825,-4.408,-4.4323,-4.4533,-4.4795,-4.4965,-4.5045,-4.5181,-4.5254,-4.5254,-4.426,-4.3797,-4.3767,-4.264,-4.1983,-4.1729,0.0,-3.9606,-3.9049,-3.8599,-3.837,-3.8307,-3.8257,-3.8242,-3.8209,-3.8209,-3.8209,-3.8209,-3.8209,-3.8209,-3.8209,-3.8209,-3.8209,-3.8209,-3.8209,-3.8209,-3.8209,-3.8209,-3.8209,-3.8209,-3.8209,-3.8209,-3.8209,-3.8209,-3.8209,-3.8209,-3.8209,-3.8209,-3.8209,-3.8209,-3.8209,-3.8305,-3.8643,-3.8843,-3.9008,-3.9165,-3.9333,-3.9383,-3.9231,-3.9346,-3.9396,-3.9257,-3.9008,-3.8886,-3.899,-3.8865,-3.874,-3.8624,-3.8658,-3.8302,-3.7396,-3.7285,-3.6884,-3.6122,-3.5971,-3.5971,-3.6101,-3.5247,-3.4849,-3.488,-3.4084,-3.3684,-3.3684,-3.3822,-3.3899,-3.3949,-3.4826,-3.5201,-3.527,-3.5985,-3.6301,-3.6301,-3.6301,-3.6301,-3.6301,-3.6301,-3.6301,-3.6301,-4.427,-4.406,-4.3828,-4.3712,-4.3496,-4.3323,-4.3196,-4.3196,-4.3214,-4.3214,-4.3305,-4.3323,-4.3214,-4.3214,-4.3214,-4.3214,-4.3214,-4.3303,-4.3595,-4.366,-4.3836,-4.4158,-4.4378,-4.4533,-4.4642,-4.4857,-4.4965,-4.4965,-4.4126,-4.3699,-4.3699,-4.2742,-4.1979,-4.1414,-4.052,-4.0007,-3.9771,-3.8922,-3.8545,-3.851,-3.828,-3.8209,-3.8209,-3.8209,-3.8209,-3.8209,-3.8209,-3.8209,-3.8209,-3.8209,-3.8209,-3.8209,-3.8209,-3.8209,-3.8209,-3.8209,-3.8209,-3.8209,-3.8209,-3.8209,-3.8209,-3.8209,-3.8209,-3.8209,-3.8209,-3.8209,-3.8209,-3.8209,-3.8209,-3.8272,-3.8554,-3.8597,-3.867,-3.8938,-3.9063,-3.9058,-3.9008,-3.9044,-3.9058,-3.9022,-3.8814,-3.8715,-3.8785,-3.8597,-3.8478,-3.8462,-3.8496,-3.8152,-3.7247,-3.7078,-3.6701,-3.5975,-3.5839,-3.5839,-3.5971,-3.5045,-3.4593,-3.4577,-3.3704,-3.3309,-3.3309,-3.3581,-3.3694,-3.3745,-3.4682,-3.5178,-3.5385,-3.6028,-3.6301,-3.6301,-3.6301,-3.6301,-3.6301,-3.6301,-3.6301,-3.6301,-4.3868,-4.3631,-4.3411,-4.3268,-4.3251,-4.3196,-4.3123,-4.316,-4.3214,-4.3214,-4.3214,-4.3196,-4.3214,-4.3214,-4.3214,-4.3214,-4.3214,-4.3196,-4.325,-4.3526,-4.3726,-4.374,-4.4016,-4.4142,-4.4161,-4.4204,-4.42,-4.42,-4.4096,-4.4044,-4.4063,-4.3711,-4.2951,-4.1935,-4.181,-4.1339,-4.0541,-3.9724,-3.9346,-3.9223,-3.8499,-3.8209,-3.8209,-3.8209,-3.8209,-3.8209,-3.8209,-3.8209,-3.8209,-3.8209,-3.8209,-3.8209,-3.8209,-3.8209,-3.8209,-3.8209,-3.8209,-3.8209,-3.8209,-3.8209,-3.8209,-3.8209,-3.8209,-3.8209,-3.8209,-3.8209,-3.8209,-3.8209,-3.8209,-3.8209,-3.8241,-3.8241,-3.8257,-3.8289,-3.8554,-3.8624,-3.8338,-3.8569,-3.8658,-3.8417,-3.837,-3.8368,-3.8446,-3.843,-3.8385,-3.8322,-3.8118,-3.7737,-3.7228,-3.6744,-3.6266,-3.5839,-3.5689,-3.5689,-3.5817,-3.4937,-3.4537,-3.4577,-3.3704,-3.3309,-3.3309,-3.3581,-3.3694,-3.3745,-3.4448,-3.5125,-3.5766,-3.6152,-3.6301,-3.6301,-3.6301,-3.6301,-3.6301,-3.6301,-3.6301,-3.6301,-4.3461,-4.3357,-4.3251,-4.316,-4.3142,-4.3105,-4.2994,-4.2994,-4.3031,-4.3031,-4.3087,-4.3123,-4.3031,-4.3031,-4.3031,-4.3031,-4.3031,-4.3031,-4.3031,-4.3142,-4.3249,-4.3339,-4.3559,-4.3719,-4.3804,-4.3955,-4.4043,-4.4043,-4.3924,-4.3865,-4.3846,-4.3543,-4.3139,-4.265,-4.2069,-4.1615,-4.1252,-4.0454,-3.9839,-3.9369,-3.906,-3.8644,-3.8209,-3.8209,-3.8209,-3.8209,-3.8209,-3.8209,-3.8209,-3.8209,-3.8209,-3.8209,-3.8209,-3.8209,-3.8209,-3.8209,-3.8209,-3.8209,-3.8209,-3.8209,-3.8209,-3.8209,-3.8209,-3.8209,-3.8209,-3.8209,-3.8209,-3.8209,-3.8209,-3.8209,-3.8209,-3.8209,-3.8209,-3.8209,-3.8305,-3.8352,-3.8225,-3.8322,-3.8352,-3.8241,-3.8241,-3.8156,-3.8001,-3.8204,-3.8119,-3.756,-3.772,-3.7614,-3.7038,-3.6641,-3.6182,-3.5689,-3.5622,-3.5622,-3.5667,-3.4706,-3.4226,-3.4235,-3.323,-3.2769,-3.2769,-3.3081,-3.3626,-3.4382,-3.4809,-3.5407,-3.611,-3.6237,-3.6301,-3.6301,-3.6301,-3.6301,-3.6301,-3.6301,-3.6301,-3.6301,-4.3178,-4.316,-4.3142,-4.3068,-4.303,-4.3012,-4.2901,-4.2901,-4.2901,-4.2901,-4.2975,-4.3012,-4.2901,-4.2901,-4.2901,-4.2901,-4.2901,-4.2901,-4.2901,-4.2901,-4.2938,-4.303,-4.3178,-4.3302,-4.339,-4.3574,-4.3687,-4.3687,-4.3523,-4.3475,-4.3458,-4.3232,-4.3087,-4.3012,-4.2339,-4.2049,-4.1994,-4.118,-4.0546,-4.0039,-3.9568,-3.9061,-3.8535,-3.8299,-3.8209,-3.8209,-3.8209,-3.8209,-3.8209,-3.8209,-3.8209,-3.8209,-3.8209,-3.8209,-3.8209,-3.8209,-3.8209,-3.8209,-3.8209,-3.8209,-3.8209,-3.8209,-3.8209,-3.8209,-3.8209,-3.8209,-3.8157,-3.802,-3.8106,-3.8123,-3.7863,-3.8038,-3.8123,-3.7863,-3.7915,-3.795,-3.7845,-3.7828,-3.7863,-3.7967,-3.7984,-3.7898,-3.7667,-3.7897,-3.7774,-3.7038,-3.7209,-3.7171,-3.6759,-3.6371,-3.6006,-3.5622,-3.56,-3.56,-3.56,-3.4529,-3.4011,-3.3986,-3.2895,-3.2398,-3.241,-3.2827,-3.3626,-3.4657,-3.5045,-3.5566,-3.6174,-3.6259,-3.6301,-3.6301,-3.6301,-3.6301,-3.6301,-3.6301,-3.6301,-3.6301,-4.3123,-4.3104,-4.3049,-4.2938,-4.2901,-4.2901,-4.2901,-4.2901,-4.2901,-4.2901,-4.2901,-4.2901,-4.2901,-4.2901,-4.2901,-4.2901,-4.2901,-4.2901,-4.2901,-4.2901,-4.2901,-4.2901,-4.2901,-4.2901,-4.2901,-4.2901,-4.2901,-4.2901,-4.2901,-4.2901,-4.2901,-4.2919,-4.2901,-4.2901,-4.2901,-4.2901,-4.2828,-4.2012,-4.1687,-4.1542,-4.0003,-3.9387,-3.9297,-3.8517,-3.8209,-3.8209,-3.8209,-3.8209,-3.8209,-3.8209,-3.8209,-3.8209,-3.8209,-3.8209,-3.8209,-3.8209,-3.8209,-3.8209,-3.8209,-3.8209,-3.8209,-3.8209,-3.8209,-3.8209,-3.8209,-3.8209,-3.8071,-3.7614,-3.788,-3.7951,-3.7075,-3.7613,-3.7915,-3.7073,-3.7246,-3.7377,-3.6978,-3.6919,-3.7075,-3.7469,-3.7505,-3.7505,-3.7505,-3.7505,-3.7339,-3.6939,-3.6536,-3.6322,-3.6322,-3.5849,-3.56,-3.56,-3.56,-3.56,-3.56,-3.4529,-3.4011,-3.3986,-3.2895,-3.2398,-3.2425,-3.3011,-3.3668,-3.4349,-3.4944,-3.543,-3.5832,-3.6174,-3.6301,-3.6301,-3.6301,-3.6301,-3.6301,-3.6301,-3.6301,-3.6301,-4.2975,-4.2957,-4.2938,-4.2919,-4.2901,-4.2901,-4.2901,-4.2901,-4.2901,-4.2901,-4.2901,-4.2901,-4.2901,-4.2901,-4.2901,-4.2901,-4.2901,-4.2901,-4.2901,-4.2901,-4.2901,-4.2901,-4.2901,-4.2901,-4.2901,-4.2901,-4.2901,-4.2901,-4.2901,-4.2901,-4.2901,-4.2901,-4.2901,-4.2901,-4.2901,-4.2901,-4.2883,-4.2629,-4.2212,-4.1614,-4.0564,-3.9858,-3.9297,-3.8517,-3.8209,-3.8209,-3.8209,-3.8209,-3.8209,-3.8209,-3.8209,-3.8209,-3.8209,-3.8209,-3.8209,-3.8209,-3.814,-3.8053,-3.8053,-3.802,-3.8003,-3.8054,-3.8053,-3.8002,-3.7774,-3.7505,-3.7282,-3.7132,-3.7226,-3.7226,-3.6939,-3.7131,-3.7226,-3.6939,-3.7017,-3.7055,-3.6919,-3.69,-3.6939,-3.7075,-3.7094,-3.6978,-3.6719,-3.6919,-3.6783,-3.6075,-3.6178,-3.6301,-3.6301,-3.5849,-3.56,-3.56,-3.56,-3.56,-3.56,-3.4529,-3.4011,-3.3986,-3.2895,-3.2398,-3.2425,-3.3011,-3.3704,-3.439,-3.4951,-3.5566,-3.6152,-3.6259,-3.6301,-3.6301,-3.6301,-3.6301,-3.6301,-3.6301,-3.6646,-3.7133,-4.2901,-4.2901,-4.2901,-4.2901,-4.2901,-4.2901,-4.2901,-4.2901,-4.2901,-4.2901,-4.2901,-4.2901,-4.2901,-4.2901,-4.2901,-4.2901,-4.2901,-4.2901,-4.2901,-4.2901,-4.2901,-4.2901,-4.2901,-4.2901,-4.2901,-4.2901,-4.2901,-4.2901,-4.2901,-4.2901,-4.2901,-4.2901,-4.2901,-4.2901,-4.2901,-4.2901,-4.2901,-4.2901,-4.2611,-4.2085,-4.127,-4.0474,-3.9731,-3.8952,-3.8462,-3.8209,-3.8209,-3.8209,-3.8209,-3.8209,-3.8157,-3.8122,-3.8122,-3.8106,-3.8089,-3.8123,-3.8053,-3.7984,-3.7967,-3.7933,-3.7916,-3.7933,-3.7845,-3.7596,-3.7284,-3.7018,-3.6801,-3.6698,-3.6781,-3.6801,-3.6457,-3.6681,-3.6801,-3.6457,-3.6577,-3.66,-3.6437,-3.6395,-3.6495,-3.6658,-3.6678,-3.6577,-3.6322,-3.6533,-3.6371,-3.565,-3.5871,-3.6045,-3.6045,-3.5761,-3.56,-3.56,-3.56,-3.56,-3.56,-3.4529,-3.4011,-3.3986,-3.2895,-3.2398,-3.2425,-3.3156,-3.3809,-3.4431,-3.5121,-3.5766,-3.6301,-3.6301,-3.6301,-3.6301,-3.6301,-3.6473,-3.6749,-3.6749,-3.7232,-3.7927,-4.2901,-4.2901,-4.2901,-4.2901,-4.2901,-4.2901,-4.2901,-4.2901,-4.2901,-4.2901,-4.2901,-4.2901,-4.2901,-4.2901,-4.2901,-4.2901,-4.2901,-4.2901,-4.2901,-4.2901,-4.2901,-4.2901,-4.2901,-4.2901,-4.2901,-4.2901,-4.2901,-4.2901,-4.2901,-4.2901,-4.2901,-4.2901,-4.2901,-4.2901,-4.2901,-4.2901,-4.2901,-4.2901,-4.2901,-4.2828,-4.2012,-4.1252,-4.0492,-3.9695,-3.8934,-3.8281,-3.8227,-3.8192,-3.8192,-3.8192,-3.8105,-3.7984,-3.7984,-3.7951,-3.7916,-3.7984,-3.7984,-3.7984,-3.7898,-3.7864,-3.7828,-3.7846,-3.7486,-3.702,-3.6726,-3.6626,-3.6542,-3.6284,-3.6536,-3.656,-3.5761,-3.6249,-3.6539,-3.5739,-3.5958,-3.611,-3.5667,-3.56,-3.5761,-3.6195,-3.6259,-3.6259,-3.6259,-3.6259,-3.6067,-3.5644,-3.56,-3.56,-3.56,-3.56,-3.56,-3.56,-3.56,-3.56,-3.56,-3.4529,-3.3944,-3.3885,-3.2884,-3.2398,-3.2425,-3.3319,-3.3995,-3.4455,-3.5351,-3.5941,-3.6301,-3.6301,-3.6335,-3.6387,-3.6387,-3.687,-3.7581,-3.7581,-3.8025,-3.8663,-4.2901,-4.2901,-4.2901,-4.2901,-4.2901,-4.2901,-4.2901,-4.2901,-4.2901,-4.2901,-4.2901,-4.2901,-4.2901,-4.2901,-4.2901,-4.2901,-4.2901,-4.2901,-4.2901,-4.2901,-4.2901,-4.2901,-4.2901,-4.2901,-4.2901,-4.2901,-4.2901,-4.2901,-4.2901,-4.2901,-4.2901,-4.2901,-4.2901,-4.2901,-4.2901,-4.2901,-4.2901,-4.2901,-4.2901,-4.2828,-4.2012,-4.1596,-4.127,-3.9912,-3.9278,-3.9025,-3.8426,-3.8122,-3.8053,-3.8053,-3.8003,-3.7916,-3.7916,-3.7916,-3.7899,-3.7934,-3.7845,-3.7774,-3.7739,-3.7449,-3.715,-3.7261,-3.6741,-3.619,-3.6105,-3.5924,-3.5773,-3.5701,-3.5822,-3.5832,-3.5644,-3.5783,-3.5832,-3.5627,-3.5689,-3.5734,-3.5622,-3.56,-3.5644,-3.5739,-3.5778,-3.5778,-3.5778,-3.5778,-3.5734,-3.5622,-3.56,-3.56,-3.56,-3.56,-3.56,-3.56,-3.56,-3.56,-3.56,-3.4529,-3.3604,-3.2776,-3.252,-3.2398,-3.2425,-3.2893,-3.3569,-3.4431,-3.4854,-3.5532,-3.6301,-3.6301,-3.6663,-3.7236,-3.7236,-3.7685,-3.8336,-3.8336,-3.8801,-3.9439,-4.2901,-4.2901,-4.2901,-4.2901,-4.2901,-4.2901,-4.2901,-4.2901,-4.2901,-4.2901,-4.2901,-4.2901,-4.2901,-4.2901,-4.2901,-4.2901,-4.2901,-4.2901,-4.2901,-4.2901,-4.2901,-4.2901,-4.2901,-4.2901,-4.2901,-4.2901,-4.2901,-4.2901,-4.2901,-4.2901,-4.2901,-4.2901,-4.2901,-4.2901,-4.2901,-4.2901,-4.2901,-4.2901,-4.2901,-4.2846,-4.2411,-4.2012,-4.1614,-4.0764,-4.0003,-3.9333,-3.8915,-3.8431,-3.8001,-3.8001,-3.7915,-3.781,-3.781,-3.7649,-3.7449,-3.7449,-3.7431,-3.7412,-3.7339,-3.6978,-3.6542,-3.6437,-3.6079,-3.571,-3.5588,-3.5418,-3.5314,-3.54,-3.5475,-3.5549,-3.5549,-3.5594,-3.56,-3.56,-3.56,-3.56,-3.56,-3.56,-3.56,-3.56,-3.56,-3.56,-3.56,-3.56,-3.56,-3.56,-3.56,-3.56,-3.56,-3.56,-3.56,-3.56,-3.56,-3.56,-3.56,-3.4529,-3.3459,-3.2398,-3.2398,-3.2398,-3.2425,-3.315,-3.3834,-3.4447,-3.5502,-3.6281,-3.687,-3.7198,-3.7594,-3.8013,-3.8013,-3.8439,-3.9094,-3.9094,-3.9577,-4.0256,-4.2901,-4.2901,-4.2901,-4.2901,-4.2901,-4.2901,-4.2901,-4.2901,-4.2901,-4.2901,-4.2901,-4.2901,-4.2901,-4.2901,-4.2901,-4.2901,-4.2901,-4.2901,-4.2901,-4.2901,-4.2901,-4.2901,-4.2901,-4.2901,-4.2901,-4.2901,-4.2901,-4.2901,-4.2901,-4.2901,-4.2901,-4.2901,-4.2901,-4.2901,-4.2901,-4.2901,-4.2901,-4.2901,-4.2901,-4.2901,-4.2901,-4.2484,-4.1868,-4.1741,-4.089,-3.9713,-3.9478,-3.8883,-3.8147,-3.8021,-3.7845,-3.7667,-3.7595,-3.7264,-3.688,-3.6821,-3.6821,-3.6858,-3.6801,-3.646,-3.5998,-3.5594,-3.5498,-3.5407,-3.5135,-3.5105,-3.5111,-3.5245,-3.54,-3.5492,-3.5492,-3.5549,-3.56,-3.56,-3.56,-3.56,-3.56,-3.56,-3.56,-3.56,-3.56,-3.56,-3.56,-3.56,-3.56,-3.56,-3.56,-3.56,-3.56,-3.56,-3.56,-3.56,-3.5515,-3.5402,-3.5247,-3.4342,-3.3381,-3.2398,-3.2398,-3.2444,-3.2592,-3.3706,-3.4389,-3.4792,-3.6546,-3.7453,-3.7676,-3.8336,-3.8663,-3.8767,-3.8767,-3.9215,-3.9871,-3.9871,-4.0302,-4.0912,-4.2901,-4.2901,-4.2901,-4.2901,-4.2901,-4.2901,-4.2901,-4.2901,-4.2901,-4.2901,-4.2901,-4.2901,-4.2901,-4.2901,-4.2901,-4.2901,-4.2901,-4.2901,-4.2901,-4.2901,-4.2901,-4.2901,-4.2901,-4.2901,-4.2901,-4.2901,-4.2901,-4.2901,-4.2901,-4.2901,-4.2901,-4.2901,-4.2901,-4.2901,-4.2901,-4.2901,-4.2901,-4.2901,-4.2901,-4.2901,-4.2901,-4.2828,-4.2629,-4.1958,-4.1542,-4.1162,-3.9858,-3.921,-3.8834,-3.8132,-3.7775,-3.7558,-3.715,-3.6958,-3.6821,-3.6422,-3.6084,-3.5907,-3.6232,-3.5998,-3.5571,-3.5125,-3.5001,-3.5018,-3.4947,-3.5018,-3.5105,-3.5128,-3.5331,-3.5492,-3.5492,-3.5549,-3.56,-3.56,-3.56,-3.56,-3.56,-3.56,-3.56,-3.56,-3.56,-3.56,-3.56,-3.56,-3.56,-3.56,-3.56,-3.56,-3.56,-3.56,-3.56,-3.56,-3.5155,-3.4488,-3.3598,-3.3417,-3.3013,-3.2398,-3.2398,-3.269,-3.3272,-3.3975,-3.492,-3.6062,-3.6986,-3.7712,-3.8282,-3.8498,-3.8957,-3.9526,-3.9526,-4.0008,-4.0722,-4.0722,-4.0791,-4.0912,-4.2901,-4.2901,-4.2901,-4.2901,-4.2901,-4.2901,-4.2901,-4.2901,-4.2901,-4.2901,-4.2901,-4.2901,-4.2901,-4.2901,-4.2901,-4.2901,-4.2901,-4.2901,-4.2901,-4.2901,-4.2901,-4.2901,-4.2901,-4.2901,-4.2901,-4.2901,-4.2901,-4.2901,-4.2901,-4.2901,-4.2901,-4.2901,-4.2901,-4.2901,-4.2901,-4.2901,-4.2901,-4.2901,-4.2901,-4.2901,-4.2901,-4.2901,-4.2846,-4.2484,-4.2067,-4.1614,-4.089,-3.9987,-3.9049,-3.8672,-3.7952,-3.7186,-3.6958,-3.658,-3.6165,-3.595,-3.5749,-3.5594,-3.5526,-3.5362,-3.5171,-3.4954,-3.4899,-3.4899,-3.4899,-3.4947,-3.4994,-3.4994,-3.5152,-3.5314,-3.5377,-3.5475,-3.5549,-3.56,-3.56,-3.56,-3.56,-3.56,-3.56,-3.56,-3.56,-3.56,-3.56,-3.56,-3.56,-3.56,-3.56,-3.56,-3.56,-3.5333,-3.5293,-3.56,-3.5068,-3.4415,-3.364,-3.3339,-3.2933,-3.2398,-3.3096,-3.3603,-3.3916,-3.5203,-3.6163,-3.6843,-3.791,-3.8598,-3.9026,-3.9548,-3.9979,-4.0359,-4.0359,-4.0584,-4.0912,-4.0912,-4.0912,-4.0912,-4.2901,-4.2901,-4.2901,-4.2901,-4.2901,-4.2901,-4.2901,-4.2901,-4.2901,-4.2901,-4.2901,-4.2901,-4.2901,-4.2901,-4.2901,-4.2901,-4.2901,-4.2901,-4.2901,-4.2901,-4.2901,-4.2901,-4.2901,-4.2901,-4.2901,-4.2901,-4.2901,-4.2901,-4.2901,-4.2901,-4.2901,-4.2901,-4.2901,-4.2901,-4.2901,-4.2901,-4.2901,-4.2901,-4.2901,-4.2901,-4.2901,-4.2901,-4.2901,-4.2901,-4.252,-4.194,-4.1759,-4.0799,-3.957,-3.9065,-3.8138,-3.7126,-3.6733,-3.6143,-3.5571,-3.5476,-3.543,-3.5362,-3.5001,-3.4899,-3.4899,-3.4899,-3.4899,-3.4899,-3.4899,-3.4899,-3.4899,-3.4899,-3.4994,-3.5111,-3.5222,-3.5377,-3.5475,-3.5571,-3.5594,-3.5577,-3.56,-3.56,-3.56,-3.56,-3.56,-3.56,-3.56,-3.56,-3.56,-3.56,-3.56,-3.56,-3.56,-3.5201,-3.5131,-3.5402,-3.5021,-3.448,-3.3818,-3.3407,-3.3,-3.2656,-3.376,-3.4469,-3.4845,-3.6584,-3.7469,-3.7744,-3.8922,-3.9559,-3.9791,-4.0391,-4.0769,-4.0912,-4.0864,-4.0871,-4.0912,-4.0912,-4.0912,-4.0912,-4.2901,-4.2901,-4.2901,-4.2901,-4.2901,-4.2901,-4.2901,-4.2901,-4.2901,-4.2901,-4.2901,-4.2901,-4.2901,-4.2901,-4.2901,-4.2901,-4.2901,-4.2901,-4.2901,-4.2901,-4.2901,-4.2901,-4.2901,-4.2901,-4.2901,-4.2901,-4.2901,-4.2901,-4.2901,-4.2901,-4.2901,-4.2901,-4.2901,-4.2901,-4.2901,-4.2901,-4.2901,-4.2901,-4.2901,-4.2901,-4.2901,-4.2901,-4.2901,-4.2901,-4.2846,-4.2719,-4.1902,-4.1446,-4.0933,-3.8951,-3.8146,-3.7746,-3.6195,-3.5661,-3.5504,-3.5095,-3.4954,-3.493,-3.4923,-3.4899,-3.4899,-3.4899,-3.4899,-3.4899,-3.4899,-3.4899,-3.4899,-3.4899,-3.4994,-3.5088,-3.5111,-3.5222,-3.5377,-3.5492,-3.5514,-3.552,-3.5577,-3.56,-3.56,-3.56,-3.56,-3.56,-3.56,-3.56,-3.56,-3.56,-3.56,-3.56,-3.56,-3.5577,-3.5316,-3.488,-3.4833,-3.4317,-3.3261,-3.3209,-3.3235,-3.3321,-3.3979,-3.4991,-3.6273,-3.755,-3.8463,-3.9093,-3.9893,-4.0294,-4.0424,-4.0476,-4.068,-4.0888,-4.0769,-4.0793,-4.0912,-4.0912,-4.0912,-4.0912,-4.2901,-4.2901,-4.2901,-4.2901,-4.2901,-4.2901,-4.2901,-4.2901,-4.2901,-4.2901,-4.2901,-4.2901,-4.2901,-4.2901,-4.2901,-4.2901,-4.2901,-4.2901,-4.2901,-4.2901,-4.2901,-4.2901,-4.2901,-4.2901,-4.2901,-4.2901,-4.2901,-4.2901,-4.2901,-4.2901,-4.2901,-4.2901,-4.2901,-4.2901,-4.2901,-4.2901,-4.2901,-4.2901,-4.2901,-4.2863,-4.2577,-4.2634,-4.2863,-4.2595,-4.2653,-4.2846,-4.2498,-4.195,-4.1218,-4.0023,-3.8748,-3.749,-3.6576,-3.5772,-3.5125,-3.4954,-3.4899,-3.4899,-3.4899,-3.4899,-3.4899,-3.4899,-3.4899,-3.4899,-3.4899,-3.4899,-3.4899,-3.4899,-3.4947,-3.5018,-3.5198,-3.5268,-3.536,-3.5526,-3.5571,-3.5571,-3.56,-3.56,-3.56,-3.56,-3.56,-3.56,-3.56,-3.56,-3.56,-3.56,-3.56,-3.56,-3.56,-3.56,-3.5201,-3.4333,-3.4625,-3.4439,-3.3691,-3.381,-3.4096,-3.4515,-3.6022,-3.7002,-3.7557,-3.8802,-3.9521,-3.9773,-4.0045,-4.0238,-4.0362,-4.0362,-4.0485,-4.0655,-4.0697,-4.0721,-4.0793,-4.0864,-4.0912,-4.0912,-4.2901,-4.2901,-4.2901,-4.2901,-4.2901,-4.2901,-4.2901,-4.2901,-4.2901,-4.2901,-4.2901,-4.2901,-4.2901,-4.2901,-4.2901,-4.2901,-4.2901,-4.2901,-4.2901,-4.2901,-4.2901,-4.2901,-4.2901,-4.2901,-4.2901,-4.2901,-4.2901,-4.2901,-4.2901,-4.2901,-4.2901,-4.2901,-4.2901,-4.2901,-4.2901,-4.2901,-4.2901,-4.2901,-4.2901,-4.2863,-4.234,-4.2438,-4.2787,-4.2118,-4.2259,-4.2749,-4.2356,-4.1897,-4.1355,-4.0342,-3.8901,-3.7415,-3.6702,-3.5749,-3.4899,-3.4899,-3.4899,-3.4899,-3.4899,-3.4899,-3.4899,-3.4899,-3.4899,-3.4899,-3.4899,-3.4899,-3.4899,-3.4899,-3.4923,-3.5018,-3.5198,-3.5268,-3.536,-3.5549,-3.5571,-3.5594,-3.56,-3.56,-3.56,-3.56,-3.56,-3.56,-3.56,-3.56,-3.56,-3.56,-3.56,-3.56,-3.56,-3.5447,-3.4927,-3.4036,-3.4194,-3.4217,-3.4063,-3.4404,-3.4894,-3.5605,-3.7347,-3.8323,-3.8555,-3.9631,-4.0096,-4.0096,-4.0096,-4.0188,-4.0305,-4.0238,-4.0337,-4.0493,-4.0534,-4.0624,-4.0697,-4.0817,-4.0847,-4.0912,-4.2901,-4.2901,-4.2901,-4.2901,-4.2901,-4.2901,-4.2901,-4.2901,-4.2901,-4.2901,-4.2901,-4.2901,-4.2901,-4.2901,-4.2901,-4.2901,-4.2901,-4.2901,-4.2901,-4.2901,-4.2901,-4.2882,-4.2901,-4.2901,-4.2901,-4.2901,-4.2901,-4.2901,-4.2901,-4.2901,-4.2901,-4.2901,-4.2901,-4.2882,-4.2882,-4.2882,-4.2882,-4.2882,-4.2882,-4.2844,-4.2223,-4.2318,-4.2668,-4.153,-4.1721,-4.2434,-4.1308,-4.1258,-4.1394,-3.9535,-3.8427,-3.7587,-3.6379,-3.5495,-3.4899,-3.4899,-3.4899,-3.4899,-3.4899,-3.4899,-3.4899,-3.4899,-3.4899,-3.4899,-3.4899,-3.4899,-3.4899,-3.4899,-3.4994,-3.5088,-3.5088,-3.5222,-3.5354,-3.5469,-3.5492,-3.552,-3.5577,-3.56,-3.56,-3.56,-3.56,-3.56,-3.56,-3.56,-3.56,-3.56,-3.56,-3.56,-3.56,-3.5108,-3.4553,-3.4036,-3.3511,-3.353,-3.4198,-3.4812,-3.5551,-3.6432,-3.7637,-3.8562,-3.9232,-3.9825,-4.0096,-4.0096,-4.0096,-4.0188,-4.0305,-4.0163,-4.0263,-4.0468,-4.0337,-4.0478,-4.0697,-4.0697,-4.0793,-4.0912,-4.2901,-4.2901,-4.2901,-4.2901,-4.2901,-4.2901,-4.2901,-4.2901,-4.2901,-4.2901,-4.2901,-4.2901,-4.2901,-4.2901,-4.2901,-4.2901,-4.2901,-4.2901,-4.2901,-4.2901,-4.275,-4.2418,-4.2711,-4.2901,-4.2901,-4.2901,-4.2901,-4.2901,-4.2901,-4.2901,-4.2901,-4.2901,-4.2711,-4.2418,-4.2418,-4.216,-4.1785,-4.1871,-4.1849,-4.1743,-4.1343,-4.1455,-4.1803,-4.103,-4.1145,-4.163,-4.1087,-4.0995,-4.0978,-3.9988,-3.9182,-3.828,-3.6529,-3.5495,-3.4899,-3.4899,-3.4899,-3.4899,-3.4899,-3.4899,-3.4899,-3.4899,-3.4899,-3.4923,-3.5018,-3.497,-3.4947,-3.5152,-3.5152,-3.5175,-3.5354,-3.5423,-3.5452,-3.5549,-3.5571,-3.5594,-3.56,-3.56,-3.56,-3.56,-3.56,-3.56,-3.56,-3.56,-3.56,-3.56,-3.56,-3.56,-3.56,-3.5447,-3.5131,-3.4577,-3.4947,-3.5317,-3.561,-3.5411,-3.6077,-3.7594,-3.8494,-3.9244,-3.9825,-4.002,-4.0096,-4.0096,-4.0096,-4.0138,-4.0163,-4.0113,-4.0163,-4.0221,-4.0263,-4.0429,-4.0558,-4.0673,-4.0793,-4.0981,-4.2901,-4.2901,-4.2901,-4.2901,-4.2901,-4.2901,-4.2901,-4.2901,-4.2901,-4.2901,-4.2901,-4.2901,-4.2901,-4.2901,-4.2901,-4.2901,-4.2901,-4.2825,-4.2634,-4.2634,-4.2595,-4.2478,-4.238,-4.242,-4.2614,-4.2806,-4.2901,-4.2901,-4.2901,-4.2901,-4.2901,-4.2901,-4.2653,-4.2198,-4.2198,-4.1867,-4.1303,-4.1437,-4.1415,-4.1258,-4.0879,-4.1019,-4.1383,-4.0546,-4.0625,-4.1116,-4.0552,-4.0439,-4.0446,-3.9919,-3.9244,-3.8313,-3.6538,-3.5694,-3.528,-3.4982,-3.4899,-3.4899,-3.4899,-3.4899,-3.4899,-3.4899,-3.4899,-3.4923,-3.4994,-3.4994,-3.5018,-3.5198,-3.5245,-3.5314,-3.5469,-3.552,-3.5549,-3.56,-3.56,-3.56,-3.56,-3.56,-3.56,-3.56,-3.56,-3.56,-3.56,-3.56,-3.56,-3.56,-3.56,-3.56,-3.56,-3.56,-3.5513,-3.5287,-3.5735,-3.6198,-3.6648,-3.6311,-3.695,-3.8543,-3.9228,-3.9747,-4.0096,-4.0096,-4.0096,-4.0096,-4.0096,-4.0096,-4.0096,-4.0096,-4.0096,-4.0113,-4.0188,-4.0313,-4.047,-4.0901,-4.115,-4.1374,-4.2901,-4.2901,-4.2901,-4.2901,-4.2901,-4.2901,-4.2901,-4.2901,-4.2901,-4.2901,-4.2901,-4.2901,-4.2901,-4.2901,-4.2882,-4.2844,-4.2844,-4.2673,-4.2297,-4.2218,-4.2378,-4.2768,-4.1973,-4.1678,-4.2074,-4.2595,-4.2863,-4.2901,-4.2863,-4.2844,-4.2844,-4.2788,-4.2518,-4.2074,-4.2074,-4.1739,-4.119,-4.1326,-4.1303,-4.1145,-4.072,-4.0849,-4.1169,-4.0104,-4.0187,-4.0754,-3.9816,-3.9687,-3.9868,-3.9425,-3.8808,-3.7963,-3.6555,-3.6059,-3.586,-3.5114,-3.4899,-3.4899,-3.4899,-3.4899,-3.4899,-3.4899,-3.4899,-3.4923,-3.4923,-3.5018,-3.5111,-3.5135,-3.5337,-3.5492,-3.5514,-3.5549,-3.56,-3.56,-3.56,-3.56,-3.56,-3.56,-3.56,-3.56,-3.56,-3.56,-3.56,-3.56,-3.56,-3.56,-3.56,-3.56,-3.56,-3.5667,-3.5822,-3.6065,-3.6214,-3.6645,-3.7427,-3.7508,-3.81,-3.9206,-3.9747,-4.0045,-4.0096,-4.0096,-4.0096,-4.0096,-4.0096,-4.0096,-4.0096,-4.0096,-4.0096,-4.0096,-4.0096,-4.0222,-4.05,-4.1289,-4.1705,-4.2026,-4.2901,-4.2901,-4.2901,-4.2901,-4.2901,-4.2901,-4.2901,-4.2901,-4.2901,-4.2901,-4.2901,-4.2901,-4.2901,-4.2901,-4.275,-4.2378,-4.2358,-4.2458,-4.2731,-4.2398,-4.2095,-4.1825,-4.1613,-4.1388,-4.1111,-4.1909,-4.2518,-4.2901,-4.2518,-4.2358,-4.2358,-4.1973,-4.1547,-4.1111,-4.1111,-4.0778,-4.0204,-4.0353,-4.0328,-4.0204,-4.0204,-4.0279,-4.0328,-3.9867,-3.9816,-3.9944,-3.9494,-3.9388,-3.9441,-3.9325,-3.8808,-3.802,-3.7152,-3.6473,-3.586,-3.5114,-3.4899,-3.4899,-3.4899,-3.4899,-3.4899,-3.4899,-3.497,-3.5088,-3.5198,-3.5152,-3.5158,-3.5441,-3.5498,-3.5514,-3.5571,-3.5577,-3.56,-3.56,-3.56,-3.56,-3.56,-3.56,-3.56,-3.56,-3.56,-3.56,-3.56,-3.56,-3.56,-3.56,-3.56,-3.56,-3.56,-3.6197,-3.658,-3.6616,-3.7745,-3.8453,-3.8631,-3.921,-3.9382,-3.9206,-3.9339,-3.9644,-4.0096,-4.0096,-4.0096,-4.0096,-4.0096,-4.0096,-4.0096,-4.0096,-4.0096,-4.0096,-4.0096,-4.0527,-4.1172,-4.1376,-4.1954,-4.2799,-4.2901,-4.2901,-4.2901,-4.2901,-4.2901,-4.2901,-4.2901,-4.2901,-4.2901,-4.2901,-4.2901,-4.2901,-4.2901,-4.2901,-4.2634,-4.1931,-4.2074,-4.2115,-4.1909,-4.1888,-4.1867,-4.1846,-4.1185,-4.1024,-4.1455,-4.1499,-4.176,-4.2221,-4.2218,-4.2095,-4.1867,-4.1613,-4.1253,-4.0802,-4.0802,-4.0458,-3.9901,-4.0037,-4.0037,-3.9901,-4.0062,-4.0096,-4.007,-3.9944,-3.9807,-3.9677,-3.9547,-3.9405,-3.9299,-3.9299,-3.905,-3.8593,-3.7864,-3.7119,-3.639,-3.5644,-3.5181,-3.4923,-3.497,-3.4994,-3.5018,-3.5065,-3.5135,-3.5198,-3.5198,-3.5245,-3.5337,-3.552,-3.5566,-3.5549,-3.56,-3.56,-3.56,-3.56,-3.56,-3.56,-3.56,-3.56,-3.56,-3.56,-3.56,-3.56,-3.56,-3.56,-3.56,-3.56,-3.596,-3.618,-3.618,-3.6907,-3.7483,-3.7845,-3.8582,-3.9157,-3.9537,-3.991,-3.9944,-3.9644,-3.9644,-3.9799,-4.0096,-4.0096,-4.0096,-4.0096,-4.0096,-4.0096,-4.0096,-4.0096,-4.0316,-4.0612,-4.0612,-4.112,-4.1893,-4.2319,-4.3124,-4.407,-4.2901,-4.2901,-4.2901,-4.2901,-4.2901,-4.2901,-4.2901,-4.2901,-4.2901,-4.2901,-4.2901,-4.2901,-4.2901,-4.2768,-4.24,-4.1785,-4.1867,-4.1696,-4.1088,-4.1253,-4.1591,-4.2074,-4.0808,-4.0683,-4.1931,-4.1202,-4.1042,-4.1503,-4.1803,-4.176,-4.137,-4.1281,-4.1047,-4.0683,-4.0683,-4.0385,-3.9952,-4.0062,-4.0037,-3.9935,-4.0062,-4.0096,-4.0113,-4.007,-3.9893,-3.9703,-3.9677,-3.9511,-3.9299,-3.9299,-3.9299,-3.9183,-3.8444,-3.7698,-3.6995,-3.6249,-3.5503,-3.497,-3.5088,-3.5128,-3.5111,-3.5268,-3.5314,-3.5314,-3.5198,-3.5337,-3.5492,-3.5514,-3.5549,-3.56,-3.56,-3.56,-3.56,-3.56,-3.56,-3.56,-3.56,-3.56,-3.56,-3.56,-3.56,-3.565,-3.5785,-3.5825,-3.5853,-3.5971,-3.6603,-3.6998,-3.6998,-3.7686,-3.8379,-3.8971,-3.9106,-3.9486,-4.0096,-4.0096,-4.0096,-4.0096,-4.0096,-4.0096,-4.0096,-4.0096,-4.0096,-4.0096,-4.0096,-4.0096,-4.0113,-4.0248,-4.0646,-4.1221,-4.1339,-4.1847,-4.2601,-4.3532,-4.4412,-4.514,-4.2901,-4.2901,-4.2901,-4.2901,-4.2901,-4.2901,-4.2901,-4.2901,-4.2901,-4.2901,-4.2901,-4.2901,-4.2901,-4.218,-4.1973,-4.2653,-4.1652,-4.1293,-4.1969,-4.1298,-4.1094,-4.1569,-4.0618,-4.0377,-4.0972,-4.0873,-4.1042,-4.1503,-4.1162,-4.0949,-4.0896,-4.0483,-4.0254,-4.0196,-4.0196,-4.0146,-4.007,-4.007,-4.007,-4.007,-4.0096,-4.0096,-4.0087,-3.9961,-3.9833,-3.9677,-3.9563,-3.9432,-3.9299,-3.9299,-3.9299,-3.9183,-3.8444,-3.775,-3.712,-3.6396,-3.5647,-3.5088,-3.5245,-3.5198,-3.5111,-3.5268,-3.54,-3.5469,-3.5446,-3.5469,-3.5514,-3.5571,-3.56,-3.56,-3.56,-3.56,-3.56,-3.56,-3.56,-3.56,-3.56,-3.56,-3.56,-3.56,-3.56,-3.5853,-3.6552,-3.6643,-3.6891,-3.755,-3.7702,-3.7753,-3.7753,-3.8447,-3.8886,-3.8988,-3.9622,-3.9994,-4.0096,-4.0096,-4.0096,-4.0096,-4.0096,-4.0096,-4.0096,-4.0096,-4.0096,-4.0096,-4.0096,-4.0096,-4.0146,-4.0781,-4.1119,-4.1271,-4.1897,-4.2608,-4.3352,-4.4296,-4.4746,-4.4886,-4.2901,-4.2901,-4.2901,-4.2901,-4.2901,-4.2901,-4.2901,-4.2901,-4.2901,-4.2901,-4.2901,-4.2901,-4.2901,-4.23,-4.1952,-4.2098,-4.1547,-4.1139,-4.1024,-4.0879,-4.0879,-4.1094,-4.0458,-4.0328,-4.0778,-4.0556,-4.0507,-4.0713,-4.0778,-4.0676,-4.0385,-4.0196,-4.0096,-4.0096,-4.0096,-4.0096,-4.0096,-4.0096,-4.0096,-4.0096,-4.0096,-4.0096,-4.0096,-4.0037,-3.9884,-3.9677,-3.9458,-3.9405,-3.9405,-3.9325,-3.9352,-3.9355,-3.9039,-3.845,-3.7794,-3.7118,-3.6408,-3.5787,-3.5478,-3.5377,-3.5337,-3.5435,-3.5503,-3.5549,-3.5549,-3.5549,-3.5571,-3.56,-3.56,-3.56,-3.56,-3.56,-3.56,-3.56,-3.56,-3.5752,-3.6214,-3.6265,-3.6417,-3.6857,-3.6867,-3.7026,-3.7381,-3.7398,-3.755,-3.7889,-3.8278,-3.8514,-3.8514,-3.9208,-3.9622,-3.9622,-3.9943,-4.0096,-4.0096,-4.0096,-4.0096,-4.0096,-4.0096,-4.0096,-4.0096,-4.0096,-4.0096,-4.013,-4.0527,-4.0696,-4.0764,-4.1508,-4.2066,-4.2472,-4.2794,-4.3386,-4.4141,-4.4535,-4.4737,-4.4803]},{"header":{"parameterUnit":"m.s-1","parameterCategory":1,"la1":30.6,"la2":28.766,"lo1":-90.7593,"lo2":-88.6598,"dy":0.0162,"dx":0.0183,"nx":116,"ny":114,"refTime":"2024-03-26T06:00:00:Z","depth":0,"parameterNumber":3,"parameterNumberName":"V-component_of_WINDS"},"data":[0.0,0.0,0.0,0.0,0.0,0.0,0.0,0.0,0.0,0.0,0.0,0.0,0.0,0.0,0.0,0.0,0.0,0.0,0.0,0.0,0.0,0.0,0.0,0.0,0.0,0.0,0.0,0.0,0.0,0.0,0.0,0.0,0.0,0.0,0.0,0.0,0.0,0.0,0.0,0.0,0.0,0.0,0.0,0.0,0.0,0.0,0.0,0.0,0.0,0.0,0.0,0.0,0.0,0.0,0.0,0.0,0.0,0.0,0.0,0.0,0.0,0.0,0.0,0.0,0.0,0.0,0.0,0.0,0.0,0.0,0.0,0.0,0.0,0.0,0.0,0.0,0.0,0.0,0.0,0.0,0.0,0.0,0.0,0.0,0.0,0.0,0.0,0.0,0.0,0.0,0.0,0.0,0.0,0.0,0.0,0.0,0.0,0.0,0.0,0.0,0.0,0.0,0.0,0.0,0.0,0.0,0.0,0.0,0.0,0.0,0.0,0.0,0.0,0.0,0.0,0.0,0.0,0.0,0.0,0.0,0.0,0.0,0.0,0.0,0.0,0.0,0.0,0.0,0.0,0.0,0.0,0.0,0.0,0.0,0.0,0.0,0.0,0.0,0.0,0.0,0.0,0.0,0.0,0.0,0.0,0.0,0.0,0.0,0.0,0.0,0.0,0.0,0.0,0.0,0.0,0.0,0.0,0.0,0.0,0.0,0.0,0.0,0.0,0.0,0.0,0.0,0.0,0.0,0.0,0.0,0.0,0.0,0.0,0.0,0.0,0.0,0.0,0.0,0.0,0.0,0.0,0.0,0.0,0.0,0.0,0.0,0.0,0.0,0.0,0.0,0.0,0.0,0.0,0.0,0.0,0.0,0.0,0.0,0.0,0.0,0.0,0.0,0.0,0.0,0.0,0.0,0.0,0.0,0.0,0.0,0.0,0.0,0.0,0.0,0.0,0.0,0.0,0.0,0.0,0.0,0.0,0.0,0.0,0.0,0.0,0.0,0.0,0.0,0.0,0.0,0.0,0.0,0.0,0.0,0.0,0.0,0.0,0.0,0.0,0.0,0.0,0.0,0.0,0.0,0.0,0.0,0.0,0.0,0.0,0.0,0.0,0.0,0.0,0.0,0.0,0.0,0.0,0.0,0.0,0.0,0.0,0.0,0.0,0.0,0.0,0.0,0.0,0.0,0.0,0.0,0.0,0.0,0.0,0.0,0.0,0.0,0.0,0.0,0.0,0.0,0.0,0.0,0.0,0.0,0.0,0.0,0.0,0.0,0.0,0.0,0.0,0.0,0.0,0.0,0.0,0.0,0.0,0.0,0.0,0.0,0.0,0.0,0.0,0.0,0.0,0.0,0.0,0.0,0.0,0.0,0.0,0.0,0.0,0.0,0.0,0.0,0.0,0.0,0.0,0.0,0.0,0.0,0.0,0.0,0.0,0.0,0.0,0.0,0.0,0.0,0.0,0.0,0.0,0.0,0.0,0.0,0.0,0.0,0.0,0.0,0.0,0.0,0.0,0.0,0.0,0.0,0.0,0.0,0.0,0.0,0.0,0.0,0.0,0.0,0.0,0.0,0.0,0.0,0.0,0.0,0.0,0.0,0.0,0.0,0.0,0.0,0.0,0.0,0.0,0.0,0.0,0.0,0.0,0.0,0.0,0.0,0.0,0.0,0.0,0.0,0.0,0.0,0.0,0.0,0.0,0.0,0.0,0.0,0.0,0.0,0.0,0.0,0.0,0.0,0.0,0.0,0.0,0.0,0.0,0.0,0.0,0.0,0.0,0.0,0.0,0.0,0.0,0.0,0.0,0.0,0.0,0.0,0.0,0.0,0.0,0.0,0.0,0.0,0.0,0.0,0.0,0.0,0.0,0.0,0.0,0.0,0.0,0.0,0.0,0.0,0.0,0.0,0.0,0.0,0.0,0.0,0.0,0.0,0.0,0.0,0.0,0.0,0.0,0.0,0.0,0.0,0.0,0.0,0.0,0.0,0.0,0.0,0.0,0.0,0.0,0.0,0.0,0.0,0.0,0.0,0.0,0.0,0.0,0.0,0.0,0.0,0.0,0.0,0.0,0.0,0.0,0.0,0.0,0.0,0.0,0.0,0.0,0.0,0.0,0.0,0.0,0.0,0.0,0.0,0.0,0.0,0.0,0.0,0.0,0.0,0.0,0.0,0.0,0.0,0.0,0.0,0.0,0.0,0.0,0.0,0.0,0.0,0.0,0.0,0.0,0.0,0.0,0.0,0.0,0.0,0.0,0.0,0.0,0.0,0.0,0.0,0.0,0.0,0.0,0.0,0.0,0.0,0.0,0.0,0.0,0.0,0.0,0.0,0.0,0.0,0.0,0.0,0.0,0.0,0.0,0.0,0.0,0.0,0.0,0.0,0.0,0.0,0.0,0.0,0.0,0.0,0.0,0.0,0.0,0.0,0.0,0.0,0.0,0.0,0.0,0.0,0.0,0.0,0.0,0.0,0.0,0.0,0.0,0.0,0.0,0.0,0.0,0.0,0.0,0.0,0.0,0.0,0.0,0.0,0.0,0.0,0.0,0.0,0.0,0.0,0.0,0.0,0.0,0.0,0.0,0.0,0.0,0.0,0.0,0.0,0.0,0.0,0.0,0.0,0.0,0.0,0.0,0.0,0.0,0.0,0.0,0.0,0.0,0.0,0.0,0.0,0.0,0.0,0.0,0.0,0.0,0.0,0.0,0.0,0.0,0.0,0.0,0.0,0.0,0.0,0.0,0.0,0.0,0.0,0.0,0.0,0.0,0.0,0.0,0.0,0.0,0.0,0.0,0.0,0.0,0.0,0.0,0.0,0.0,0.0,0.0,0.0,0.0,0.0,0.0,0.0,0.0,0.0,0.0,0.0,0.0,0.0,0.0,0.0,0.0,0.0,0.0,0.0,0.0,0.0,0.0,0.0,0.0,0.0,0.0,0.0,0.0,0.0,0.0,0.0,0.0,0.0,0.0,0.0,0.0,0.0,0.0,0.0,0.0,0.0,0.0,0.0,0.0,0.0,0.0,0.0,0.0,0.0,0.0,0.0,0.0,0.0,0.0,0.0,0.0,0.0,0.0,0.0,0.0,0.0,0.0,0.0,0.0,0.0,0.0,0.0,0.0,0.0,0.0,0.0,0.0,0.0,0.0,0.0,0.0,0.0,0.0,0.0,0.0,0.0,0.0,0.0,0.0,0.0,0.0,0.0,0.0,0.0,0.0,0.0,0.0,0.0,0.0,0.0,0.0,0.0,0.0,0.0,0.0,0.0,0.0,0.0,0.0,0.0,0.0,0.0,0.0,0.0,0.0,0.0,0.0,0.0,0.0,0.0,0.0,0.0,0.0,0.0,0.0,0.0,0.0,0.0,0.0,0.0,0.0,0.0,0.0,0.0,0.0,0.0,0.0,0.0,0.0,0.0,0.0,0.0,0.0,0.0,0.0,0.0,0.0,0.0,0.0,0.0,0.0,0.0,0.0,0.0,0.0,0.0,0.0,0.0,0.0,0.0,0.0,0.0,0.0,0.0,0.0,0.0,0.0,0.0,0.0,0.0,0.0,0.0,0.0,0.0,0.0,0.0,0.0,0.0,0.0,0.0,0.0,0.0,0.0,0.0,0.0,0.0,0.0,0.0,0.0,0.0,0.0,0.0,0.0,0.0,0.0,0.0,0.0,0.0,0.0,0.0,0.0,0.0,0.0,0.0,0.0,0.0,0.0,0.0,0.0,0.0,0.0,0.0,0.0,0.0,0.0,0.0,0.0,0.0,0.0,0.0,0.0,0.0,0.0,0.0,0.0,0.0,0.0,0.0,0.0,0.0,0.0,0.0,0.0,0.0,0.0,0.0,0.0,0.0,0.0,0.0,0.0,0.0,0.0,0.0,0.0,0.0,0.0,0.0,0.0,0.0,0.0,0.0,0.0,0.0,0.0,0.0,0.0,0.0,0.0,0.0,0.0,0.0,0.0,0.0,0.0,0.0,0.0,0.0,0.0,0.0,0.0,0.0,0.0,0.0,0.0,0.0,0.0,0.0,0.0,0.0,0.0,0.0,0.0,0.0,0.0,0.0,0.0,0.0,0.0,0.0,0.0,0.0,0.0,0.0,0.0,0.0,0.0,0.0,0.0,0.0,0.0,0.0,0.0,0.0,0.0,0.0,0.0,0.0,0.0,0.0,0.0,0.0,0.0,0.0,0.0,0.0,0.0,0.0,0.0,0.0,0.0,0.0,0.0,0.0,0.0,0.0,0.0,0.0,0.0,0.0,0.0,0.0,0.0,0.0,0.0,0.0,0.0,0.0,0.0,0.0,0.0,0.0,0.0,0.0,0.0,0.0,0.0,0.0,0.0,0.0,0.0,0.0,0.0,0.0,0.0,0.0,0.0,0.0,0.0,0.0,0.0,0.0,0.0,0.0,0.0,0.0,0.0,0.0,0.0,0.0,0.0,0.0,0.0,0.0,0.0,0.0,0.0,0.0,0.0,0.0,0.0,0.0,0.0,0.0,0.0,0.0,0.0,0.0,0.0,0.0,0.0,0.0,0.0,0.0,0.0,0.0,0.0,0.0,0.0,0.0,0.0,0.0,0.0,0.0,0.0,0.0,0.0,0.0,0.0,0.0,0.0,0.0,0.0,0.0,0.0,0.0,0.0,0.0,0.0,0.0,0.0,0.0,0.0,0.0,0.0,0.0,0.0,0.0,0.0,0.0,0.0,0.0,0.0,0.0,0.0,0.0,0.0,0.0,0.0,0.0,0.0,0.0,0.0,0.0,0.0,0.0,0.0,0.0,0.0,0.0,0.0,0.0,0.0,0.0,0.0,0.0,0.0,0.0,0.0,0.0,0.0,0.0,0.0,0.0,0.0,0.0,0.0,0.0,0.0,0.0,0.0,0.0,0.0,0.0,0.0,0.0,0.0,0.0,0.0,0.0,0.0,0.0,0.0,0.0,0.0,0.0,0.0,0.0,0.0,0.0,0.0,0.0,0.0,0.0,0.0,0.0,0.0,0.0,0.0,0.0,0.0,0.0,0.0,0.0,0.0,0.0,0.0,0.0,0.0,0.0,0.0,0.0,0.0,0.0,0.0,0.0,0.0,0.0,0.0,0.0,0.0,0.0,0.0,0.0,0.0,0.0,0.0,0.0,0.0,0.0,0.0,0.0,0.0,0.0,0.0,0.0,0.0,0.0,0.0,0.0,0.0,0.0,0.0,0.0,0.0,0.0,0.0,0.0,0.0,0.0,0.0,0.0,0.0,0.0,0.0,0.0,0.0,0.0,0.0,0.0,0.0,0.0,0.0,0.0,0.0,0.0,0.0,0.0,0.0,0.0,0.0,0.0,0.0,0.0,0.0,0.0,0.0,0.0,0.0,0.0,0.0,0.0,0.0,0.0,0.0,0.0,0.0,0.0,0.0,0.0,0.0,0.0,0.0,0.0,0.0,0.0,0.0,0.0,0.0,0.0,0.0,0.0,0.0,0.0,0.0,0.0,0.0,0.0,0.0,0.0,0.0,0.0,0.0,0.0,0.0,0.0,0.0,0.0,0.0,0.0,0.0,0.0,0.0,0.0,0.0,0.0,0.0,0.0,0.0,0.0,0.0,0.0,0.0,0.0,0.0,0.0,0.0,0.0,0.0,0.0,0.0,0.0,0.0,0.0,0.0,0.0,0.0,0.0,0.0,0.0,0.0,0.0,0.0,0.0,0.0,0.0,0.0,0.0,0.0,0.0,0.0,0.0,0.0,0.0,0.0,0.0,0.0,0.0,0.0,0.0,0.0,0.0,0.0,0.0,0.0,0.0,0.0,0.0,0.0,0.0,0.0,0.0,0.0,0.0,0.0,0.0,0.0,0.0,0.0,0.0,0.0,0.0,0.0,0.0,0.0,0.0,0.0,0.0,0.0,0.0,0.0,0.0,0.0,0.0,0.0,0.0,0.0,0.0,0.0,0.0,0.0,0.0,0.0,0.0,0.0,0.0,0.0,0.0,0.0,0.0,0.0,0.0,0.0,0.0,0.0,0.0,0.0,0.0,0.0,0.0,0.0,0.0,0.0,0.0,0.0,0.0,0.0,0.0,0.0,0.0,0.0,0.0,0.0,0.0,0.0,0.0,-0.3075,-0.4795,0.0,0.0,0.0,0.0,0.0,0.0,0.0,0.0,0.0,0.0,0.0,0.0,0.0,0.0,0.0,0.0,0.0,0.0,0.0,0.0,0.0,0.0,0.0,-1.3344,-1.2363,-0.9853,-0.929,-0.8702,-0.7783,0.0,0.0,0.0,0.0,0.0,-0.6801,-0.6589,-0.6508,-0.6508,-0.6187,-0.6031,-0.6138,-0.6987,-0.8091,-0.9283,0.0,0.0,0.0,0.0,0.0,0.0,0.0,0.0,0.0,0.0,0.0,0.0,0.0,0.0,0.0,0.0,0.0,0.0,0.0,0.0,0.0,0.0,0.0,0.0,0.0,0.0,0.0,0.0,0.0,0.0,0.0,0.0,0.0,0.0,0.0,0.0,0.0,0.0,0.0,0.0,0.0,0.0,0.0,0.0,0.0,0.0,0.0,0.0,0.0,0.0,0.0,0.0,0.0,0.0,0.0,0.0,0.0,0.0,0.0,0.0,0.0,0.0,0.0,0.0,0.0,0.0,0.0,0.0,0.0,0.0,-0.1895,-0.3197,0.0,0.0,0.0,0.0,0.0,0.0,0.0,0.0,0.0,0.0,0.0,0.0,0.0,0.0,0.0,0.0,0.0,0.0,0.0,0.0,0.0,-1.5018,-1.2684,-1.2325,-1.1276,-0.8669,-0.8049,-0.7645,-0.7379,-0.6995,0.0,0.0,0.0,-0.6686,-0.6686,-0.6334,-0.6131,-0.608,-0.5528,-0.5275,-0.5357,-0.5439,-0.6048,-0.7032,-0.734,0.0,0.0,0.0,0.0,0.0,0.0,0.0,0.0,0.0,0.0,0.0,0.0,0.0,0.0,0.0,0.0,0.0,0.0,0.0,0.0,0.0,0.0,0.0,0.0,0.0,0.0,0.0,0.0,0.0,0.0,0.0,0.0,0.0,0.0,0.0,0.0,0.0,0.0,0.0,0.0,0.0,0.0,0.0,0.0,0.0,0.0,0.0,0.0,0.0,0.0,0.0,0.0,0.0,0.0,0.0,0.0,0.0,0.0,0.0,0.0,0.0,0.0,0.0,0.0829,0.1355,0.106,0.106,0.1237,0.1357,-0.1026,-0.1647,-0.1038,-0.238,0.0,0.0,0.0,0.0,0.0,0.0,0.0,0.0,0.0,0.0,0.0,0.0,0.0,0.0,0.0,0.0,0.0,0.0,0.0,-1.5018,-1.2684,-1.2091,-1.0918,-0.8524,-0.7692,-0.7296,-0.7243,-0.6865,-0.6643,-0.6643,-0.6492,-0.6335,-0.6088,-0.6073,-0.5912,-0.5658,-0.4437,-0.3732,-0.3539,-0.3547,-0.3652,-0.3857,-0.5502,-0.7001,-0.8302,0.0,0.0,0.0,0.0,0.0,0.0,0.0,0.0,0.0,0.0,0.0,0.0,0.0,0.0,0.0,0.0,0.0,0.0,0.0,0.0,0.0,0.0,0.0,0.0,0.0,0.0,0.0,0.0,0.0,0.0,0.0,0.0,0.0,0.0,0.0,0.0,0.0,0.0,0.0,0.0,0.0,0.3198,0.3383,0.0,0.0,0.0,0.0,0.0,0.0,0.0,0.0,0.0,0.0,0.0,0.0,0.0,0.1719,0.1541,0.1715,0.1714,0.1536,0.1711,0.1826,0.1768,0.1768,0.1768,0.1827,0.142,0.0,-0.0651,-0.0887,0.0,0.0,0.0,0.0,0.0,0.0,0.0,0.0,0.0,0.0,0.0,0.0,0.0,0.0,0.0,0.0,0.0,0.0,0.0,0.0,0.0,-1.1208,-0.9889,-0.7837,-0.7349,-0.7064,-0.6854,-0.6635,-0.6465,-0.6465,-0.6266,-0.6139,-0.5992,-0.5135,-0.423,-0.3373,-0.2771,-0.242,-0.2318,-0.2318,-0.262,-0.3226,-0.4046,-0.546,-0.7247,-0.7247,0.0,0.0,0.0,0.0,0.0,0.0,0.0,0.0,0.0,0.0,0.0,0.0,0.0,0.0,0.0,0.0,0.0,0.0,0.0,0.0,0.0,0.0,0.0,0.0,0.0,0.0,0.0,0.0,0.0,0.0,0.0,0.0,0.0,0.0,0.0,0.0,0.0,0.0,0.0,0.3077,0.4018,0.4734,0.4792,0.4556,0.0,0.0,0.0,0.0,0.0,0.0,0.0,0.0,0.0,0.2749,0.2177,0.1835,0.1835,0.1818,0.1866,0.1866,0.1792,0.1784,0.1784,0.1784,0.1784,0.1784,0.1784,0.1393,0.067,0.058,-0.0353,-0.1701,0.0,0.0,0.0,0.0,-0.3098,-0.3205,0.0,0.0,0.0,0.0,0.0,0.0,0.0,0.0,0.0,0.0,0.0,0.0,-1.1947,-1.0504,-0.8926,-0.7331,-0.7007,-0.6833,-0.6573,-0.6388,-0.6289,-0.6289,-0.6039,-0.5739,-0.5388,-0.3879,-0.2621,-0.1613,-0.131,-0.121,-0.121,-0.121,-0.1764,-0.2821,-0.3073,-0.4327,-0.6282,-0.6282,-0.7074,0.0,0.0,0.0,0.0,0.0,0.0,0.0,0.0,0.0,0.0,0.0,0.0,0.0,0.0,0.0,0.0,0.0,0.0,0.0,0.0,0.0,0.0,0.0,0.0,0.0,0.0,0.0,0.0,0.0,0.0,0.0,0.0,0.0,0.0,0.0,0.0,0.0,0.0,0.4658,0.5018,0.5946,0.6096,0.5965,0.0,0.0,0.0,0.0,0.0,0.0,0.5224,0.4387,0.388,0.3863,0.2764,0.2159,0.2159,0.1913,0.1792,0.1792,0.1715,0.1704,0.1704,0.1704,0.1704,0.1704,0.1704,0.1704,0.1711,0.152,0.0862,-0.0057,-0.0226,-0.0957,-0.1795,-0.1695,-0.1733,-0.1785,0.0,0.0,0.0,0.0,0.0,0.0,0.0,0.0,0.0,0.0,0.0,-1.3227,-1.1961,-1.0132,-0.8519,-0.7213,-0.6673,-0.6445,-0.6395,-0.6142,-0.6042,-0.6042,-0.5789,-0.5033,-0.3729,-0.242,-0.1664,-0.1613,-0.0605,-0.0101,-0.0101,-0.0101,-0.0655,-0.1714,-0.272,-0.3827,-0.4885,-0.4885,-0.5682,-0.6877,0.0,0.0,0.0,0.0,0.0,0.0,0.0,0.0,0.0,0.0,0.0,0.0,0.0,0.0,0.0,0.0,0.0,0.0,0.0,0.0,0.0,0.0,0.0,0.0,0.0,0.0,0.0,0.0,0.0,0.0,0.0,0.0,0.0,0.0,0.0,0.0,0.0,0.0,0.0,0.7507,0.7623,0.0,0.0,0.0,0.0,0.575,0.575,0.5764,0.5775,0.5448,0.5248,0.5212,0.3942,0.3201,0.3201,0.224,0.1707,0.1706,0.1705,0.1704,0.1704,0.1704,0.1704,0.1704,0.1704,0.1704,0.1705,0.1711,0.1659,0.1552,0.1285,0.1124,0.1069,0.112,0.0907,0.0694,0.0,0.0,0.0,0.0,0.0,-1.7067,-1.673,-1.6477,-1.5884,-1.4748,-1.3304,-1.1769,-1.0286,-0.8579,-0.731,-0.6709,-0.6514,-0.6387,-0.6387,-0.6139,-0.5992,-0.5992,-0.4935,-0.3373,-0.1309,-0.0806,-0.0252,0.0454,0.0858,0.1009,0.1009,0.1009,0.0454,-0.0605,-0.1713,-0.2771,-0.3827,-0.4481,-0.5083,-0.5532,-0.5532,-0.6132,0.0,0.0,0.0,0.0,0.0,0.0,0.0,0.0,0.0,0.0,0.0,0.0,0.0,0.0,0.0,0.0,0.0,0.0,0.0,0.0,0.0,0.0,0.0,0.0,0.0,0.0,0.0,0.0,0.0,0.0,0.0,0.0,0.0,0.0,0.0,0.0,0.0,0.8612,0.8726,0.0,0.8094,0.804,0.804,0.804,0.804,0.803,0.7942,0.6991,0.6518,0.6503,0.5229,0.4515,0.4515,0.4157,0.3542,0.2672,0.2672,0.2314,0.1648,0.1648,0.1648,0.1648,0.1648,0.1648,0.1648,0.1648,0.167,0.1704,0.1598,0.1545,0.1543,0.1578,0.1468,0.1414,0.0,0.0,0.0,0.0,-1.7272,-1.6955,-1.673,-1.6418,-1.5666,-1.4208,-1.2551,-1.0932,-0.9413,-0.7737,-0.6637,-0.6439,-0.6387,-0.6387,-0.6387,-0.6087,-0.5689,-0.5334,-0.3423,-0.1662,-0.005,0.0353,0.0908,0.1617,0.1617,0.1617,0.1617,0.1617,0.1009,-0.005,-0.0756,-0.1864,-0.3224,-0.3977,-0.4481,-0.4784,-0.4784,-0.5135,-0.5639,0.0,0.0,0.0,0.0,0.0,0.0,0.0,0.0,0.0,0.0,0.0,0.0,0.0,0.0,0.0,0.0,0.0,0.0,0.0,0.0,0.0,0.0,0.0,0.0,0.0,0.0,0.0,0.0,0.0,0.0,0.0,0.0,0.0,0.0,0.8121,0.8473,0.9321,0.9484,0.9524,0.9582,0.959,0.959,0.959,0.959,0.954,0.9476,0.8532,0.8019,0.8076,0.6799,0.602,0.5831,0.5477,0.4806,0.3875,0.3775,0.3425,0.2823,0.2371,0.212,0.212,0.1768,0.1617,0.1617,0.1617,0.1639,0.1675,0.1675,0.1675,0.1672,0.1654,0.1647,0.1644,0.0,0.0,0.0,-1.7689,-1.7107,-1.6677,-1.6677,-1.6258,-1.5458,-1.4266,-1.2491,-1.0794,-0.9462,-0.7711,-0.6564,-0.6395,-0.6387,-0.6387,-0.6387,-0.5884,-0.5081,-0.3974,-0.1409,0.0,0.005,0.106,0.1617,0.1667,0.1667,0.1667,0.1718,0.1667,0.111,0.0101,0.005,-0.1158,-0.3123,-0.3173,-0.3776,-0.4734,-0.4784,-0.4784,-0.4784,0.0,0.0,0.0,0.0,0.0,0.0,0.0,0.0,0.0,0.0,0.0,0.0,0.0,0.0,0.0,0.0,0.0,0.0,0.0,0.0,0.0,0.0,0.0,0.0,0.0,0.0,0.0,0.0,0.0,0.0,0.0,0.0,0.0,0.932,0.9433,0.9544,0.9715,0.9844,0.9965,1.0196,1.0212,1.0216,1.0224,1.0224,1.0224,1.0224,0.9963,0.9803,0.9799,0.8521,0.7663,0.7172,0.6138,0.5528,0.5233,0.4977,0.4974,0.5179,0.3875,0.3274,0.3224,0.217,0.1667,0.1667,0.1667,0.1667,0.1617,0.1617,0.1617,0.1617,0.1617,0.1617,0.1617,0.0,0.0,-1.8297,-1.7689,-1.7107,-1.6677,-1.6677,-1.6258,-1.5115,-1.3009,-1.2054,-1.0655,-0.8278,-0.7274,-0.6628,-0.6439,-0.6387,-0.6387,-0.6387,-0.5884,-0.4578,-0.2367,0.0,0.0,0.1161,0.1465,0.1969,0.2772,0.2772,0.3173,0.3924,0.3123,0.2621,0.2266,0.0705,-0.0353,-0.0957,-0.2518,-0.3374,-0.3726,-0.4481,-0.4784,-0.4784,0.0,0.0,0.0,0.0,0.0,0.0,0.0,0.0,0.0,0.0,0.0,0.0,0.0,0.0,0.0,0.0,0.0,0.0,0.0,0.0,0.0,0.0,0.0,0.0,0.0,0.0,0.0,0.0,0.0,0.0,0.0,0.9381,0.9512,0.9511,0.9688,0.9803,0.9855,1.0034,1.0159,1.0208,1.0212,1.0217,1.0351,1.0359,1.0359,1.0359,1.0085,0.9973,1.0116,0.953,0.9194,0.9042,0.8611,0.7763,0.6554,0.6564,0.6074,0.5179,0.4828,0.4628,0.4628,0.4124,0.3475,0.2822,0.3624,0.3022,0.1617,0.1617,0.1617,0.1617,0.1617,0.1617,0.1617,0.0,-1.849,-1.8297,-1.7689,-1.7107,-1.6677,-1.6677,-1.6258,-1.502,-1.2622,-1.1864,-1.0552,-0.7901,-0.7107,-0.6692,-0.6437,-0.6387,-0.6387,-0.6387,-0.5079,-0.3522,0.0,0.0,0.116,0.227,0.227,0.2772,0.3875,0.3875,0.4175,0.4774,0.4175,0.3624,0.3123,0.1913,0.0856,-0.0101,-0.1813,-0.2771,-0.3274,-0.4381,-0.4784,-0.4784,-0.4784,-0.4784,-0.4784,-0.4784,-0.4533,-0.4029,-0.3425,0.0,0.0,0.0,0.0,0.0,0.0,0.0,0.0,0.0,0.0,0.0,0.0,0.0,0.0,0.0,0.0,0.0,0.0,0.0,0.0,0.0,0.0,0.0,0.0,0.9983,1.0432,1.0432,1.0121,0.9941,1.0095,1.0676,1.0879,1.0428,1.0854,1.0954,1.0534,1.0542,1.0542,1.0542,1.0375,1.0323,1.0387,1.0281,1.0081,0.9904,0.9746,0.915,0.8088,0.8005,0.7585,0.688,0.6276,0.6027,0.5977,0.5277,0.4626,0.4076,0.4574,0.4074,0.2873,0.0,0.0,0.0,0.0,0.1617,0.1617,0.0,-1.851,-1.831,-1.7736,-1.7126,-1.673,-1.673,-1.6258,-1.5072,-1.2689,-1.1943,-1.0651,-0.7963,-0.7202,-0.6742,-0.6437,-0.6387,-0.6387,-0.6337,-0.3872,0.0,-0.2013,0.0303,0.212,0.3173,0.3224,0.3775,0.4974,0.4974,0.5024,0.5175,0.5024,0.4425,0.3374,0.3274,0.2065,0.0101,-0.0958,-0.2016,-0.3123,-0.418,-0.4684,-0.4784,-0.4784,-0.4784,-0.4784,-0.4784,-0.413,-0.3173,-0.3073,0.0,0.0,0.0,0.0,0.0,0.0,0.0,0.0,0.0,0.0,0.0,0.0,0.0,0.0,0.0,0.0,0.0,0.0,0.0,0.0,0.0,0.0,0.0,0.0,1.0934,1.1817,1.1865,1.1009,1.0475,1.0764,1.1771,1.2068,1.1164,1.1987,1.2146,1.1177,1.0962,1.0907,1.0907,1.0747,0.0,0.0,0.0,1.0506,1.0073,1.0057,0.9885,0.9513,0.929,0.9194,0.9183,0.7975,0.7422,0.7372,0.6126,0.5529,0.5379,0.5275,0.5125,0.4924,0.3825,0.2822,0.1969,0.1969,0.1868,0.1768,0.0,-1.8651,-1.8377,-1.7969,-1.7489,-1.7008,-1.673,-1.6418,-1.5292,-1.2738,-1.2111,-1.0819,-0.8016,-0.7355,-0.6939,-0.6437,-0.6387,-0.6287,-0.6092,-0.3773,-0.2265,-0.2013,0.0303,0.212,0.3173,0.3224,0.4126,0.6084,0.6084,0.6534,0.7385,0.6484,0.5529,0.4474,0.3574,0.247,0.1212,0.0151,-0.0907,-0.2016,-0.3073,-0.4029,-0.4784,-0.4784,-0.4784,-0.4784,-0.4784,-0.413,-0.3073,-0.2217,-0.1058,0.0151,0.1009,0.0,0.0,0.0,0.0,0.0,0.0,0.0,0.0,0.0,0.0,0.0,0.0,0.0,0.0,0.0,0.0,0.0,0.0,0.0,0.0,1.1111,1.2169,1.3021,1.3402,1.3247,1.3174,1.3209,1.3534,1.3659,1.3485,1.3647,1.3701,1.3437,1.2575,1.2096,1.2096,1.1177,1.0692,1.0692,1.0692,1.0676,1.0585,1.0393,1.011,0.9748,0.9753,0.0,0.9187,0.8935,0.8832,0.8783,0.8326,0.7478,0.6528,0.7378,0.7179,0.6276,0.4974,0.4373,0.4175,0.4175,0.3624,0.2873,0.0,-1.8791,-1.8397,-1.8042,-1.7422,-1.6895,-1.673,-1.6365,-1.5185,-1.2743,-1.2585,-1.1488,-0.8276,-0.7954,-0.7627,-0.6689,-0.6487,-0.6337,-0.6189,-0.3823,-0.2315,-0.2214,0.0252,0.2371,0.3974,0.4024,0.5027,0.7188,0.7188,0.7487,0.7988,0.7437,0.6634,0.5579,0.4475,0.3423,0.232,0.0706,-0.0605,-0.1714,-0.2771,-0.3827,-0.4784,-0.4784,-0.4481,-0.3979,-0.3979,-0.2971,-0.1511,-0.0957,-0.0101,0.0908,0.1414,0.1617,0.1718,0.0,0.0,0.0,0.0,0.0,0.0,0.0,0.0,0.0,0.0,0.0,0.0,0.0,0.0,0.9031,0.9183,0.0,1.1274,1.1582,1.3191,1.4504,1.4706,1.5322,1.5294,1.4124,1.4601,1.4781,1.4186,1.4674,1.4728,1.4137,1.3545,1.3004,1.2413,1.1878,1.1286,1.0747,1.0692,1.0692,1.0692,1.0607,1.0375,1.0004,1.0015,0.9833,0.9381,0.9381,0.9381,0.9381,0.913,0.863,0.8031,0.8428,0.8276,0.7726,0.7074,0.6074,0.4977,0.4977,0.4576,0.4024,0.0,-1.8891,-1.8417,-1.8122,-1.7394,-1.6836,-1.673,-1.6311,-1.5286,-1.3014,-1.3046,-1.21,-0.9055,-0.8635,-0.8055,-0.6842,-0.6539,-0.6387,0.0,-0.4124,-0.2668,-0.2416,-0.0101,0.2218,0.4423,0.4674,0.5727,0.769,0.7889,0.7988,0.7988,0.7988,0.7437,0.6334,0.5277,0.4223,0.3073,0.1109,-0.0454,-0.1664,-0.2519,-0.3525,-0.4481,-0.4481,-0.3977,-0.3173,-0.2972,-0.1662,0.0,0.0,0.0706,0.1617,0.1617,0.1768,0.207,0.2923,0.3324,0.0,0.0,0.0,0.0,0.0,0.0,0.0,0.0,0.8237,0.8482,0.8482,0.8882,0.9331,0.9525,1.0861,1.2013,1.2254,1.4339,1.5915,1.5964,1.6905,1.6882,1.4995,1.5642,1.5861,1.4888,1.5642,1.5855,1.4835,1.4567,1.403,1.3112,1.263,1.1982,1.1067,1.0802,1.0692,1.0692,1.066,1.0481,1.0212,1.018,0.9941,0.9579,0.9579,0.9579,0.9579,0.9331,0.9187,0.9187,0.8977,0.8878,0.8878,0.8928,0.7723,0.5877,0.5829,0.5527,0.5127,0.0,-1.8891,-1.8477,-1.8444,-1.7909,-1.7312,-1.6783,-1.6624,-1.5986,-1.4218,-1.3019,-1.1997,-1.114,-0.8991,-0.7319,-0.6498,-0.6437,-0.6387,-0.6387,-0.4981,-0.3624,-0.2467,-0.0957,0.0957,0.3323,0.4323,0.5377,0.6587,0.7537,0.7988,0.7988,0.7988,0.7437,0.6334,0.5277,0.4223,0.3123,0.1918,0.0252,-0.1613,-0.1714,-0.2418,-0.3374,-0.3374,-0.3324,-0.3073,-0.2116,-0.1008,0.0,0.0,0.0706,0.1617,0.1617,0.227,0.3022,0.3173,0.3875,0.4876,0.5932,0.6933,0.7686,0.7789,0.7889,0.7988,0.0,0.8382,0.8775,0.8775,0.9179,0.9871,1.0783,1.2088,1.3407,1.4595,1.6062,1.708,1.7338,1.7509,1.7477,1.7259,1.7312,1.7364,1.7206,1.7312,1.7364,1.7206,1.6287,1.5642,1.5535,1.3545,1.2363,1.22,1.1232,1.0692,1.0692,1.0542,1.0363,1.0212,0.9994,0.9815,0.9579,0.9579,0.9579,0.9579,0.9331,0.9187,0.9187,0.9183,0.9133,0.9183,0.9426,0.9076,0.8375,0.8131,0.7282,0.6234,0.0,0.0,-1.8691,-1.8517,-1.7888,-1.7219,-1.6783,-1.6577,-1.5939,-1.4385,-1.4166,-1.3283,-1.1098,-0.8861,-0.7289,-0.6701,-0.6487,0.0,-0.6387,-0.5131,-0.3875,-0.2668,-0.136,0.0504,0.292,0.3422,0.4223,0.5479,0.5927,0.6126,0.6126,0.6126,0.5877,0.5427,0.4325,0.3624,0.3123,0.1867,0.0505,-0.0907,-0.1058,-0.1764,-0.2671,-0.1864,-0.1562,-0.1511,-0.0907,0.0,0.0,0.0,0.1212,0.1617,0.1617,0.2321,0.3323,0.3924,0.4876,0.5982,0.7036,0.7637,0.7988,0.7988,0.7988,0.7988,0.7988,0.8283,0.8581,0.8581,0.8981,0.9557,1.01,1.1973,1.3672,1.4338,1.6108,1.7442,1.7562,1.7582,1.7582,1.7582,1.7582,1.7582,1.7582,1.7582,1.7582,1.7582,1.7153,1.6611,1.5914,1.4948,1.3814,1.2417,1.1932,1.1391,1.0692,1.0521,1.0343,1.0212,0.9973,0.9795,0.9579,0.9579,0.9579,0.9579,0.948,0.943,0.9422,0.9368,0.9324,0.9324,0.9421,0.9271,0.8893,0.8693,0.8081,0.7338,0.0,0.0,0.0,-1.8644,-1.7899,-1.7158,-1.6743,-1.6477,-1.5891,-1.4815,-1.4923,-1.3932,-1.0736,-0.9261,-0.8059,-0.6956,-0.6662,-0.6487,0.0,-0.5482,-0.4427,-0.3272,-0.2015,-0.0352,0.1762,0.2366,0.3169,0.4123,0.4422,0.4572,0.4572,0.4572,0.4572,0.4522,0.3472,0.2971,0.292,0.1615,0.0454,-0.0504,-0.0706,-0.126,-0.1865,-0.0857,-0.0302,0.0,0.0303,0.0959,0.0,0.0,0.1617,0.1667,0.1969,0.2772,0.3874,0.4926,0.5982,0.6986,0.7789,0.7988,0.7988,0.7988,0.7988,0.7988,0.7988,0.8187,0.8382,0.8382,0.8836,0.9333,0.9851,1.1958,1.3769,1.4231,1.6166,1.7582,1.7582,1.7582,1.7582,1.7582,1.7582,1.7582,1.7582,1.7582,1.7582,1.7582,1.7582,1.7259,1.6399,1.6074,1.4995,1.295,1.2575,1.1851,1.0623,1.0448,1.0266,1.0135,0.99,0.9746,0.9579,0.9579,0.9579,0.9579,0.9579,0.9579,0.9612,0.9477,0.9404,0.94,0.9351,0.914,0.8921,0.8893,0.8594,0.8187,0.0,0.0,0.0,-1.8911,-1.8196,-1.7378,-1.6774,-1.6477,-1.6164,-1.5891,-1.4917,-1.3199,-1.042,-1.0699,-1.0015,-0.734,-0.6917,-0.6692,-0.6437,-0.6384,-0.5734,-0.4429,-0.3323,-0.2115,-0.0706,0.1359,0.2416,0.2466,0.3516,0.4016,0.4016,0.4016,0.4016,0.3966,0.2917,0.2416,0.2366,0.1261,0.0202,-0.0806,-0.0806,-0.0806,-0.0857,-0.0806,-0.0151,0.0808,0.1364,0.0,0.0,0.0,0.1617,0.1768,0.2822,0.3874,0.0,0.6032,0.7089,0.7942,0.7988,0.7988,0.7988,0.7988,0.7988,0.7988,0.7988,0.8187,0.8382,0.8382,0.8836,0.9581,1.0805,1.2466,1.3975,1.5156,1.6644,1.7582,1.7582,1.7582,1.7582,1.7582,1.7582,1.7582,1.7582,1.7582,1.7582,1.7582,1.7582,1.7582,1.7529,1.6505,1.5322,1.4078,1.3009,1.1733,1.0444,1.0262,1.0126,0.9892,0.9717,0.9583,0.9579,0.9579,0.9579,0.9579,0.9579,0.9579,0.9612,0.9477,0.9404,0.9384,0.9169,0.896,0.8738,0.8917,0.889,0.8726,0.0,0.0,0.0,-1.8958,-1.8307,-1.7674,-1.714,-1.6596,-1.6217,-1.5945,-1.4922,0.0,0.0,0.0,0.0,0.0,-0.8258,-0.7383,-0.773,-0.7086,-0.6087,-0.4732,-0.4331,-0.3172,-0.1109,-0.0353,0.0453,0.1362,0.1714,0.1865,0.1865,0.1865,0.1865,0.1865,0.1513,0.1362,0.1261,0.0,-0.0756,-0.1159,-0.2015,-0.2367,-0.2317,-0.1411,-0.0857,-0.0404,0.0,0.0,0.0,0.0,0.0,0.1768,0.2873,0.3924,0.5175,0.6933,0.7739,0.7988,0.7988,0.7988,0.7988,0.7988,0.7988,0.7988,0.7988,0.8088,0.8137,0.8137,0.8671,0.9298,0.988,1.2072,1.3964,1.4459,1.6284,1.7582,1.7582,1.7582,1.7582,1.7582,1.7582,1.7582,1.7582,1.7582,1.7582,1.7582,1.7582,1.7582,1.7582,1.7259,1.6505,1.5322,1.4137,1.3227,1.2587,1.1651,1.1088,1.0887,1.0004,0.9579,0.9579,0.9579,0.9579,0.9579,0.9579,0.9559,0.9433,0.9254,0.9112,0.8995,0.8934,0.8868,0.8792,0.8976,0.9104,0.9118,0.0,0.0,0.0,0.0,0.0,0.0,0.0,0.0,0.0,0.0,0.0,0.0,0.0,0.0,0.0,0.0,0.0,-0.8363,-0.8657,0.0,-0.6539,-0.5536,-0.5133,-0.4178,-0.2518,-0.2116,-0.1512,-0.0605,-0.0252,-0.005,-0.005,0.0353,0.0505,0.0505,0.0505,0.0303,-0.0101,-0.0958,-0.1562,-0.1965,-0.2871,-0.3224,-0.3123,-0.2267,-0.1663,0.0,0.0,0.0,0.0,0.0,0.1314,0.1717,0.3274,0.4776,0.6229,0.7587,0.7988,0.7988,0.7988,0.7988,0.7988,0.7988,0.7988,0.7988,0.7988,0.7988,0.7988,0.7988,0.8513,0.9028,0.9354,1.1764,1.3815,1.404,1.6074,1.7582,1.7582,1.7582,1.7582,1.7582,1.7582,1.7582,1.7582,1.7582,1.7582,1.7582,1.7582,1.7582,1.7582,1.7582,1.7094,1.5914,1.5016,1.4264,1.3617,1.2617,1.189,1.1323,1.056,0.9965,0.9579,0.9579,0.9579,0.9575,0.9559,0.9466,0.9384,0.9096,0.893,0.8812,0.8751,0.8731,0.8751,0.893,0.9068,0.915,0.0,0.0,0.0,0.0,0.0,0.0,0.0,0.0,0.0,0.0,0.0,0.0,0.0,0.0,0.0,0.0,0.0,0.0,0.0,0.0,0.0,-0.6842,-0.5834,-0.5131,-0.4834,-0.3827,-0.3274,-0.3224,-0.2167,-0.1663,-0.1664,-0.0656,-0.0151,-0.0151,-0.0151,-0.0706,-0.1664,-0.1765,-0.2368,-0.3274,-0.3324,-0.3374,-0.3374,-0.3324,0.0,0.0,0.0,0.0,0.0,0.0,0.1263,0.1766,0.4073,0.6279,0.7988,0.7988,0.7988,0.7988,0.7988,0.7988,0.7988,0.7988,0.7988,0.7988,0.7988,0.7988,0.7988,0.7988,0.8369,0.8834,0.9302,1.1611,1.3562,1.4046,1.6074,1.7582,1.7582,1.7582,1.7582,1.7582,1.7582,1.7582,1.7582,1.7582,1.7582,1.7582,1.7582,1.7582,1.7582,1.7582,1.7094,1.6003,1.5596,1.4809,1.358,1.3245,1.2464,1.1365,1.1317,1.0739,0.9673,0.9673,0.9673,0.9616,0.9433,0.94,0.9363,0.8962,0.8816,0.8792,0.8629,0.8612,0.8629,0.8747,0.8812,0.8823,0.0,0.0,0.0,0.0,0.0,0.0,0.0,0.0,0.0,0.0,0.0,0.0,0.0,0.0,0.0,0.0,0.0,0.0,0.0,0.0,0.0,0.0,0.0,0.0,0.0,0.0,0.0,0.0,0.0,-0.2771,-0.2771,-0.2519,-0.2368,-0.2368,-0.2368,-0.2519,-0.2821,-0.3626,-0.413,-0.4481,0.0,-0.5582,-0.5482,0.0,0.0,0.0,0.0,0.0,0.0,0.0202,0.1915,0.372,0.4524,0.6279,0.7988,0.7988,0.7988,0.7988,0.7988,0.7988,0.7988,0.7988,0.7988,0.7988,0.7988,0.7988,0.7988,0.7988,0.8449,0.896,0.9324,1.1725,1.3741,1.4073,1.6074,1.7582,1.7582,1.7582,1.7582,1.7582,1.7582,1.7582,1.7582,1.7582,1.7582,1.7582,1.7582,1.7582,1.7582,1.7582,1.7377,1.6892,1.5921,1.545,1.5536,1.4479,1.3827,1.3516,1.2684,1.1755,1.0788,1.0788,1.035,0.9616,0.9433,0.9331,0.9145,0.8913,0.8747,0.8629,0.8629,0.8612,0.8616,0.8617,0.8714,0.8787,0.0,0.0,0.0,0.0,0.0,0.0,0.0,0.0,0.0,0.0,0.0,0.0,0.0,0.0,0.0,0.0,0.0,0.0,0.0,0.0,0.0,0.0,0.0,0.0,0.0,0.0,0.0,0.0,0.0,0.0,0.0,-0.3473,-0.3224,-0.3224,-0.3224,-0.3475,-0.3927,-0.4533,0.0,0.0,0.0,0.0,0.0,0.0,0.0,0.0,0.0,0.0,0.0,-0.005,0.1864,0.382,0.4574,0.5929,0.7388,0.7839,0.7988,0.7988,0.7988,0.7988,0.7988,0.7988,0.7988,0.7988,0.7988,0.7988,0.7988,0.7988,0.8326,0.8772,0.9317,1.1164,1.2993,1.3954,1.5642,1.7041,1.7529,1.7582,1.7582,1.7582,1.7582,1.7582,1.7582,1.7582,1.7582,1.7582,1.7582,1.7582,1.7582,1.7514,1.7373,1.7206,1.6272,1.5881,1.6086,1.5332,1.4729,1.4298,1.3709,1.2877,1.1853,1.1853,1.1463,1.0748,1.0161,1.0012,1.0136,0.9535,0.9482,0.9733,0.9345,0.9432,0.9733,0.9301,0.9499,0.9895,0.0,0.0,0.0,0.0,0.0,0.0,0.0,0.0,0.0,0.0,-1.6356,-1.6235,0.0,0.0,0.0,0.0,0.0,0.0,0.0,0.0,0.0,0.0,0.0,0.0,0.0,0.0,0.0,0.0,0.0,0.0,0.0,0.0,0.0,0.0,0.0,0.0,0.0,0.0,0.0,0.0,0.0,0.0,0.0,0.0,0.0,0.0,0.0,0.0,0.0,0.0,0.1462,0.297,0.4173,0.5277,0.6384,0.7285,0.7686,0.7789,0.7789,0.7889,0.7988,0.7988,0.7988,0.7988,0.7988,0.7988,0.7988,0.7988,0.8163,0.8515,0.922,1.0432,1.1887,1.3784,1.5085,1.6287,1.7424,1.7582,1.7582,1.7582,1.7582,1.7582,1.7582,1.7582,1.7582,1.7582,1.7549,1.7522,1.7522,1.734,1.7166,1.7085,1.6549,1.6092,1.5784,1.5784,1.535,1.449,1.449,1.395,1.292,1.2887,1.2666,1.2225,1.1169,1.1041,1.1517,1.0503,1.0549,1.1235,1.0419,1.0593,1.1198,1.0376,1.0593,1.1284,0.0,0.0,0.0,0.0,0.0,0.0,0.0,0.0,0.0,0.0,-1.6761,-1.6531,0.0,0.0,0.0,0.0,0.0,0.0,0.0,0.0,0.0,0.0,0.0,0.0,0.0,0.0,0.0,0.0,-0.6986,0.0,0.0,0.0,0.0,0.0,0.0,0.0,0.0,0.0,0.0,0.0,0.0,0.0,0.0,0.0,0.0,0.0,0.0,0.0,0.0,0.0,0.1311,0.2567,0.302,0.4022,0.5127,0.5325,0.5979,0.6686,0.6686,0.7338,0.7988,0.7988,0.7988,0.7988,0.7988,0.7988,0.7988,0.7988,0.8163,0.8484,0.9068,1.0345,1.1894,1.3636,1.5029,1.6287,1.7424,1.7582,1.7582,1.7582,1.7582,1.7582,1.7582,1.7582,1.7582,1.7582,1.7414,1.728,1.728,1.7233,1.6978,1.6489,1.6086,1.5879,1.5784,1.5784,1.573,1.554,1.554,1.5016,1.3992,1.3761,1.3115,1.2261,1.1687,1.1481,1.1556,1.1201,1.1149,1.1278,1.1106,1.1154,1.1284,1.1106,1.1154,1.1284,0.0,0.0,0.0,0.0,0.0,0.0,0.0,-1.7485,-1.7436,-1.731,-1.7189,-1.6954,-1.6555,-1.6507,-1.5664,0.0,0.0,0.0,0.0,0.0,0.0,0.0,0.0,0.0,0.0,-0.7958,-0.7868,-0.764,0.0,-0.7391,-0.7391,-0.7288,-0.7188,-0.7188,-0.7188,-0.7138,0.0,0.0,0.0,0.0,0.0,0.0,0.0,0.0,0.0,0.0,0.0,0.0,0.0,0.0,0.0707,0.1512,0.2518,0.3221,0.3872,0.4574,0.5177,0.5679,0.6234,0.6786,0.7288,0.7839,0.7988,0.7988,0.7988,0.7988,0.7988,0.7988,0.8099,0.8325,0.8962,0.974,1.1089,1.3514,1.4523,1.5589,1.7364,1.7582,1.7582,1.7582,1.7582,1.7582,1.7582,1.7582,1.7522,1.742,1.728,1.7199,1.7199,1.6911,1.6543,1.6052,1.5905,1.5784,1.5784,1.5784,1.5784,1.5784,1.5784,1.5461,1.4888,1.4695,1.4197,1.342,1.2711,1.2575,1.288,1.2275,1.2314,1.2705,1.2229,1.2314,1.2705,1.2229,1.2357,1.2747,0.0,0.0,0.0,0.0,0.0,0.0,-1.7485,-1.7485,-1.7426,-1.7126,-1.7067,-1.685,-1.6103,-1.6476,-1.5817,0.0,0.0,0.0,0.0,0.0,0.0,0.0,0.0,0.0,0.0,0.0,0.0,-0.8039,-0.7842,0.0,0.0,0.0,0.0,0.0,-0.7388,-0.7338,-0.7288,-0.7045,0.0,0.0,0.0,-0.6437,0.0,0.0,0.0,0.0,0.0,0.0,0.0,0.0,0.0152,0.0555,0.1865,0.2367,0.2669,0.3723,0.4225,0.4626,0.5482,0.5882,0.6334,0.7388,0.7637,0.7739,0.7939,0.7988,0.7988,0.7988,0.7988,0.8225,0.8899,0.9215,1.026,1.3007,1.3811,1.4773,1.6929,1.7477,1.7582,1.7582,1.7582,1.7582,1.7582,1.7522,1.7447,1.7219,1.7085,1.7012,1.7012,1.6509,1.6072,1.5791,1.5784,1.5784,1.5784,1.5784,1.5784,1.5784,1.5718,1.5618,1.5391,1.5264,1.4957,1.4472,1.3654,1.3595,1.4046,1.3307,1.344,1.4046,1.3307,1.344,1.4004,1.3264,1.3483,1.4088,0.0,0.0,0.0,0.0,0.0,0.0,-1.7485,-1.7485,-1.7062,-1.593,-1.5752,-1.5316,-1.4089,-1.5845,-1.6429,0.0,0.0,0.0,0.0,0.0,0.0,0.0,0.0,0.0,0.0,0.0,0.0,-0.8248,-0.8252,0.0,0.0,0.0,0.0,0.0,0.0,-0.7793,-0.7547,-0.7547,0.0,0.0,0.0,0.0,0.0,0.0,0.0,0.0,0.0,-0.2569,-0.1563,0.0,0.0,0.0101,0.0505,0.0959,0.1364,0.1515,0.237,0.3374,0.3473,0.4225,0.5227,0.6284,0.6537,0.6786,0.7789,0.7988,0.7988,0.7988,0.7988,0.8191,0.8748,0.8985,0.9764,1.1742,1.3101,1.4434,1.5825,1.6935,1.7582,1.7582,1.7582,1.7582,1.7582,1.7393,1.7233,1.7206,1.6703,1.6402,1.6402,1.6046,1.5811,1.5784,1.5784,1.5784,1.5784,1.5784,1.5784,1.5778,1.5565,1.5424,1.5378,1.4843,1.4569,1.4459,1.415,1.4024,1.4088,1.4004,1.3997,1.4088,1.4004,1.3997,1.4088,1.4004,1.4046,1.4088,0.0,0.0,0.0,0.0,0.0,0.0,-1.7485,-1.7485,-1.7062,-1.5752,-1.5575,-1.5095,-1.3844,-1.4484,-1.4455,-1.2959,0.0,0.0,0.0,0.0,0.0,0.0,0.0,0.0,0.0,0.0,-0.8547,-0.8397,-0.8397,0.0,0.0,0.0,0.0,0.0,0.0,-0.813,-0.8022,-0.7735,0.0,0.0,0.0,0.0,0.0,0.0,0.0,0.0,0.0,0.0,-0.2318,-0.0555,0.0,0.0,0.0101,0.0404,0.0,0.1111,0.1565,0.2169,0.2972,0.3524,0.4074,0.5177,0.5427,0.5729,0.6786,0.7036,0.7238,0.7889,0.7988,0.8187,0.8726,0.8963,0.9654,1.1452,1.2931,1.4253,1.5351,1.6581,1.7255,1.7074,1.7054,1.7054,1.7054,1.6954,1.6814,1.6683,1.6239,1.6005,1.6005,1.5892,1.5784,1.5784,1.5784,1.5784,1.5784,1.5784,1.5745,1.5565,1.5451,1.5211,1.4856,1.4623,1.4429,1.4255,1.4135,1.4088,1.4088,1.4088,1.4088,1.4088,1.4088,1.4088,1.4088,1.4088,1.4088,1.4088,0.0,0.0,0.0,0.0,0.0,-1.7485,-1.7485,-1.7179,-1.6467,-1.5213,-1.4674,-1.3959,-1.2702,-1.2526,-1.2111,-1.1098,-1.1215,0.0,0.0,0.0,0.0,0.0,0.0,0.0,0.0,0.0,-0.8703,-0.855,-0.855,-0.8526,0.0,0.0,-0.8482,-0.8479,0.0,0.0,0.0,0.0,0.0,0.0,0.0,0.0,0.0,0.0,0.0,0.0,0.0,0.0,0.0,0.0,0.0,0.0,0.0,0.0,0.0,0.0,0.1061,0.1414,0.2369,0.2671,0.2973,0.4074,0.4574,0.5074,0.6134,0.6637,0.7086,0.7839,0.7988,0.8187,0.8726,0.8922,0.947,0.0,0.0,1.3916,1.4587,1.6062,1.6941,1.6734,1.6707,1.6707,1.6707,1.6627,1.6453,1.6166,1.5945,1.5784,1.5784,1.5784,1.5784,1.5784,1.5784,1.5744,1.5705,1.5705,1.5558,1.5264,1.5177,1.4923,1.4516,1.4429,1.4282,1.4088,1.4088,1.4088,1.4088,1.4088,1.4088,1.4088,1.4088,1.4088,1.4088,1.4088,1.4088,1.4088,0.0,0.0,0.0,0.0,0.0,0.0,-1.7485,-1.6408,-1.5154,-1.3904,-1.2586,-1.1269,-1.0001,-0.9822,-0.9819,-0.9819,-1.0867,0.0,0.0,0.0,0.0,0.0,0.0,0.0,0.0,0.0,-0.8807,-0.871,-0.871,-0.8632,-0.8482,-0.8482,-0.8482,-0.8482,0.0,0.0,0.0,0.0,0.0,0.0,0.0,0.0,0.0,0.0,0.0,0.0,0.0,0.0,0.0,0.0,0.0,0.0,0.0,0.0,0.0051,0.0,0.0808,0.1212,0.1212,0.1415,0.1869,0.2973,0.4024,0.5074,0.6134,0.7238,0.7988,0.7988,0.7988,0.8187,0.8726,0.8825,0.903,0.9805,1.1793,0.0,1.341,1.5329,1.6707,1.6707,1.6707,1.6707,1.6707,1.6446,1.6152,1.5804,1.5784,1.5784,1.5784,1.5784,1.5784,1.5784,1.5784,1.5691,1.5404,1.5398,1.5257,1.5008,1.4669,1.4529,1.4509,1.4222,1.4088,1.4088,1.4088,1.4088,1.4088,1.4088,1.4088,1.4088,1.4088,1.4088,1.4088,1.4088,1.4088,1.4088,0.0,0.0,0.0,0.0,0.0,0.0,-1.6349,-1.5871,-1.4798,-1.2651,-1.1929,-1.1209,-0.994,-0.9822,-0.9822,-0.9822,-1.0046,0.0,0.0,0.0,0.0,0.0,0.0,0.0,0.0,-0.8885,-0.8858,-0.8811,-0.8811,-0.8842,-0.8794,-0.8794,-0.8794,-0.8791,-0.8682,-0.8638,0.0,0.0,0.0,0.0,0.0,0.0,-0.5233,0.0,0.0,0.0,0.0,0.0,0.0,0.0,0.0,0.0,0.0,0.0,0.0,0.0101,0.0354,0.0758,0.1111,0.1263,0.1465,0.1969,0.2371,0.3074,0.4876,0.5577,0.6229,0.7686,0.7988,0.8187,0.8726,0.8825,0.8992,0.9598,1.1691,1.3154,1.2969,1.4937,1.6333,1.6132,1.6057,1.6154,1.636,1.6272,1.6184,1.6082,1.6076,1.5981,1.5832,1.5645,1.5531,1.5531,1.5531,1.5391,1.5149,1.5149,1.4957,1.4663,1.4563,1.4416,1.4222,1.4128,1.4088,1.4088,1.4088,1.4088,1.4088,1.4088,1.4088,1.4088,1.4088,1.4088,1.4088,1.4088,1.4088,1.4088,0.0,0.0,0.0,0.0,0.0,0.0,-1.5693,-1.4733,-1.3545,-1.1933,-1.1269,-1.0664,-0.9879,-0.9822,-0.9822,-0.9822,-0.9741,0.0,0.0,0.0,0.0,0.0,0.0,0.0,-0.8885,-0.8885,-0.8885,-0.8885,-0.8885,-0.8885,-0.8885,-0.8885,-0.8885,-0.8878,-0.8838,-0.8798,0.0,0.0,0.0,0.0,0.0,0.0,-0.413,0.0,0.0,0.0,0.0,0.0,0.0,0.0,0.0,0.0,0.0,0.0,0.0,0.0,0.0101,0.0354,0.0909,0.1111,0.1263,0.1516,0.222,0.3173,0.4474,0.5425,0.6379,0.7736,0.7988,0.8187,0.8726,0.8825,0.8973,0.9525,1.1535,1.2948,1.2748,1.4667,1.6039,1.5804,1.5879,1.6028,1.617,1.6224,1.6224,1.6224,1.6123,1.5974,1.5765,1.5584,1.5435,1.5212,1.5223,1.5142,1.4936,1.4841,1.4649,1.4355,1.4355,1.4262,1.4088,1.4088,1.4088,1.4088,1.4088,1.4088,0.0,1.4088,1.4088,1.4088,1.4088,1.4088,1.4088,1.4088,1.4088,1.4088,0.0,0.0,0.0,0.0,0.0,0.0,0.0,-1.3246,-1.1692,-1.1571,-1.0547,-0.9822,-0.9822,-0.9822,-0.9822,-0.9822,-0.9812,0.0,0.0,0.0,0.0,0.0,0.0,0.0,-0.8885,-0.8885,-0.8885,-0.8885,-0.8885,-0.8885,-0.8885,-0.8885,-0.8885,-0.8885,-0.8885,-0.8826,0.0,0.0,0.0,0.0,-0.3649,-0.3072,0.0,0.0,0.0,0.0,0.0,0.0,0.0,0.0,0.0,0.0,0.0,0.0,0.0,0.0,0.0,0.0,0.0,0.096,0.1263,0.1516,0.3173,0.4724,0.4774,0.6379,0.0,0.7988,0.8041,0.8187,0.8726,0.8825,0.8977,0.9525,1.1277,1.263,1.2678,1.4472,1.5832,1.5832,1.6028,1.6224,1.6224,1.6224,1.6218,1.619,1.594,1.5765,1.5661,1.5672,1.5451,1.4941,1.4947,1.4902,1.485,1.4583,1.4355,1.4088,1.4088,1.4088,1.4088,1.4088,1.4088,1.4088,1.4088,1.4088,1.4088,1.4088,1.4088,1.4088,1.4088,1.4088,1.4088,1.4088,1.4088,1.4088,0.0,0.0,0.0,0.0,0.0,0.0,0.0,0.0,0.0,0.0,-1.0001,-0.9822,-0.9822,-0.9822,-0.9822,0.0,0.0,0.0,0.0,0.0,0.0,0.0,0.0,0.0,-0.8885,-0.8885,-0.8885,-0.8885,-0.8885,-0.8885,-0.8885,-0.8885,-0.8885,-0.8885,-0.8885,-0.8152,0.0,0.0,0.0,0.0,-0.2608,-0.205,0.0,0.0,0.0,0.0,-0.0353,-0.0202,0.0,0.0,0.0,0.0,0.0,0.0,0.0,0.0,0.0,0.0101,0.0657,0.0,0.101,0.1465,0.2572,0.3775,0.0,0.5829,0.6986,0.7839,0.0,0.8382,0.8726,0.8977,0.9232,0.9529,1.0694,1.1804,1.2581,1.4472,1.5879,1.6076,1.6177,1.6265,1.6494,1.6494,1.6357,1.5903,1.5961,1.5824,1.54,1.5331,1.5269,1.5123,1.4742,1.4462,1.428,1.4231,1.4155,1.4088,1.4088,1.4088,1.4088,1.4088,1.4088,1.4088,1.4088,1.4088,1.4088,1.4088,1.4088,1.4088,1.4088,1.4088,1.4088,1.4088,1.4088,1.4088,0.0,0.0,0.0,0.0,0.0,0.0,0.0,0.0,0.0,0.0,-0.9822,-0.9822,-0.9822,-0.9822,-0.9822,0.0,0.0,0.0,0.0,0.0,0.0,0.0,0.0,-0.8885,-0.8885,-0.8885,-0.8885,-0.8885,-0.8885,-0.8885,-0.8885,-0.8885,-0.8885,-0.8881,-0.8211,-0.698,-0.5355,-0.3841,-0.2968,-0.2546,-0.141,0.0,0.0,0.0,0.0,0.0,0.0,0.0,0.0,0.0,0.0,0.0,0.0,0.0,0.0,0.0,0.0,0.0101,0.0657,0.0808,0.0909,0.1465,0.2772,0.4074,0.4674,0.0,0.0,0.0,0.0,0.0,0.8775,0.9031,0.9286,0.9579,1.089,1.2387,1.389,1.5105,1.5832,1.5981,1.6211,1.6447,1.6588,1.6556,1.6455,1.6155,1.5948,1.5732,1.5388,1.5344,1.5269,1.517,1.474,1.444,1.4243,1.4166,1.4088,1.4088,1.4088,1.4088,1.4088,1.4088,1.4088,1.4088,1.4088,1.4088,1.4088,1.4088,1.4088,1.4088,1.4088,1.4088,1.4088,1.4088,1.4088,1.4088,0.0,0.0,0.0,0.0,0.0,0.0,0.0,0.0,0.0,0.0,0.0,0.0,0.0,0.0,0.0,0.0,0.0,0.0,0.0,0.0,0.0,0.0,-0.883,-0.8885,-0.8885,-0.8885,-0.8885,-0.8885,-0.8885,-0.8885,-0.8881,-0.8716,-0.8491,-0.8208,-0.6755,-0.5355,-0.406,-0.2519,-0.1722,-0.1428,-0.0416,0.0,0.0,0.0,0.0,0.0,0.0,0.0,0.0,0.0,0.0,0.0,0.0,0.0,0.0,0.0,0.0,0.0,0.0657,0.0808,0.096,0.1465,0.3224,0.4824,0.4824,0.0,0.0,0.0,0.0,0.0,0.0,0.908,0.9335,0.9579,1.1326,1.3409,1.5343,1.5778,1.5879,1.5974,1.64,1.6615,1.6565,1.6519,1.6464,1.6318,1.5876,1.5542,1.5455,1.5483,1.5362,1.5097,1.4873,1.465,1.444,1.4243,1.4166,1.4208,1.4166,1.4166,1.4124,1.413,1.4088,1.4088,1.4088,1.4088,1.4088,1.4088,1.4088,1.4088,1.4088,1.4088,1.4088,1.4088,1.4088,1.4088,0.0,0.0,0.0,0.0,0.0,0.0,0.0,0.0,0.0,0.0,0.0,0.0,0.0,0.0,0.0,0.0,0.0,0.0,0.0,0.0,0.0,-0.8159,-0.8605,-0.8885,-0.8885,-0.8885,-0.8885,-0.8885,-0.8885,-0.8885,-0.8881,-0.7878,-0.6702,-0.5468,-0.3965,-0.3051,-0.2462,-0.097,-0.0318,-0.026,-0.0051,0.0,0.0,0.0,0.0,0.0,0.0,0.0,0.0,0.0,0.0,0.0,0.0,0.0,0.0,0.0,0.0,0.0,0.0707,0.096,0.1212,0.1516,0.3224,0.4824,0.4824,0.0,0.0,0.0,0.0,0.0,0.0,0.9381,0.9529,0.9579,1.1326,1.321,1.4657,1.5588,1.6312,1.6744,1.6885,1.6825,1.6554,1.6535,1.6188,1.5472,1.5474,1.5397,1.5175,1.5329,1.5307,1.509,1.5048,1.4915,1.465,1.444,1.444,1.4615,1.444,1.4356,1.4356,1.4166,1.4088,1.4088,1.4088,1.4088,1.4088,1.4088,1.4088,1.4088,1.4088,1.4088,1.4088,1.4088,1.4088,1.4088,0.0,0.0,0.0,0.0,0.0,0.0,0.0,0.0,0.0,0.0,0.0,0.0,0.0,0.0,0.0,0.0,0.0,0.0,0.0,0.0,-0.8065,-0.7992,-0.8269,-0.8491,-0.8657,-0.8712,-0.8768,-0.8885,-0.8097,-0.7706,-0.7706,-0.6313,-0.5083,-0.3908,-0.288,-0.198,-0.1146,-0.0372,0.0,0.0,0.0,0.0,0.0,0.0,0.0,0.0,0.0,0.0,0.0,0.0,0.0,0.0,0.0,0.0,0.0,0.0,0.0,0.0,0.0707,0.101,0.1414,0.227,0.3624,0.4974,0.5529,0.6983,0.0,0.0,0.0,0.0,0.0,0.943,0.9965,1.1082,1.2538,1.404,1.5343,1.5933,1.6304,1.6504,1.6622,1.66,1.6278,1.6188,1.6009,1.5627,1.549,1.5374,1.5271,1.5347,1.5347,1.5257,1.5173,1.509,1.5082,1.4873,1.4741,1.4692,1.4482,1.4398,1.4391,1.4208,1.4088,1.4088,1.4088,1.4088,1.4088,1.4088,1.4088,1.4088,1.4088,1.4088,1.4088,1.4088,1.4088,1.4088,0.0,0.0,0.0,0.0,0.0,0.0,0.0,0.0,0.0,0.0,0.0,0.0,0.0,0.0,0.0,0.0,0.0,0.0,0.0,-0.809,-0.7963,-0.7829,-0.7878,-0.8045,-0.8374,-0.8374,-0.8374,-0.8266,-0.7146,-0.6308,-0.575,-0.4582,-0.3522,-0.246,-0.1981,-0.1254,-0.0272,-0.0105,0.0,0.0,0.0,0.0,0.0,0.0,0.0,0.0,0.0,0.0,0.0,0.0,0.0,0.0,0.0,0.0,0.0,0.0,0.0253,0.0556,0.0758,0.1061,0.1615,0.2871,0.4024,0.5077,0.6234,0.7481,0.0,0.0,0.0,0.0,0.9286,0.9673,1.0547,1.2393,1.3607,1.4777,1.6123,1.6312,1.6289,1.6292,1.6447,1.644,1.6,1.5922,1.5884,1.5804,1.5528,1.5389,1.5389,1.5389,1.5389,1.5389,1.5257,1.5257,1.5389,1.5257,1.5082,1.4866,1.465,1.4524,1.4482,1.4243,1.4124,1.4088,1.4088,1.4088,1.4088,1.4088,1.4088,1.4088,1.4088,1.4088,1.4088,1.4088,1.4088,1.4088,0.0,0.0,0.0,0.0,0.0,0.0,0.0,0.0,0.0,0.0,0.0,0.0,0.0,0.0,0.0,0.0,0.0,0.0,0.0,-0.7631,-0.7339,-0.7271,-0.7493,-0.7771,-0.8045,-0.8045,-0.7537,-0.6475,-0.6362,-0.5192,-0.2962,-0.2907,-0.2014,-0.0616,-0.0551,-0.0326,-0.0053,0.0,0.0,0.0,0.0,0.0,0.0,0.0,0.0,0.0,0.0,0.0,0.0,0.0,0.0,0.0,0.0,0.0,0.0,0.0,0.0354,0.0758,0.0808,0.1162,0.1818,0.2923,0.4024,0.5125,0.6478,0.763,0.0,0.9034,0.0,0.9282,0.9529,1.04,1.1414,1.2533,1.3607,1.4825,1.6346,1.6581,1.6657,1.6803,1.6857,1.6616,1.5965,1.5885,1.5789,1.5447,1.5396,1.5389,1.5389,1.5389,1.5389,1.5389,1.5389,1.5389,1.5389,1.5389,1.5389,1.5347,1.5131,1.4915,1.465,1.4482,1.4279,1.4088,1.4088,1.4088,1.4088,1.4088,1.4088,1.4088,1.4088,1.4088,1.4088,1.4088,1.4088,1.4088,0.0,0.0,0.0,0.0,0.0,0.0,0.0,0.0,0.0,0.0,0.0,0.0,0.0,0.0,0.0,0.0,0.0,0.0,0.0,-0.7533,-0.7361,-0.7218,-0.7324,-0.7043,-0.6374,-0.6538,-0.6533,-0.6306,-0.4576,-0.3017,-0.1568,-0.1176,-0.078,-0.0387,-0.0217,-0.0107,0.0,0.0,0.0,0.0,0.0,0.0,0.0,0.0,0.0,0.0,0.0,0.0,0.0,0.0,0.0,0.0,0.0,0.0,0.0,0.0,0.0404,0.081,0.0871,0.1234,0.1901,0.2974,0.4045,0.0,0.0,0.7776,0.8779,0.9133,0.9335,0.948,0.9579,1.0984,1.2242,1.2635,1.4238,1.5737,1.6487,1.673,1.685,1.6894,1.6719,1.6426,1.5957,1.5688,1.552,1.5396,1.5389,1.5389,1.5389,1.5389,1.5665,1.618,1.6221,1.6468,1.6992,1.7033,1.7033,1.7,1.627,1.5858,1.5733,1.5511,1.5345,1.5228,1.4566,1.4279,1.4279,1.4166,1.4088,1.4088,1.4088,1.4088,1.4088,1.4088,1.4088,1.4088,0.0,0.0,0.0,0.0,0.0,0.0,0.0,0.0,0.0,0.0,0.0,0.0,0.0,0.0,0.0,0.0,0.0,0.0,-0.7535,-0.7519,-0.7237,-0.6662,-0.6652,-0.6096,-0.4868,-0.4641,-0.4637,-0.4858,-0.2626,-0.1176,-0.0617,-0.0167,-0.0111,-0.0274,-0.0107,0.0,0.0,0.0,0.0,0.0,0.0,0.0,0.0,0.0,0.0,0.0,0.0,0.0,0.0,0.0,0.0,0.0,0.0,0.0,0.0,0.0101,0.0455,0.0812,0.0982,0.1345,0.1907,0.3052,0.0,0.0,0.6595,0.7875,0.8874,0.9232,0.948,0.9579,0.9579,1.1277,1.2727,1.2829,1.4717,1.6319,1.669,1.6878,1.6998,1.6894,1.6705,1.6448,1.6089,1.5767,1.5542,1.5542,1.5447,1.5506,1.579,1.5824,1.6221,1.7058,1.7107,1.7391,1.7997,1.7997,1.7997,1.7997,1.7521,1.7164,1.6788,1.6617,1.6486,1.6363,1.5579,1.5213,1.5213,1.4985,1.4741,1.4496,1.4496,1.4334,1.4088,1.4088,1.4088,1.4088,0.0,0.0,0.0,0.0,0.0,0.0,0.0,0.0,-0.9275,-0.9275,-0.9034,0.0,0.0,0.0,0.0,0.0,0.0,0.0,-0.7476,-0.7458,-0.6832,-0.5435,-0.5371,-0.481,-0.3636,-0.2407,-0.1791,-0.1791,-0.056,0.0,0.0,0.0,0.0,0.0,0.0,0.0,0.0,0.0,0.0,0.0,0.0,0.0,0.0,0.0,0.0,0.0,0.0,0.0,0.0,0.0,0.0,0.0,0.0,0.0,0.0051,0.0303,0.0606,0.0862,0.1189,0.1435,0.1877,0.2992,0.0,0.0,0.6822,0.8024,0.8973,0.9476,0.9579,0.9579,0.9579,1.1277,1.278,1.3071,1.486,1.6414,1.6932,1.6979,1.6998,1.6901,1.6903,1.6778,1.6448,1.6096,1.5921,1.5921,1.5621,1.579,1.6665,1.6698,1.7107,1.7997,1.7997,1.8037,1.8037,1.8037,1.8037,1.8037,1.8895,1.8767,1.7738,1.7738,1.7577,1.7302,1.7082,1.7001,1.7001,1.6772,1.6206,1.5394,1.5394,1.4866,1.413,1.413,1.413,1.413,0.0,0.0,0.0,0.0,0.0,0.0,0.0,0.0,-0.9156,-0.8732,-0.8613,0.0,0.0,0.0,0.0,0.0,0.0,0.0,-0.623,-0.5404,-0.4692,-0.4143,-0.4139,-0.358,-0.2351,-0.1176,-0.056,-0.056,-0.0168,0.0,0.0,0.0,0.0,0.0,0.0,0.0,0.0,0.0,0.0,0.0,0.0,0.0,0.0,0.0,0.0,0.0,0.0,0.0,0.0,0.0,0.0,0.0,0.0,0.0,0.0051,0.0303,0.0606,0.0864,0.1206,0.2033,0.2891,0.3206,0.4681,0.0,0.0,0.8024,0.0,0.0,0.9579,0.9579,0.9579,1.1473,1.3022,1.3071,1.5146,1.6838,1.6979,1.7113,1.721,1.7201,1.6989,1.6866,1.6763,1.6463,1.6534,1.7207,1.6897,1.7072,1.797,1.7768,1.7997,1.8895,1.8895,1.9213,1.9805,1.9844,1.9844,1.9835,2.0089,1.9726,1.8847,1.8847,1.8767,1.8647,1.7868,1.7374,1.7172,1.6854,1.6535,1.6288,1.6288,1.6165,1.5842,1.5228,1.5026,1.495,0.0,0.0,0.0,0.0,0.0,0.0,0.0,0.0,-0.8793,-0.843,-0.8305,-0.8119,0.0,0.0,0.0,0.0,0.0,0.0,-0.4938,-0.4224,-0.3531,-0.2912,-0.291,-0.2295,-0.112,-0.0392,0.0,0.0,0.0,0.0,0.0,0.0,0.0,0.0,0.0,0.0,0.0,0.0,0.0,0.0,0.0,0.0051,0.0152,0.0,0.0,0.0,0.0,0.0,0.0,0.0,0.0,0.0,0.0,0.0,0.0051,0.0455,0.0657,0.0915,0.136,0.2339,0.3344,0.3822,0.5184,0.6726,0.7643,0.8524,0.9225,0.9529,0.9579,0.9579,0.9579,1.1521,1.3119,1.3258,1.5378,1.7026,1.7113,1.7239,1.7279,1.7279,1.7157,1.7224,1.7629,1.7205,1.7319,1.8251,1.7835,1.792,1.883,1.8651,1.8935,1.9775,1.9814,2.005,2.0605,2.0605,2.0605,2.0605,2.0605,2.0323,1.9814,1.9814,1.9814,1.9775,1.8957,1.8439,1.8198,1.7876,1.7513,1.7229,1.7229,1.6984,1.6576,1.5718,1.5394,1.5276,0.0,0.0,-0.9822,-0.9822,0.0,0.0,0.0,0.0,-0.8369,-0.8369,-0.8119,-0.7869,0.0,0.0,0.0,0.0,0.0,-0.3696,-0.364,-0.3523,-0.29,-0.1681,-0.1623,-0.112,0.0,0.0,0.0,0.0,0.0,0.0,0.0,0.0,0.0,0.0,0.0,0.0,0.0,0.0,0.0,0.0051,0.0151,0.0353,0.0555,0.0303,0.0,0.0,0.0,0.0,0.0,0.0,0.0,0.0,0.0,0.0,0.0152,0.0657,0.0808,0.0964,0.155,0.2507,0.3591,0.4631,0.5759,0.6983,0.8478,0.9225,0.9579,0.9579,0.9579,0.9579,0.9579,1.1521,1.321,1.344,1.5466,1.7113,1.7286,1.7279,1.7279,1.7279,1.7372,1.777,1.8656,1.8213,1.8257,1.9162,1.8575,1.854,1.9436,1.9439,1.9775,2.0566,2.0605,2.0605,2.0605,2.0605,2.0605,2.0605,2.0605,2.0605,2.0605,2.0605,2.0605,2.0566,2.0137,1.9833,1.9597,1.9429,1.8856,1.8118,1.8118,1.7634,1.6821,1.5966,1.5636,1.5519,0.0,0.0,-0.9822,-0.9822,0.0,0.0,0.0,0.0,0.0,-0.8058,0.0,0.0,0.0,0.0,0.0,0.0,-0.3159,-0.2407,-0.2368,-0.1421,-0.0675,-0.0392,-0.0392,-0.028,0.0,0.0,0.0,0.0,0.0,0.0,0.0,0.0,0.0,0.0,0.0,0.0,0.0,0.0,0.0101,0.0404,0.121,0.1712,0.1964,0.1913,0.1913,0.0,0.0,0.0,0.0,0.0,0.0,0.0,0.0051,0.0152,0.0354,0.0707,0.096,0.1217,0.1602,0.3067,0.4545,0.4836,0.6617,0.8375,0.8722,0.9225,0.9579,0.9579,0.9579,0.9579,0.9579,1.1707,1.344,1.3482,1.5602,1.7239,1.7279,1.7279,1.7279,1.7279,1.801,1.8455,1.8324,1.8863,1.9444,2.009,1.9673,1.9819,2.0724,2.0477,2.0401,2.0605,2.0605,2.0605,2.0605,2.0605,2.0605,2.0605,2.0605,2.0605,2.0605,2.0605,2.0605,2.0605,2.0342,2.0069,1.9824,1.9636,1.935,1.9015,1.9015,1.8895,1.8647,1.7755,1.7432,1.7229,0.0,0.0,0.0,0.0,0.0,0.0,0.0,0.0,0.0,0.0,0.0,0.0,0.0,0.0,0.0,0.0,-0.1768,-0.1043,-0.1035,-0.0396,0.0,0.0,0.0,0.0,0.0,0.0,0.0,0.0,0.0,0.0,0.0,0.0,0.0,0.0,0.0,0.0,0.0051,0.0706,0.1058,0.126,0.2465,0.3116,0.3367,0.3217,0.3267,0.3218,0.2016,0.0,0.0,0.0,0.0,0.0,0.0,0.0,0.0657,0.0909,0.1111,0.1367,0.2196,0.3601,0.5037,0.6101,0.7582,0.8825,0.8825,0.9225,0.9579,0.9579,0.9579,0.9628,0.9776,1.1799,1.353,1.368,1.5738,1.7279,1.7279,1.7279,1.7274,1.7121,1.7964,1.8542,1.8622,1.9264,2.0018,2.0733,2.0419,2.0383,2.0878,2.0693,2.0605,2.0605,2.0605,2.0605,2.0605,2.0605,2.0605,2.0605,2.0605,2.0605,2.0605,2.0605,2.0605,2.0605,2.0381,2.0147,1.9863,1.9676,1.9478,1.9301,1.9301,1.9301,1.9183,1.8318,1.7997,1.7796,0.0,0.0,0.0,0.0,0.0,0.0,0.0,0.0,0.0,0.0,0.0,0.0,0.0,0.0,-0.1918,0.0,0.0,0.0,0.0,0.0,0.0,0.0,0.0,0.0,0.0,0.0,0.0,0.0,0.0,0.0,0.0,0.0,0.0,0.0,0.0,0.0151,0.0404,0.1511,0.2163,0.2514,0.3817,0.4518,0.472,0.4518,0.457,0.4572,0.3268,0.2717,0.2417,0.1463,0.0,0.0,0.0,0.0,0.0909,0.1111,0.1212,0.1515,0.2621,0.3823,0.5325,0.7484,0.8382,0.8825,0.8825,0.9225,0.9579,0.9579,0.9579,0.9677,0.9969,1.1901,1.3584,1.3872,1.5792,1.7264,1.7252,1.7245,1.7128,1.6859,1.7745,1.8526,1.8974,1.9635,2.0336,2.1043,2.0781,2.0605,2.0605,2.0605,2.0605,2.0605,2.0605,2.0605,2.0605,2.0605,2.0605,2.0605,2.0605,2.0605,2.0605,2.0605,2.0605,2.0605,2.042,2.0225,1.9942,1.9754,1.9508,1.9341,1.9301,1.9301,1.9222,1.8487,1.8198,1.8118,0.0,0.0,0.0,0.0,0.0,0.0,0.0,0.0,0.0,0.0,-0.4195,-0.3679,0.0,-0.2085,-0.1526,-0.0347,-0.0115,0.0,0.0,0.0,0.0,0.0,0.0,0.0,0.0,0.0,0.0,0.0,0.0,0.0,0.0,0.0,0.0,0.0,0.0,0.0656,0.1762,0.1913,0.2815,0.4169,0.5275,0.5879,0.6132,0.6082,0.6082,0.5982,0.4874,0.3874,0.3021,0.2669,0.1916,0.0,0.0,0.0,0.1162,0.1212,0.1364,0.1566,0.1768,0.0,0.5325,0.7484,0.8382,0.8825,0.8825,0.9225,0.9579,0.9579,0.9579,0.9677,0.9969,1.1901,1.3584,1.3872,1.5792,1.723,1.7005,1.6961,1.6844,1.6521,1.7941,1.888,1.8598,2.0057,2.0915,2.0684,2.0635,2.0605,2.0605,2.0605,2.0605,2.0605,2.0605,2.0605,2.0605,2.0605,2.0605,2.0605,2.0605,2.0605,2.0605,2.0605,2.0605,2.0605,2.0566,2.045,2.0225,1.9981,1.9754,1.9557,1.939,1.9301,1.9301,1.9183,1.9134,1.9015,0.0,0.0,0.0,0.0,0.0,0.0,0.0,0.0,0.0,0.0,0.0,-0.2317,0.0,-0.0879,-0.0637,-0.0058,0.0,0.0,0.0,0.0,0.0,0.0,0.0,0.0,0.0,0.0,0.0,0.0,0.0,0.0,0.0,0.0,0.0,0.0,0.0152,0.0908,0.2063,0.2966,0.4119,0.5425,0.6631,0.7185,0.7288,0.7288,0.7288,0.7135,0.6082,0.5379,0.4878,0.4175,0.3222,0.232,0.2169,0.0,0.0,0.0,0.1516,0.1869,0.3074,0.4528,0.6079,0.7637,0.8283,0.8627,0.8775,0.908,0.943,0.9579,0.9547,0.9653,1.0145,1.1999,1.3586,1.3826,1.5644,1.6952,1.6675,1.6631,1.6507,1.6148,1.7675,1.8615,1.8247,1.9839,2.0781,2.0615,2.0605,2.0605,2.0605,2.0605,2.0605,2.0605,2.0605,2.0605,2.0605,2.0605,2.0605,2.0605,2.0605,2.0605,2.0605,2.0605,2.0605,2.0605,2.0605,2.0498,2.0264,2.002,1.9794,1.9566,1.9381,1.9301,1.9301,1.9301,1.9301,1.9262,0.0,0.0,0.0,0.0,0.0,0.0,0.0,0.0,0.0,0.0,0.0,0.0,0.0,0.0,0.0,0.0,0.0,0.0,0.0,0.0,0.0,0.0,0.0,0.0,0.0,0.0,0.0,0.0,0.0,0.0,0.0,0.0051,0.0252,0.0504,0.0706,0.1461,0.2715,0.4169,0.5475,0.6581,0.7587,0.7988,0.7988,0.7988,0.7988,0.7889,0.7086,0.6637,0.6284,0.5479,0.4475,0.3624,0.3624,0.2873,0.0,0.0,0.0,0.2005,0.3896,0.5191,0.6231,0.7291,0.7999,0.8512,0.8664,0.895,0.925,0.9445,0.9384,0.9519,1.014,1.1927,1.3378,1.3565,1.5388,1.6668,1.6345,1.625,1.622,1.6117,1.7438,1.8355,1.8313,1.9726,2.0605,2.0605,2.0605,2.0605,2.0605,2.0605,2.0605,2.0605,2.0605,2.0605,2.0605,2.0605,2.0605,2.0605,2.0605,2.0605,2.0605,2.0605,2.0605,2.0605,2.0605,2.0489,2.0342,2.002,1.9833,1.9636,1.939,1.9301,1.9301,1.9301,1.9301,1.9301,0.0,0.0,0.0,0.0,0.0,0.0,0.0,0.0,0.0,0.0,0.0,0.0,0.0,0.0,0.0,0.0,0.0,0.0,0.0,0.0,0.0,0.0,0.0,0.0,0.0,0.0,0.0,0.0,0.0,0.0,0.0,0.0253,0.0908,0.1913,0.1913,0.2816,0.437,0.5427,0.6681,0.7889,0.7988,0.7988,0.7988,0.7988,0.7988,0.7988,0.7939,0.7288,0.6387,0.6334,0.5579,0.4724,0.4724,0.3974,0.3123,0.0,0.0,0.0,0.2992,0.4063,0.5114,0.6071,0.7429,0.856,0.8353,0.8746,0.9125,0.9125,0.9116,0.9253,0.9724,1.1415,1.2825,1.3093,1.4988,1.6331,1.5979,1.5943,1.6102,1.6605,1.7456,1.8345,1.9143,2.005,2.0605,2.0605,2.0605,2.0605,2.0605,2.0605,2.0605,2.0605,2.0605,2.0605,2.0605,2.0605,2.0605,2.0605,2.0605,2.0605,2.0605,2.0605,2.0605,2.0605,2.0605,2.0605,2.0566,2.0098,1.9902,1.9863,1.946,1.9301,1.9301,1.9301,1.9301,1.9301,0.0,0.0,0.0,0.0,0.0,0.0,0.0,0.0,0.0,0.0,0.0,0.0,0.0,0.0,0.0,0.0,0.0,0.0,0.0,0.0,0.0,0.0,0.0,0.0,0.0,0.0,0.0,0.0,0.0,0.0,0.0,0.0253,0.1059,0.2265,0.2416,0.362,0.5475,0.6032,0.6936,0.7988,0.7988,0.7988,0.7988,0.7988,0.7988,0.7988,0.7988,0.7739,0.7437,0.7437,0.6734,0.5819,0.5748,0.4939,0.4093,0.3994,0.3287,0.2887,0.4558,0.4845,0.5077,0.6706,0.754,0.804,0.8258,0.8434,0.8672,0.9049,0.9003,0.9009,0.9375,1.1192,1.2785,1.2987,1.4737,1.5965,1.565,1.5564,1.5841,1.6591,1.7464,1.8318,1.9222,2.0089,2.0605,2.0605,2.0605,2.0605,2.0605,2.0605,2.0605,2.0605,2.0605,2.0867,2.1357,2.0867,2.0867,2.1346,2.0867,2.0605,2.0605,2.0605,2.0605,2.0605,2.045,2.0489,2.0566,2.0098,1.9902,1.9863,1.946,1.9301,1.9301,1.9301,1.9301,1.9301,0.0,0.0,0.0,0.0,0.0,-0.285,-0.1506,-0.1319,-0.1025,-0.0114,0.0,0.0,0.0,0.0,0.0,0.0,0.0,0.0,0.0,0.0,0.0,0.0,0.0,0.0,0.0,0.0,0.0,0.0,0.0,0.0051,0.0152,0.0404,0.1462,0.3067,0.337,0.4475,0.6182,0.6684,0.7338,0.7988,0.7988,0.7988,0.7988,0.7988,0.7988,0.7988,0.7988,0.7988,0.7988,0.7988,0.7505,0.6857,0.6769,0.5983,0.4975,0.453,0.3927,0.0,0.5076,0.0,0.0,0.662,0.7297,0.7738,0.8096,0.8219,0.8402,0.8826,0.882,0.8914,0.9486,1.1098,1.2437,1.2715,1.4435,1.5637,1.5418,1.5389,1.5707,1.6583,1.7464,1.8318,1.9222,2.0089,2.0605,2.0605,2.0605,2.0605,2.0605,2.0605,2.0605,2.0605,2.0867,2.128,2.1794,2.1538,2.1538,2.1794,2.128,2.0867,2.0605,2.0605,2.0605,2.0605,2.0381,2.0381,2.045,1.999,1.9794,1.9784,1.942,1.9301,1.9301,1.9301,1.9301,1.9301,0.0,0.0,-0.3442,-0.2185,-0.195,-0.1484,-0.0225,0.0,0.0,0.0,0.0,0.0,0.0,0.0,0.0,0.0,0.0,0.0,0.0,0.0,0.0,0.0,0.0,0.0,0.0,0.0,0.0,0.0,0.0,0.0152,0.0404,0.0707,0.2116,0.442,0.4722,0.5429,0.6537,0.754,0.7988,0.7988,0.7988,0.7988,0.7988,0.7988,0.8041,0.8038,0.8038,0.8038,0.8035,0.8031,0.7929,0.7804,0.7797,0.6974,0.5824,0.4787,0.0,0.0,0.0,0.0,0.0,0.5746,0.6706,0.7726,0.7845,0.8028,0.8245,0.852,0.8612,0.8959,1.0033,1.1058,1.1815,1.2242,1.4048,1.5389,1.5389,1.5389,1.5707,1.6583,1.7464,1.8318,1.9222,2.0089,2.0605,2.0605,2.0605,2.0605,2.0605,2.0605,2.0605,2.0644,2.1385,2.1832,2.1869,2.2622,2.2622,2.1842,2.1794,2.1385,2.0605,2.0605,2.0605,2.0605,2.0381,2.0303,2.0264,1.9794,1.9606,1.9566,1.9381,1.9301,1.9301,1.9301,1.9301,1.9301,0.0,-0.3232,-0.2266,-0.1918,-0.1128,-0.0451,-0.0056,0.0,0.0056,0.0,0.0,0.0,0.0617,0.0665,0.0661,0.0661,0.0599,0.0486,0.0323,0.0269,0.0213,0.0,0.0,0.0,0.0,0.0,0.0,0.0,0.0202,0.0303,0.0404,0.1664,0.3019,0.447,0.5477,0.6534,0.7587,0.7889,0.7988,0.7988,0.7988,0.8137,0.8283,0.8283,0.8432,0.8581,0.8581,0.8508,0.8414,0.8223,0.8021,0.7823,0.7572,0.7204,0.0,0.6448,0.0,0.0,0.6123,0.0,0.0,0.0,0.0,0.0,0.7558,0.7812,0.8028,0.8248,0.8472,0.874,0.9213,1.0626,1.1778,1.2046,1.3844,1.5215,1.5389,1.5389,1.5707,1.6583,1.7464,1.8318,1.9222,2.0089,2.0605,2.0605,2.0605,2.0605,2.0605,2.0605,2.0867,2.1461,2.169,2.2349,2.3452,2.3169,2.2883,2.266,2.2096,2.1385,2.0605,2.0605,2.0605,2.0566,2.0177,2.002,1.999,1.9715,1.9606,1.9566,1.9381,1.9301,1.9301,1.9301,1.9301,1.9301,-0.2859,-0.1903,-0.1064,-0.1064,-0.0392,0.0168,0.0168,0.028,0.0449,0.0,0.0,0.0,0.0824,0.0871,0.0866,0.0866,0.0805,0.0744,0.058,0.058,0.0471,0.036,0.0205,0.0204,0.0354,0.0202,0.0202,0.0354,0.0505,0.0606,0.0758,0.2167,0.342,0.4622,0.5832,0.6989,0.7988,0.8137,0.8088,0.8038,0.8627,0.892,0.9118,0.9653,0.9894,0.9875,0.949,0.9143,0.8811,0.8391,0.8048,0.7749,0.7368,0.7214,0.7095,0.7095,0.6697,0.0,0.0,0.0,0.0,0.6962,0.0,0.0,0.7591,0.7768,0.7988,0.8292,0.8476,0.8872,0.9733,1.0804,1.1869,1.2863,1.4019,1.4915,1.5215,1.5347,1.559,1.6105,1.6944,1.7796,1.8687,1.9529,2.0206,2.0566,2.0605,2.0605,2.0605,2.0605,2.0972,2.1766,2.2134,2.2872,2.4084,2.4022,2.3793,2.3463,2.2973,2.2161,2.1088,2.1088,2.0867,2.045,2.0059,1.9863,1.9754,1.9557,1.9469,1.9478,1.9341,1.9301,1.9301,1.9301,1.9301,1.9301,0.0,-0.0728,0.0056,0.0056,0.028,0.0449,0.0449,0.0728,0.0895,0.0,0.1047,0.1192,0.1228,0.1277,0.1276,0.1276,0.1273,0.1158,0.1036,0.1035,0.0976,0.0809,0.0556,0.0555,0.0806,0.0554,0.0553,0.0803,0.0803,0.1004,0.1355,0.2503,0.3699,0.4995,0.6046,0.7053,0.8014,0.8241,0.8294,0.8259,0.955,1.0034,1.0164,1.1424,1.1763,1.1425,1.0579,0.9985,0.9452,0.8703,0.8138,0.7632,0.7272,0.7143,0.7143,0.7095,0.7095,0.0,0.0,0.0,0.0,0.7095,0.7139,0.0,0.7764,0.79,0.8032,0.8476,0.8568,0.9087,1.0679,1.1063,1.1752,1.3584,1.409,1.444,1.4999,1.5257,1.5389,1.5389,1.6139,1.6984,1.7796,1.8727,1.9618,2.0362,2.0527,2.0566,2.0605,2.0605,2.1021,2.1907,2.2622,2.339,2.4228,2.4933,2.4898,2.4108,2.4108,2.3305,2.1794,2.1794,2.1242,2.0303,2.002,1.9794,1.9566,1.9381,1.9301,1.9301,1.9301,1.9301,1.9301,1.9301,1.9301,1.9301,-0.0336,0.0,0.0336,0.0336,0.0561,0.0785,0.0785,0.0831,0.0989,0.1209,0.2163,0.3149,0.3985,0.409,0.4107,0.4107,0.4051,0.3555,0.2482,0.2431,0.1923,0.0859,0.0758,0.0752,0.079,0.074,0.0735,0.0723,0.0916,0.1446,0.2264,0.3607,0.4803,0.5804,0.6867,0.7555,0.7848,0.7968,0.846,0.926,1.0036,1.0299,1.0345,1.1492,1.1874,1.1815,1.1631,1.1395,1.099,0.9753,0.8669,0.7808,0.7514,0.7415,0.737,0.7143,0.7095,0.7095,0.7095,0.7095,0.7095,0.7095,0.7279,0.0,0.7547,0.7852,0.8157,0.8245,0.8428,0.8696,0.9043,0.9689,1.0289,1.0717,1.2163,1.362,1.465,1.4999,1.5173,1.5173,1.6057,1.678,1.6944,1.8367,1.9292,1.9323,1.9971,2.0411,2.0605,2.0605,2.128,2.2734,2.292,2.3658,2.5052,2.5229,2.4898,2.4108,2.4108,2.3305,2.1794,2.1794,2.1242,2.0303,2.002,1.9794,1.9566,1.9381,1.9301,1.9301,1.9301,1.9301,1.9301,1.9301,1.9301,1.9301,0.0444,0.0554,0.0663,0.0603,0.0875,0.1094,0.1094,0.1194,0.1565,0.2211,0.3342,0.4283,0.481,0.4869,0.4841,0.4841,0.48,0.4524,0.3822,0.3772,0.3271,0.2067,0.1849,0.1634,0.1228,0.1021,0.1012,0.1097,0.1716,0.2287,0.281,0.4512,0.5598,0.6214,0.7171,0.7779,0.8076,0.8092,0.8757,0.9879,1.0674,1.1263,1.177,1.2992,1.3344,1.3162,1.2664,1.2054,1.1259,0.9873,0.9017,0.846,0.7896,0.7591,0.7462,0.7323,0.7279,0.7279,0.7279,0.7279,0.7323,0.7455,0.7588,0.0,0.0,0.8025,0.8245,0.838,0.852,0.874,0.9174,0.9602,1.0033,1.0506,1.1875,1.2905,1.2984,1.4097,1.4915,1.4915,1.5394,1.5876,1.6329,1.7139,1.7948,1.8758,1.9618,2.0216,2.0459,2.0333,2.1078,2.2957,2.2872,2.3599,2.5264,2.5312,2.5087,2.4707,2.4707,2.3986,2.2681,2.2349,2.1565,2.042,1.9942,1.9636,1.9429,1.9341,1.9301,1.9301,1.9301,1.9301,1.9301,1.9301,1.9301,1.9301,0.0927,0.0925,0.0975,0.0909,0.1173,0.144,0.1653,0.1859,0.2485,0.3739,0.4671,0.5264,0.5384,0.5475,0.5475,0.5475,0.5525,0.5475,0.5225,0.5175,0.4674,0.3574,0.3323,0.2899,0.2207,0.1925,0.1854,0.2084,0.2877,0.3341,0.3576,0.5162,0.6144,0.6473,0.7227,0.7805,0.8195,0.8258,0.9087,1.0361,1.1222,1.2129,1.3123,1.4417,1.4696,1.4306,1.3548,1.2533,1.1365,1.0062,0.9497,0.9196,0.8245,0.7812,0.7635,0.7595,0.7595,0.7595,0.7595,0.7595,0.7639,0.7856,0.794,0.7984,0.0,0.0,0.0,0.8564,0.8612,0.8828,0.9515,0.9646,0.9903,1.0679,1.1542,1.1886,1.1154,1.2772,1.4139,1.4349,1.4566,1.4977,1.567,1.5876,1.669,1.8479,1.9204,1.9775,2.0186,2.002,2.0808,2.2771,2.2601,2.3342,2.5064,2.5099,2.5099,2.5099,2.5099,2.4527,2.3482,2.292,2.1897,2.0566,2.0029,1.9597,1.9301,1.9301,1.9301,1.9301,1.9301,1.9301,1.9301,1.9301,1.9301,1.9301,0.0909,0.107,0.1229,0.1225,0.1491,0.197,0.2927,0.3098,0.3819,0.578,0.6163,0.66,0.7537,0.7832,0.7982,0.7982,0.8226,0.7822,0.6628,0.6578,0.5977,0.4674,0.4564,0.4523,0.4448,0.4271,0.4193,0.4164,0.4132,0.4591,0.5402,0.5626,0.6207,0.7012,0.7378,0.7586,0.7791,0.8098,0.9313,1.1108,1.1264,1.2008,1.3133,1.4163,1.4389,1.4135,1.4008,1.3381,1.24,1.1408,1.0501,0.9637,0.8504,0.8157,0.8069,0.7896,0.7856,0.7856,0.7856,0.7856,0.7856,0.79,0.8028,0.8157,0.8201,0.0,0.8564,0.8612,0.0,0.8612,0.874,0.0,0.0,0.8867,0.9646,1.0159,1.0072,1.102,1.2046,1.3063,1.409,1.4734,1.4859,1.5401,1.6535,1.8479,1.855,1.8917,1.9902,1.9902,2.0624,2.2172,2.2172,2.2857,2.4298,2.4334,2.4334,2.4334,2.4334,2.3886,2.3075,2.299,2.208,2.0605,2.0527,2.0059,1.9301,1.9301,1.9301,1.9301,1.9301,1.9301,1.9301,1.9301,1.9301,1.9301,0.1363,0.1418,0.1518,0.1501,0.2065,0.2733,0.3197,0.4298,0.5429,0.6292,0.6936,0.7487,0.7939,0.8088,0.8233,0.8382,0.8478,0.8329,0.7779,0.773,0.7129,0.5779,0.5721,0.5417,0.4835,0.4701,0.4612,0.4518,0.4976,0.5375,0.5719,0.6251,0.6874,0.754,0.7503,0.8067,0.8964,0.8404,0.9678,1.2027,1.1489,1.225,1.3692,1.4097,1.4195,1.4088,1.4088,1.387,1.3355,1.2448,1.1408,1.0496,1.0106,0.9157,0.8285,0.8763,0.8504,0.8069,0.8069,0.846,0.8807,0.8384,0.8727,0.9074,0.8556,0.852,0.8612,0.8612,0.0,0.0,0.0,0.0,0.0,0.0,0.934,0.9728,0.9213,1.0381,1.1494,1.196,1.2905,1.3766,1.4286,1.5068,1.609,1.7383,1.7908,1.8598,1.9676,1.9627,2.0157,2.1479,2.1973,2.2686,2.368,2.4261,2.4418,2.42,2.42,2.3897,2.3335,2.3001,2.2128,2.0944,2.0557,1.9971,1.9301,1.9301,1.9301,1.9301,1.9301,1.9301,1.9301,1.9301,1.9301,1.9301,0.2515,0.2316,0.2205,0.2427,0.3123,0.3725,0.4026,0.5632,0.6836,0.6836,0.7537,0.7988,0.7988,0.8137,0.8287,0.8482,0.863,0.868,0.8634,0.8531,0.8081,0.7083,0.6894,0.6499,0.5804,0.5653,0.5514,0.5386,0.6018,0.6258,0.6171,0.6894,0.7411,0.7768,0.7724,0.8464,0.9767,0.8986,1.0241,1.2619,1.1972,1.2662,1.4088,1.4088,1.4088,1.4088,1.4088,1.4088,1.3955,1.3009,1.2137,1.144,1.1322,1.0241,0.9196,0.9845,0.9584,0.8982,0.8723,0.9157,0.9501,0.878,0.9087,0.9388,0.874,0.8612,0.8612,0.8612,0.8612,0.0,0.0,0.0,0.8612,0.8612,0.0,0.9345,0.8696,0.9733,1.0636,1.0895,1.1972,1.296,1.3652,1.4531,1.5394,1.6288,1.7139,1.8086,1.9112,1.9262,1.9766,2.0837,2.1697,2.2451,2.3117,2.4141,2.4418,2.4043,2.4043,2.3824,2.3409,2.2964,2.2193,2.1165,2.0702,2.004,1.9301,1.9301,1.9301,1.9301,1.9301,1.9301,1.9301,1.9301,1.9301,1.9301,0.4678,0.3879,0.3476,0.4524,0.4724,0.5077,0.6134,0.7235,0.7939,0.7939,0.7988,0.7988,0.7988,0.8482,0.8775,0.8775,0.9274,0.943,0.9187,0.8928,0.8775,0.8726,0.823,0.8031,0.8273,0.7879,0.7704,0.7701,0.7462,0.7366,0.736,0.744,0.7507,0.7551,0.7981,0.8719,0.9623,0.9767,1.0939,1.2705,1.2662,1.3222,1.4088,1.4088,1.4088,1.4088,1.4088,1.4088,1.3955,1.3009,1.2662,1.2491,1.1585,1.1235,1.1192,1.1241,1.1235,1.102,1.0072,0.9859,0.9685,0.8828,0.8612,0.8656,0.8612,0.8612,0.8612,0.8612,0.8612,0.8612,0.8612,0.8612,0.8612,0.0,0.8612,0.0,0.0,0.8656,0.8999,0.9859,1.1585,1.2705,1.2747,1.361,1.4496,1.5394,1.6247,1.7098,1.7997,1.8856,1.9578,2.0196,2.1211,2.2059,2.2703,2.3714,2.4007,2.3641,2.3641,2.3409,2.3001,2.3001,2.2354,2.1203,2.1165,2.0469,1.9301,1.9301,1.9301,1.9301,1.9301,1.9301,1.9301,1.9301,1.9301,1.9301,0.6274,0.6074,0.5625,0.4924,0.5377,0.6282,0.7534,0.8035,0.8333,0.8528,0.8531,0.8531,0.8531,0.8676,0.8874,0.9031,0.9232,0.9286,0.9187,0.9133,0.8981,0.8825,0.8432,0.8283,0.8382,0.8086,0.7965,0.8059,0.7849,0.7791,0.0,0.0,0.7856,0.7984,0.8113,0.9152,1.0674,1.0115,1.1327,1.3616,1.3616,1.3828,1.4088,1.4088,1.4088,1.4088,1.4088,1.4088,1.4039,1.3737,1.3222,1.2747,1.3052,1.2314,1.1413,1.2057,1.18,1.1241,1.0895,1.1284,1.137,0.9859,0.9946,1.0077,0.8872,0.8612,0.8612,0.8612,0.8612,0.8612,0.8612,0.8612,0.0,0.0,0.0,0.8612,0.0,0.8612,0.8696,0.8999,1.012,1.1327,1.2571,1.3009,1.3802,1.5311,1.6214,1.7058,1.7957,1.8816,1.9381,1.9618,2.0566,2.1298,2.17,2.2692,2.3224,2.3187,2.3187,2.315,2.3001,2.3001,2.2542,2.1787,2.1357,2.0702,1.9854,1.946,1.9301,1.9301,1.9301,1.9301,1.9301,1.9301,1.9301,1.9301,0.7624,0.7773,0.7422,0.6423,0.6778,0.7531,0.8428,0.8528,0.8627,0.8775,0.8825,0.892,0.9316,0.946,0.9562,0.9768,0.9867,0.9768,0.9381,0.9236,0.9183,0.9076,0.873,0.8581,0.8684,0.8435,0.8336,0.8432,0.8167,0.8102,0.0,0.0,0.0,0.0,0.8636,0.9719,1.1284,1.102,1.2143,1.4088,1.4088,1.4124,1.4201,1.4201,1.4166,1.4088,1.4088,1.4088,1.4088,1.4088,1.3695,1.3307,1.3913,1.3264,1.2443,1.3124,1.2863,1.2345,1.2089,1.2479,1.2565,1.1015,1.1058,1.1058,0.9554,0.9384,0.9476,0.913,0.9043,0.9174,0.9515,0.9043,0.8696,0.0,0.0,0.8612,0.0,0.8612,0.8612,0.8612,0.9384,1.0506,1.2057,1.2491,1.3336,1.4817,1.576,1.6617,1.7504,1.8359,1.8975,1.9301,2.0265,2.0991,2.1375,2.2408,2.3027,2.3224,2.3224,2.315,2.3001,2.3001,2.2665,2.2063,2.1471,2.0818,2.0167,1.9539,1.9301,1.9301,1.9301,1.9301,1.9301,1.9301,1.9301,1.9301,0.8825,0.8825,0.8825,0.8825,0.8825,0.8825,0.8825,0.8825,0.8825,0.892,0.892,0.9312,1.0391,1.073,1.0881,1.0881,1.1072,1.0788,0.9723,0.9381,0.9335,0.9579,0.9076,0.8928,0.9187,0.8928,0.8825,0.8825,0.8497,0.8337,0.0,0.0,0.0,0.0,0.9379,1.0419,1.1365,1.2314,1.3264,1.413,1.413,1.4243,1.4398,1.4398,1.4279,1.413,1.413,1.413,1.413,1.413,1.413,1.413,1.413,1.413,1.4166,1.4356,1.4398,1.4265,1.362,1.3451,1.3233,1.2285,1.1943,1.1563,1.0611,1.0885,1.1063,1.0202,0.999,1.0246,1.1106,0.9864,0.8955,0.0,0.0,0.0,0.8612,0.8612,0.8612,0.8612,0.9384,1.0289,1.1198,1.21,1.3045,1.4046,1.4908,1.5801,1.6657,1.7513,1.8407,1.9262,2.0226,2.1019,2.1621,2.2686,2.3302,2.353,2.3567,2.3372,2.3001,2.3001,2.2703,2.2101,2.1471,2.0857,2.0206,1.9569,1.9301,1.9301,1.9301,1.9301,1.9301,1.9301,1.9301,1.9301,0.9377,0.9377,0.9377,0.9377,0.9076,0.8874,0.908,0.9084,0.9472,1.044,1.0583,1.0974,1.1999,1.2193,1.2193,1.2193,1.1609,1.1077,1.0788,0.9965,0.9529,0.9579,0.9282,0.9133,0.9187,0.8928,0.8878,0.9084,0.8783,0.8715,0.8901,0.0,0.0,0.0,0.9471,1.0419,1.1365,1.2314,1.3343,1.4321,1.4321,1.444,1.4608,1.4608,1.4573,1.4531,1.4531,1.4531,1.4531,1.4531,1.4531,1.4531,1.4531,1.4531,1.4573,1.4608,1.4608,1.4608,1.4391,1.4349,1.4132,1.3275,1.3021,1.2717,1.1772,1.1686,1.1735,1.152,1.1477,1.1262,1.0664,1.0188,0.9676,0.9043,0.874,0.8612,0.8612,0.8612,0.8612,0.8612,0.9384,1.0289,1.1198,1.1542,1.2357,1.3962,1.4908,1.5801,1.6657,1.7513,1.8407,1.9262,1.9529,1.9952,2.0576,2.1346,2.2004,2.2478,2.2927,2.3113,2.3001,2.3001,2.2927,2.2703,2.1662,2.1088,2.0857,1.9766,1.9301,1.9301,1.9301,1.9301,1.9301,1.9301,1.9301,1.9301,0.9579,0.9965,1.0306,1.0306,1.0395,1.0391,1.0109,1.006,1.0493,1.1707,1.1853,1.2242,1.327,1.3414,1.3414,1.3414,1.2877,1.215,1.1268,1.0641,1.0113,0.9628,0.943,0.9385,0.9385,0.9229,0.9229,0.9385,0.9029,0.8952,0.9088,0.0,0.0,0.0,0.0,1.1025,1.1972,1.2997,1.3802,1.4398,1.4482,1.4657,0.0,1.4866,1.4915,1.4999,1.4999,1.4866,1.4692,1.4692,1.4692,1.4692,1.4692,1.4692,1.4734,1.4824,1.4866,1.4908,1.4999,1.4999,1.4908,1.4398,1.4223,1.388,1.2972,1.2972,1.3057,1.2674,1.2589,1.2547,1.2285,1.1171,0.9932,0.878,0.8612,0.8612,0.8612,0.8612,0.8612,0.8612,0.9384,1.0289,1.1198,1.1666,1.2528,1.3997,1.4538,1.5394,1.6617,1.7261,1.8118,1.9262,1.939,1.9666,2.0196,2.0857,2.151,2.2111,2.2703,2.3001,2.3001,2.3001,2.3001,2.2927,2.1738,2.1203,2.1088,1.9844,1.9301,1.9301,1.9301,1.9301,1.9301,1.9301,1.9301,1.9301,0.9772,1.069,1.1414,1.1414,1.2145,1.2436,1.1755,1.1512,1.1755,1.278,1.2926,1.3312,1.4388,1.449,1.449,1.449,1.4394,1.3516,1.1707,1.1365,1.0788,0.9871,0.9677,0.9579,0.9579,0.9579,0.9579,0.9579,0.9295,0.9133,0.0,0.0,0.0,0.0,0.0,1.2043,1.3003,1.3971,1.444,1.4524,1.4692,1.4915,1.5131,1.5131,1.5257,1.5389,1.5389,1.5124,1.4776,1.4776,1.4776,1.4776,1.4776,1.4776,1.4824,1.5082,1.5131,1.5173,1.5347,1.5389,1.5389,1.5389,1.5257,1.4915,1.409,1.4349,1.4566,1.3837,1.3662,1.3837,1.4475,1.237,1.0188,0.9213,0.8911,0.8867,0.9038,0.8911,0.8867,0.8999,0.9772,0.0,1.1413,1.2229,1.3094,1.4046,1.4088,1.4866,1.6617,1.6887,1.7738,1.9301,1.9508,1.9784,2.0128,2.0857,2.1482,2.1987,2.2665,2.3001,2.3001,2.3001,2.3001,2.2927,2.1738,2.1203,2.1088,1.9844,1.9301,1.9301,1.9301,1.9301,1.9301,1.9301,1.9301,1.9301,1.0739,1.1755,1.2436,1.2436,1.2581,1.3017,1.3932,1.3162,1.2829,1.3859,1.4004,1.4388,1.5445,1.554,1.554,1.554,1.4777,1.4148,1.3757,1.2145,1.1126,1.0935,1.006,0.9579,0.9579,0.9579,0.9579,0.9579,0.9413,0.9359,0.0,0.0,0.0,0.0,0.0,1.3293,1.4097,1.4314,1.4615,1.4999,1.4999,1.5173,1.5347,1.5347,1.5389,1.5389,1.5389,1.5347,1.5257,1.5257,1.5257,1.5257,1.5257,1.5257,1.5298,1.534,1.5347,1.5347,1.5389,1.5389,1.5389,1.5389,1.5389,1.5298,1.5131,1.5173,1.5215,1.5082,1.5041,1.4824,1.4006,1.2674,1.1643,1.1434,1.0616,1.0318,1.1262,1.0616,1.0274,1.1047,1.1949,1.2467,1.2443,1.2619,1.3094,1.4046,1.4088,1.4866,1.6617,1.6887,1.7779,1.9478,1.9754,1.9794,1.9715,2.0838,2.1415,2.1357,2.2467,2.3001,2.3001,2.3001,2.3001,2.2927,2.1738,2.1203,2.1088,1.9844,1.9301,1.9301,1.9301,1.9301,1.9301,1.9301,1.9301,1.9301,1.1901,1.2829,1.3559,1.3698,1.4178,1.4758,1.5575,1.5134,1.4902,1.5439,1.535,1.5547,1.6163,1.6204,1.6204,1.6204,1.5778,1.5248,1.4717,1.374,1.2866,1.2193,1.1272,1.0743,1.0659,1.0068,0.9826,0.9826,1.0066,1.0162,1.0205,1.1027,1.1742,1.241,0.0,1.4416,1.4794,1.4769,1.4873,1.509,1.5215,1.5305,1.5389,1.5389,1.5389,1.5389,1.5389,1.5389,1.5389,1.5389,1.5389,1.5389,1.5389,1.5389,1.5389,1.5389,1.5389,1.5389,1.5389,1.5389,1.5389,1.5389,1.5389,1.5389,1.5389,1.5389,1.5389,1.5389,1.5389,1.5041,1.3922,1.3233,1.2674,1.2114,1.1558,1.1386,1.1901,1.1515,1.1343,1.1815,1.2674,1.3105,1.2857,1.3288,1.3766,1.4201,1.4166,1.4943,1.6895,1.709,1.794,1.9715,1.999,1.999,1.9754,2.1126,2.1776,2.169,2.299,2.3641,2.3641,2.3409,2.3298,2.3224,2.1814,2.1203,2.1088,1.9844,1.9301,1.9301,1.9301,1.9301,1.9301,1.9301,1.9301,1.9301,1.3113,1.3998,1.4771,1.5051,1.5778,1.6359,1.6636,1.6636,1.6588,1.6588,1.6407,1.6359,1.6588,1.6588,1.6588,1.6588,1.6588,1.6244,1.5384,1.514,1.4561,1.3553,1.2673,1.2193,1.2014,1.1184,1.0743,1.0743,1.1207,1.1454,1.1454,1.2357,1.3387,1.4463,1.51,1.5407,1.5366,1.5234,1.5232,1.5267,1.5369,1.5389,1.5389,1.5389,1.5389,1.5389,1.5389,1.5389,1.5389,1.5389,1.5389,1.5389,1.5389,1.5389,1.5389,1.5389,1.5389,1.5389,1.5389,1.5389,1.5389,1.5389,1.5389,1.5389,1.5389,1.5389,1.5389,1.5389,1.5389,1.5124,1.4223,1.4048,1.3789,1.2887,1.2504,1.2456,1.2674,1.2498,1.2456,1.2632,1.3317,1.3662,1.3402,1.4048,1.4482,1.4524,1.4489,1.5269,1.722,1.7536,1.8399,1.9942,2.0225,2.0225,1.999,2.1423,2.2145,2.2134,2.3545,2.42,2.42,2.3787,2.3593,2.3519,2.2042,2.1242,2.0895,1.9766,1.9301,1.9301,1.9301,1.9301,1.9301,1.9301,1.9301,1.9301,1.4465,1.5343,1.6123,1.6393,1.6494,1.6636,1.6932,1.6784,1.6588,1.6588,1.6588,1.6581,1.6588,1.6588,1.6588,1.6588,1.6588,1.6581,1.644,1.552,1.4949,1.4848,1.3878,1.3338,1.3343,1.3199,1.3145,1.3145,1.3219,1.3256,1.3262,1.4255,1.5157,1.5888,1.605,1.6024,1.5919,1.5648,1.5648,1.5797,1.5506,1.5389,1.5389,1.5389,1.5389,1.5389,1.5389,1.5389,1.5389,1.5389,1.5389,1.5389,1.5389,1.5389,1.5389,1.5389,1.5389,1.5389,1.5389,1.5389,1.5389,1.5389,1.5389,1.5389,1.5389,1.5389,1.5389,1.5389,1.5389,1.5389,1.5257,1.5257,1.5215,1.5082,1.4223,1.3915,1.4957,1.4181,1.388,1.4699,1.4873,1.4824,1.4566,1.4608,1.4783,1.4999,1.5352,1.6067,1.7261,1.827,1.9283,2.0225,2.045,2.045,2.0264,2.1672,2.2268,2.2134,2.3545,2.42,2.42,2.3787,2.3593,2.3519,2.2478,2.1367,2.0235,1.9578,1.9301,1.9301,1.9301,1.9301,1.9301,1.9301,1.9301,1.9301,1.5818,1.6157,1.6494,1.6784,1.6831,1.6925,1.7153,1.7099,1.7005,1.7005,1.6918,1.6878,1.7005,1.7005,1.7005,1.7005,1.7005,1.7005,1.7005,1.6615,1.6332,1.6204,1.5371,1.4787,1.4657,1.407,1.3728,1.3728,1.4166,1.4411,1.4405,1.5473,1.6183,1.6639,1.6624,1.6603,1.651,1.6191,1.5995,1.5906,1.5732,1.5564,1.5389,1.5389,1.5389,1.5389,1.5389,1.5389,1.5389,1.5389,1.5389,1.5389,1.5389,1.5389,1.5389,1.5389,1.5389,1.5389,1.5389,1.5389,1.5389,1.5389,1.5389,1.5389,1.5389,1.5389,1.5389,1.5389,1.5389,1.5389,1.5389,1.5389,1.5389,1.5389,1.5041,1.4866,1.5347,1.4999,1.4866,1.5257,1.5257,1.5416,1.5692,1.5242,1.5401,1.6576,1.6157,1.6404,1.7666,1.8519,1.9441,2.045,2.0566,2.0566,2.0489,2.2004,2.2708,2.266,2.4143,2.4862,2.4862,2.4478,2.3655,2.2435,2.1804,2.0857,1.9657,1.942,1.9301,1.9301,1.9301,1.9301,1.9301,1.9301,1.9301,1.9301,1.6683,1.673,1.6777,1.7019,1.7113,1.716,1.7279,1.7279,1.7279,1.7279,1.72,1.716,1.7279,1.7279,1.7279,1.7279,1.7279,1.7279,1.7279,1.7279,1.7239,1.7113,1.652,1.6136,1.5954,1.527,1.4883,1.4883,1.5412,1.5663,1.571,1.6433,1.6918,1.7106,1.7053,1.7042,1.702,1.669,1.6433,1.6177,1.5987,1.5782,1.552,1.5425,1.5389,1.5389,1.5389,1.5389,1.5389,1.5389,1.5389,1.5389,1.5389,1.5389,1.5389,1.5389,1.5389,1.5389,1.5389,1.5389,1.5389,1.5389,1.5389,1.5389,1.5389,1.5389,1.5465,1.5748,1.559,1.5548,1.6072,1.5756,1.5548,1.6072,1.5948,1.5865,1.6113,1.6154,1.6072,1.5824,1.5782,1.5989,1.6427,1.594,1.618,1.7666,1.7302,1.7383,1.8327,1.9085,1.9805,2.0566,2.0605,2.0605,2.0605,2.2209,2.2995,2.3032,2.4564,2.5312,2.5264,2.4849,2.3655,2.1973,2.1423,2.0586,1.9539,1.9381,1.9301,1.9301,1.9301,1.9301,1.9301,1.9301,1.9301,1.9301,1.6932,1.6979,1.7066,1.7239,1.7279,1.7279,1.7279,1.7279,1.7279,1.7279,1.7279,1.7279,1.7279,1.7279,1.7279,1.7279,1.7279,1.7279,1.7279,1.7279,1.7279,1.7279,1.7279,1.7279,1.7279,1.7279,1.7279,1.7279,1.7279,1.7279,1.7279,1.7286,1.7279,1.7279,1.7279,1.7279,1.7304,1.7027,1.6895,1.6837,1.6162,1.5913,1.5877,1.5513,1.5389,1.5389,1.5389,1.5389,1.5389,1.5389,1.5389,1.5389,1.5389,1.5389,1.5389,1.5389,1.5389,1.5389,1.5389,1.5389,1.5389,1.5389,1.5389,1.5389,1.5389,1.5389,1.5624,1.6501,1.5982,1.5914,1.7634,1.655,1.5948,1.7683,1.7269,1.6984,1.7836,1.7957,1.7634,1.678,1.6698,1.6698,1.6698,1.6698,1.7066,1.7917,1.8767,1.9262,1.9262,2.0128,2.0605,2.0605,2.0605,2.0605,2.0605,2.2209,2.2995,2.3032,2.4564,2.5312,2.5276,2.4539,2.3629,2.2628,2.1624,2.0818,2.0118,1.9539,1.9301,1.9301,1.9301,1.9301,1.9301,1.9301,1.9301,1.9301,1.72,1.7192,1.7239,1.7286,1.7279,1.7279,1.7279,1.7279,1.7279,1.7279,1.7279,1.7279,1.7279,1.7279,1.7279,1.7279,1.7279,1.7279,1.7279,1.7279,1.7279,1.7279,1.7279,1.7279,1.7279,1.7279,1.7279,1.7279,1.7279,1.7279,1.7279,1.7279,1.7279,1.7279,1.7279,1.7279,1.7271,1.7223,1.7055,1.6866,1.6441,1.6104,1.5877,1.5513,1.5389,1.5389,1.5389,1.5389,1.5389,1.5389,1.5389,1.5389,1.5389,1.5389,1.5389,1.5389,1.5506,1.5616,1.5616,1.5748,1.5839,1.5665,1.5616,1.5741,1.618,1.6747,1.7237,1.7513,1.7359,1.7359,1.7917,1.7561,1.7359,1.7917,1.7755,1.7674,1.7957,1.7997,1.7917,1.7634,1.7594,1.7836,1.8407,1.7957,1.8189,1.9638,1.949,1.9301,1.9301,2.0128,2.0605,2.0605,2.0605,2.0605,2.0605,2.2209,2.2995,2.3032,2.4564,2.5312,2.5276,2.4539,2.3545,2.2387,2.1576,2.0586,1.9578,1.9381,1.9301,1.9301,1.9301,1.9301,1.9301,1.9301,1.9485,1.9692,1.7279,1.7279,1.7279,1.7279,1.7279,1.7279,1.7279,1.7279,1.7279,1.7279,1.7279,1.7279,1.7279,1.7279,1.7279,1.7279,1.7279,1.7279,1.7279,1.7279,1.7279,1.7279,1.7279,1.7279,1.7279,1.7279,1.7279,1.7279,1.7279,1.7279,1.7279,1.7279,1.7279,1.7279,1.7279,1.7279,1.7279,1.7279,1.7216,1.7004,1.6727,1.6404,1.6052,1.5738,1.5491,1.5389,1.5389,1.5389,1.5389,1.5389,1.5465,1.5499,1.5499,1.559,1.5631,1.5548,1.5616,1.5733,1.5824,1.5955,1.6046,1.5906,1.6064,1.6494,1.7139,1.7706,1.8198,1.8447,1.8238,1.8198,1.8877,1.8439,1.8198,1.8877,1.8687,1.8598,1.8917,1.8997,1.8847,1.8527,1.8487,1.8687,1.9262,1.8816,1.9085,2.0479,2.0089,1.9775,1.9775,2.0284,2.0605,2.0605,2.0605,2.0605,2.0605,2.2209,2.2995,2.3032,2.4564,2.5312,2.5276,2.4311,2.329,2.2253,2.126,2.0235,1.9301,1.9301,1.9301,1.9301,1.9301,1.9393,1.954,1.954,1.9797,2.0113,1.7279,1.7279,1.7279,1.7279,1.7279,1.7279,1.7279,1.7279,1.7279,1.7279,1.7279,1.7279,1.7279,1.7279,1.7279,1.7279,1.7279,1.7279,1.7279,1.7279,1.7279,1.7279,1.7279,1.7279,1.7279,1.7279,1.7279,1.7279,1.7279,1.7279,1.7279,1.7279,1.7279,1.7279,1.7279,1.7279,1.7279,1.7279,1.7279,1.7304,1.7027,1.6719,1.6411,1.6038,1.5731,1.5418,1.5396,1.5431,1.5431,1.5431,1.5541,1.5733,1.5733,1.5914,1.6046,1.5782,1.5733,1.5782,1.6038,1.617,1.6252,1.6211,1.6837,1.7658,1.8261,1.8461,1.8669,1.9292,1.8767,1.8678,2.0284,1.9274,1.8718,2.0323,1.9932,1.9657,2.0489,2.0605,2.0284,1.9499,1.9381,1.9381,1.9381,1.9381,1.9736,2.0527,2.0605,2.0605,2.0605,2.0605,2.0605,2.0605,2.0605,2.0605,2.0605,2.2209,2.3058,2.318,2.4612,2.5312,2.5276,2.3986,2.2984,2.2215,2.0875,1.9923,1.9301,1.9301,1.932,1.9347,1.9347,1.9604,1.993,1.993,2.0218,2.0558,1.7279,1.7279,1.7279,1.7279,1.7279,1.7279,1.7279,1.7279,1.7279,1.7279,1.7279,1.7279,1.7279,1.7279,1.7279,1.7279,1.7279,1.7279,1.7279,1.7279,1.7279,1.7279,1.7279,1.7279,1.7279,1.7279,1.7279,1.7279,1.7279,1.7279,1.7279,1.7279,1.7279,1.7279,1.7279,1.7279,1.7279,1.7279,1.7279,1.7304,1.7027,1.6859,1.6727,1.6126,1.587,1.5767,1.5476,1.5499,1.5616,1.5616,1.579,1.5997,1.5997,1.6046,1.6087,1.6004,1.6113,1.6229,1.6312,1.6919,1.7521,1.7375,1.8318,1.9344,1.9502,1.9913,2.0342,2.0508,2.0216,2.0118,2.0527,2.0245,2.0118,2.0518,2.045,2.0372,2.0566,2.0605,2.0527,2.0323,2.0294,2.0294,2.0294,2.0294,2.0372,2.0566,2.0605,2.0605,2.0605,2.0605,2.0605,2.0605,2.0605,2.0605,2.0605,2.2209,2.3585,2.4755,2.5123,2.5312,2.5276,2.473,2.3669,2.2253,2.1621,2.0566,1.9301,1.9301,1.9494,1.9747,1.9747,1.9985,2.0383,2.0383,2.0631,2.097,1.7279,1.7279,1.7279,1.7279,1.7279,1.7279,1.7279,1.7279,1.7279,1.7279,1.7279,1.7279,1.7279,1.7279,1.7279,1.7279,1.7279,1.7279,1.7279,1.7279,1.7279,1.7279,1.7279,1.7279,1.7279,1.7279,1.7279,1.7279,1.7279,1.7279,1.7279,1.7279,1.7279,1.7279,1.7279,1.7279,1.7279,1.7279,1.7279,1.7311,1.7135,1.7027,1.6866,1.6521,1.6162,1.5891,1.5673,1.5673,1.5692,1.5692,1.5948,1.6245,1.6245,1.6566,1.6968,1.6968,1.696,1.7,1.7115,1.7836,1.8669,1.8917,1.959,2.0255,2.0547,2.0915,2.1167,2.1061,2.0896,2.0731,2.0731,2.0654,2.0605,2.0605,2.0605,2.0605,2.0605,2.0605,2.0605,2.0605,2.0605,2.0605,2.0605,2.0605,2.0605,2.0605,2.0605,2.0605,2.0605,2.0605,2.0605,2.0605,2.0605,2.0605,2.0605,2.2209,2.3756,2.5312,2.5312,2.5312,2.5276,2.4251,2.3254,2.2264,2.1385,2.0475,1.9604,1.9778,1.9989,2.0159,2.0159,2.0438,2.0787,2.0787,2.1044,2.1348,1.7279,1.7279,1.7279,1.7279,1.7279,1.7279,1.7279,1.7279,1.7279,1.7279,1.7279,1.7279,1.7279,1.7279,1.7279,1.7279,1.7279,1.7279,1.7279,1.7279,1.7279,1.7279,1.7279,1.7279,1.7279,1.7279,1.7279,1.7279,1.7279,1.7279,1.7279,1.7279,1.7279,1.7279,1.7279,1.7279,1.7279,1.7279,1.7279,1.7279,1.7279,1.7165,1.6969,1.6917,1.6573,1.6045,1.595,1.5858,1.585,1.5797,1.6064,1.6476,1.6591,1.7277,1.8037,1.8158,1.8158,1.8126,1.8198,1.8829,1.9698,2.0498,2.0702,2.0857,2.1425,2.1512,2.1464,2.1282,2.1061,2.0906,2.0906,2.0731,2.0605,2.0605,2.0605,2.0605,2.0605,2.0605,2.0605,2.0605,2.0605,2.0605,2.0605,2.0605,2.0605,2.0605,2.0605,2.0605,2.0605,2.0605,2.0605,2.0605,2.0712,2.0905,2.1126,2.2462,2.3866,2.5312,2.5312,2.5348,2.5349,2.3711,2.2816,2.2486,2.1153,2.0335,2.0085,2.0383,2.0558,2.0613,2.0613,2.0851,2.12,2.12,2.1429,2.1696,1.7279,1.7279,1.7279,1.7279,1.7279,1.7279,1.7279,1.7279,1.7279,1.7279,1.7279,1.7279,1.7279,1.7279,1.7279,1.7279,1.7279,1.7279,1.7279,1.7279,1.7279,1.7279,1.7279,1.7279,1.7279,1.7279,1.7279,1.7279,1.7279,1.7279,1.7279,1.7279,1.7279,1.7279,1.7279,1.7279,1.7279,1.7279,1.7279,1.7279,1.7279,1.7304,1.7223,1.7005,1.6837,1.6683,1.6104,1.6141,1.6434,1.6137,1.6327,1.6771,1.7521,1.7876,1.8158,1.8859,1.9541,1.9904,1.9265,1.9698,2.0537,2.1367,2.1606,2.1617,2.1731,2.1617,2.1512,2.1474,2.1177,2.0906,2.0906,2.0731,2.0605,2.0605,2.0605,2.0605,2.0605,2.0605,2.0605,2.0605,2.0605,2.0605,2.0605,2.0605,2.0605,2.0605,2.0605,2.0605,2.0605,2.0605,2.0605,2.0605,2.128,2.2237,2.3526,2.3781,2.4373,2.5312,2.5312,2.554,2.5937,2.4911,2.4225,2.3756,2.2554,2.1554,2.0731,2.0578,2.0714,2.1016,2.1016,2.1273,2.1595,2.1595,2.1632,2.1696,1.7279,1.7279,1.7279,1.7279,1.7279,1.7279,1.7279,1.7279,1.7279,1.7279,1.7279,1.7279,1.7279,1.7279,1.7279,1.7279,1.7279,1.7279,1.7279,1.7279,1.7279,1.7279,1.7279,1.7279,1.7279,1.7279,1.7279,1.7279,1.7279,1.7279,1.7279,1.7279,1.7279,1.7279,1.7279,1.7279,1.7279,1.7279,1.7279,1.7279,1.7279,1.7279,1.7311,1.7165,1.7049,1.6866,1.6573,1.6512,1.6576,1.6415,1.6848,1.7489,1.7876,1.8638,1.9432,1.9825,2.0226,2.0498,2.0615,2.0934,2.129,2.1683,2.1807,2.1807,2.1807,2.1731,2.1655,2.1655,2.1436,2.1167,2.1099,2.0896,2.0731,2.0605,2.0605,2.0605,2.0605,2.0605,2.0605,2.0605,2.0605,2.0605,2.0605,2.0605,2.0605,2.0605,2.0605,2.0605,2.0605,2.1021,2.1049,2.0605,2.1385,2.2349,2.35,2.3891,2.448,2.5312,2.511,2.515,2.5384,2.4365,2.3709,2.3302,2.261,2.1893,2.1244,2.1306,2.1369,2.1403,2.1403,2.1522,2.1696,2.1696,2.1696,2.1696,1.7279,1.7279,1.7279,1.7279,1.7279,1.7279,1.7279,1.7279,1.7279,1.7279,1.7279,1.7279,1.7279,1.7279,1.7279,1.7279,1.7279,1.7279,1.7279,1.7279,1.7279,1.7279,1.7279,1.7279,1.7279,1.7279,1.7279,1.7279,1.7279,1.7279,1.7279,1.7279,1.7279,1.7279,1.7279,1.7279,1.7279,1.7279,1.7279,1.7279,1.7279,1.7279,1.7279,1.7279,1.7179,1.6998,1.6978,1.6899,1.6848,1.6935,1.7481,1.8158,1.8465,1.9471,2.0537,2.0741,2.0818,2.0934,2.1606,2.1807,2.1807,2.1807,2.1807,2.1807,2.1807,2.1807,2.1807,2.1807,2.1655,2.1464,2.132,2.1099,2.0896,2.0693,2.0654,2.0644,2.0605,2.0605,2.0605,2.0605,2.0605,2.0605,2.0605,2.0605,2.0605,2.0605,2.0605,2.0605,2.0605,2.1203,2.1318,2.0905,2.1461,2.2285,2.3243,2.3829,2.4586,2.5457,2.5038,2.4929,2.5142,2.3815,2.3186,2.3073,2.2585,2.2097,2.1717,2.2045,2.1963,2.1696,2.1785,2.1731,2.1696,2.1696,2.1696,2.1696,1.7279,1.7279,1.7279,1.7279,1.7279,1.7279,1.7279,1.7279,1.7279,1.7279,1.7279,1.7279,1.7279,1.7279,1.7279,1.7279,1.7279,1.7279,1.7279,1.7279,1.7279,1.7279,1.7279,1.7279,1.7279,1.7279,1.7279,1.7279,1.7279,1.7279,1.7279,1.7279,1.7279,1.7279,1.7279,1.7279,1.7279,1.7279,1.7279,1.7279,1.7279,1.7279,1.7279,1.7279,1.7311,1.726,1.7196,1.7327,1.7586,1.7957,1.8246,1.8666,1.9908,2.0382,2.0653,2.1454,2.1683,2.1721,2.1769,2.1807,2.1807,2.1807,2.1807,2.1807,2.1807,2.1807,2.1807,2.1807,2.1655,2.1502,2.1464,2.132,2.1099,2.0906,2.0867,2.0819,2.0644,2.0605,2.0605,2.0605,2.0605,2.0605,2.0605,2.0605,2.0605,2.0605,2.0605,2.0605,2.0605,2.0644,2.1011,2.169,2.1766,2.2499,2.4,2.4072,2.4761,2.6033,2.5201,2.5306,2.6233,2.4443,2.3918,2.431,2.3207,2.2624,2.235,2.2378,2.2087,2.1741,2.1963,2.1919,2.1696,2.1696,2.1696,2.1696,1.7279,1.7279,1.7279,1.7279,1.7279,1.7279,1.7279,1.7279,1.7279,1.7279,1.7279,1.7279,1.7279,1.7279,1.7279,1.7279,1.7279,1.7279,1.7279,1.7279,1.7279,1.7279,1.7279,1.7279,1.7279,1.7279,1.7279,1.7279,1.7279,1.7279,1.7279,1.7279,1.7279,1.7279,1.7279,1.7279,1.7279,1.7279,1.7279,1.7372,1.7963,1.7878,1.7372,1.7971,1.7831,1.7311,1.744,1.7537,1.7762,1.8663,1.9108,1.9516,2.0589,2.1124,2.1367,2.1683,2.1807,2.1807,2.1807,2.1807,2.1807,2.1807,2.1807,2.1807,2.1807,2.1807,2.1807,2.1807,2.1731,2.1617,2.1359,2.1244,2.1089,2.077,2.0693,2.0693,2.0605,2.0605,2.0605,2.0605,2.0605,2.0605,2.0605,2.0605,2.0605,2.0605,2.0605,2.0605,2.0605,2.0605,2.1203,2.251,2.2059,2.2312,2.3427,2.4172,2.4545,2.4563,2.424,2.4317,2.4682,2.3778,2.3454,2.3604,2.3178,2.2882,2.2662,2.2662,2.2441,2.2132,2.2097,2.2052,2.1919,2.1785,2.1696,2.1696,1.7279,1.7279,1.7279,1.7279,1.7279,1.7279,1.7279,1.7279,1.7279,1.7279,1.7279,1.7279,1.7279,1.7279,1.7279,1.7279,1.7279,1.7279,1.7279,1.7279,1.7279,1.7279,1.7279,1.7279,1.7279,1.7279,1.7279,1.7279,1.7279,1.7279,1.7279,1.7279,1.7279,1.7279,1.7279,1.7279,1.7279,1.7279,1.7279,1.7372,1.8465,1.8288,1.7559,1.8918,1.865,1.7652,1.8527,1.8599,1.852,1.9894,2.0359,2.0527,2.1351,2.1693,2.1807,2.1807,2.1807,2.1807,2.1807,2.1807,2.1807,2.1807,2.1807,2.1807,2.1807,2.1807,2.1807,2.1807,2.1769,2.1617,2.1359,2.1244,2.1089,2.0731,2.0693,2.0654,2.0605,2.0605,2.0605,2.0605,2.0605,2.0605,2.0605,2.0605,2.0605,2.0605,2.0605,2.0605,2.0605,2.0828,2.1614,2.2957,2.2686,2.2863,2.3575,2.4146,2.4433,2.447,2.3965,2.3773,2.3917,2.3345,2.3091,2.3091,2.3091,2.2969,2.2803,2.2882,2.2706,2.2388,2.2353,2.223,2.2097,2.1874,2.1776,2.1696,1.7279,1.7279,1.7279,1.7279,1.7279,1.7279,1.7279,1.7279,1.7279,1.7279,1.7279,1.7279,1.7279,1.7279,1.7279,1.7279,1.7279,1.7279,1.7279,1.7279,1.7279,1.7326,1.7279,1.7279,1.7279,1.7279,1.7279,1.7279,1.7279,1.7279,1.7279,1.7279,1.7279,1.7326,1.7326,1.7326,1.7326,1.7326,1.7326,1.7419,1.8634,1.8565,1.7947,2.0087,1.9733,1.8396,2.0539,2.0683,2.0189,2.1858,2.2074,2.1811,2.2348,2.218,2.1807,2.1807,2.1807,2.1807,2.1807,2.1807,2.1807,2.1807,2.1807,2.1807,2.1807,2.1807,2.1807,2.1807,2.1655,2.1502,2.1502,2.132,2.1138,2.0945,2.0906,2.0819,2.0644,2.0605,2.0605,2.0605,2.0605,2.0605,2.0605,2.0605,2.0605,2.0605,2.0605,2.0605,2.0605,2.1357,2.2172,2.2957,2.3683,2.4361,2.4903,2.4038,2.4548,2.6348,2.4559,2.398,2.4456,2.3517,2.3091,2.3091,2.3091,2.2969,2.2803,2.3013,2.2838,2.2432,2.2706,2.2495,2.2097,2.2097,2.1919,2.1696,1.7279,1.7279,1.7279,1.7279,1.7279,1.7279,1.7279,1.7279,1.7279,1.7279,1.7279,1.7279,1.7279,1.7279,1.7279,1.7279,1.7279,1.7279,1.7279,1.7279,1.7598,1.8334,1.7692,1.7279,1.7279,1.7279,1.7279,1.7279,1.7279,1.7279,1.7279,1.7279,1.7692,1.8334,1.8334,1.8826,1.9596,1.9413,1.9459,1.9687,2.0557,2.0331,1.9604,2.1132,2.0908,1.9968,2.0935,2.1114,2.1105,2.2451,2.2565,2.2212,2.244,2.218,2.1807,2.1807,2.1807,2.1807,2.1807,2.1807,2.1807,2.1807,2.1807,2.1769,2.1617,2.1693,2.1731,2.1436,2.1436,2.1397,2.1138,2.1022,2.0935,2.0731,2.0693,2.0654,2.0605,2.0605,2.0605,2.0605,2.0605,2.0605,2.0605,2.0605,2.0605,2.0605,2.0605,2.0605,2.0605,2.0828,2.1318,2.2134,2.2641,2.3431,2.4531,2.4852,2.4853,2.4589,2.4346,2.399,2.3517,2.3222,2.3091,2.3091,2.3091,2.3057,2.3013,2.3101,2.3013,2.2872,2.2838,2.2583,2.2309,2.2141,2.1919,2.1733,1.7279,1.7279,1.7279,1.7279,1.7279,1.7279,1.7279,1.7279,1.7279,1.7279,1.7279,1.7279,1.7279,1.7279,1.7279,1.7279,1.7279,1.7466,1.7878,1.7878,1.7971,1.8195,1.8373,1.828,1.7924,1.7512,1.7279,1.7279,1.7279,1.7279,1.7279,1.7279,1.7831,1.8788,1.8788,1.9467,2.0593,2.0322,2.0367,2.0683,2.1507,2.1239,2.052,2.2129,2.1943,2.1006,2.2076,2.2243,2.2189,2.328,2.3348,2.2964,2.2611,2.2304,2.2045,2.1859,2.1807,2.1807,2.1807,2.1807,2.1807,2.1807,2.1807,2.1769,2.1655,2.1655,2.1617,2.1359,2.1282,2.1167,2.0945,2.0819,2.0731,2.0605,2.0605,2.0605,2.0605,2.0605,2.0605,2.0605,2.0605,2.0605,2.0605,2.0605,2.0605,2.0605,2.0605,2.0605,2.0605,2.0605,2.1023,2.1997,2.2276,2.3116,2.4603,2.5131,2.4923,2.4084,2.398,2.3647,2.3091,2.3091,2.3091,2.3091,2.3091,2.3091,2.3091,2.3091,2.3091,2.3101,2.2969,2.275,2.2549,2.2497,2.2285,2.2115,1.7279,1.7279,1.7279,1.7279,1.7279,1.7279,1.7279,1.7279,1.7279,1.7279,1.7279,1.7279,1.7279,1.7279,1.7326,1.7419,1.7419,1.7785,1.8611,1.8742,1.8427,1.7606,1.9239,1.9824,1.9063,1.7971,1.7372,1.7279,1.7372,1.7419,1.7419,1.7505,1.8102,1.9063,1.9063,1.9741,2.0818,2.0548,2.0593,2.0908,2.1765,2.1606,2.1033,2.3038,2.2853,2.1784,2.357,2.3787,2.3367,2.4219,2.425,2.3722,2.2842,2.2532,2.2408,2.1942,2.1807,2.1807,2.1807,2.1807,2.1807,2.1807,2.1807,2.1769,2.1769,2.1617,2.1464,2.1425,2.1128,2.0906,2.0867,2.0731,2.0605,2.0605,2.0605,2.0605,2.0605,2.0605,2.0605,2.0605,2.0605,2.0605,2.0605,2.0605,2.0605,2.0605,2.0605,2.0605,2.0605,2.0644,2.1153,2.2263,2.2355,2.3177,2.4772,2.4826,2.4743,2.4498,2.3647,2.3178,2.3091,2.3091,2.3091,2.3091,2.3091,2.3091,2.3091,2.3091,2.3091,2.3091,2.3091,2.2989,2.2855,2.3005,2.2939,2.2759,1.7279,1.7279,1.7279,1.7279,1.7279,1.7279,1.7279,1.7279,1.7279,1.7279,1.7279,1.7279,1.7279,1.7279,1.7598,1.8427,1.8473,1.8241,1.7645,1.838,1.9018,1.9559,1.996,2.0466,2.106,1.9376,1.8102,1.7279,1.8102,1.8473,1.8473,1.9239,2.0096,2.106,2.106,2.1739,2.2862,2.2599,2.2643,2.2862,2.2862,2.2731,2.2643,2.3484,2.357,2.3353,2.4143,2.4315,2.4229,2.4454,2.425,2.3815,2.3215,2.2791,2.2408,2.1942,2.1807,2.1807,2.1807,2.1807,2.1807,2.1807,2.1693,2.1502,2.1359,2.1436,2.1387,2.0876,2.0858,2.0867,2.0693,2.0644,2.0605,2.0605,2.0605,2.0605,2.0605,2.0605,2.0605,2.0605,2.0605,2.0605,2.0605,2.0605,2.0605,2.0605,2.0605,2.0605,2.0605,2.0898,2.1173,2.1461,2.2122,2.2651,2.304,2.3328,2.3839,2.4498,2.4284,2.382,2.3091,2.3091,2.3091,2.3091,2.3091,2.3091,2.3091,2.3091,2.3091,2.3091,2.3091,2.3163,2.3294,2.329,2.3256,2.3177,1.7279,1.7279,1.7279,1.7279,1.7279,1.7279,1.7279,1.7279,1.7279,1.7279,1.7279,1.7279,1.7279,1.7279,1.7878,1.933,1.9063,1.8972,1.9376,1.9422,1.9467,1.9513,2.0872,2.1186,2.0331,2.024,1.9695,1.8688,1.8742,1.9018,1.9467,1.996,2.0737,2.1695,2.1695,2.2369,2.3503,2.3232,2.3232,2.3503,2.3188,2.3091,2.3135,2.3353,2.3624,2.3841,2.4057,2.4325,2.4497,2.4497,2.4342,2.4115,2.366,2.3194,2.2739,2.2273,2.1983,2.1769,2.1693,2.1655,2.1617,2.154,2.1425,2.1359,2.1359,2.1282,2.1128,2.0819,2.0741,2.0731,2.0605,2.0605,2.0605,2.0605,2.0605,2.0605,2.0605,2.0605,2.0605,2.0605,2.0605,2.0605,2.0605,2.0605,2.0605,2.0605,2.0762,2.0889,2.0889,2.1309,2.1641,2.1795,2.2275,2.2607,2.2769,2.2984,2.3353,2.382,2.382,2.356,2.3091,2.3091,2.3091,2.3091,2.3091,2.3091,2.3091,2.3091,2.3218,2.3447,2.3447,2.3621,2.3883,2.4004,2.3966,2.3866,1.7279,1.7279,1.7279,1.7279,1.7279,1.7279,1.7279,1.7279,1.7279,1.7279,1.7279,1.7279,1.7279,1.7606,1.8326,1.9596,1.9467,1.9832,2.1105,2.0737,2.0005,1.9063,2.1641,2.1917,1.933,2.0881,2.1195,2.0187,1.9604,1.9695,2.0458,2.0638,2.1141,2.1917,2.1917,2.2501,2.3416,2.3188,2.3232,2.3406,2.3188,2.3091,2.3101,2.3135,2.344,2.3797,2.3841,2.4153,2.4497,2.4497,2.4497,2.4425,2.4022,2.3557,2.3061,2.2596,2.2131,2.1693,2.1502,2.1474,2.1464,2.1244,2.1167,2.1167,2.1359,2.1128,2.0906,2.0867,2.0731,2.0605,2.0605,2.0605,2.0605,2.0605,2.0605,2.0605,2.0605,2.0605,2.0605,2.0605,2.0605,2.0635,2.0713,2.0684,2.0752,2.082,2.1133,2.1307,2.1307,2.1758,2.2158,2.25,2.2578,2.274,2.3091,2.3091,2.3091,2.3091,2.3091,2.3091,2.3091,2.3091,2.3091,2.3091,2.3091,2.3091,2.3101,2.3179,2.3467,2.3799,2.3867,2.416,2.4534,2.4755,2.4745,2.4637,1.7279,1.7279,1.7279,1.7279,1.7279,1.7279,1.7279,1.7279,1.7279,1.7279,1.7279,1.7279,1.7279,1.878,1.9239,1.7831,1.9923,2.0701,1.9293,2.0647,2.1051,2.0051,2.1996,2.2555,2.1329,2.1561,2.1195,2.0187,2.0917,2.1373,2.1516,2.2325,2.2775,2.2916,2.2916,2.3003,2.3135,2.3135,2.3135,2.3135,2.3091,2.3091,2.3144,2.3363,2.358,2.3841,2.4067,2.4282,2.4497,2.4497,2.4497,2.4425,2.4022,2.3474,2.2859,2.2358,2.1898,2.1502,2.1282,2.1359,2.1464,2.1244,2.1061,2.0945,2.0984,2.0945,2.0867,2.0693,2.0605,2.0605,2.0605,2.0605,2.0605,2.0605,2.0605,2.0605,2.0605,2.0605,2.0605,2.0605,2.0605,2.0752,2.1103,2.1103,2.1299,2.168,2.1768,2.1797,2.1797,2.2197,2.2451,2.251,2.2818,2.3033,2.3091,2.3091,2.3091,2.3091,2.3091,2.3091,2.3091,2.3091,2.3091,2.3091,2.3091,2.3091,2.312,2.3545,2.374,2.3828,2.4189,2.46,2.5029,2.5189,2.5187,2.5137,1.7279,1.7279,1.7279,1.7279,1.7279,1.7279,1.7279,1.7279,1.7279,1.7279,1.7279,1.7279,1.7279,1.8557,1.9285,1.8964,2.0096,2.0962,2.1186,2.1507,2.1507,2.1051,2.2369,2.2643,2.1739,2.2192,2.228,2.1819,2.1739,2.1971,2.2501,2.2916,2.3091,2.3091,2.3091,2.3091,2.3091,2.3091,2.3091,2.3091,2.3091,2.3091,2.3091,2.3232,2.3493,2.3841,2.4239,2.4325,2.4325,2.4454,2.4411,2.4294,2.4099,2.3678,2.3104,2.2524,2.2039,2.1556,2.1159,2.1099,2.1128,2.0925,2.0809,2.0731,2.0731,2.0731,2.0693,2.0605,2.0605,2.0605,2.0605,2.0605,2.0605,2.0605,2.0605,2.0693,2.0908,2.0937,2.1025,2.1279,2.1339,2.1377,2.1582,2.1592,2.168,2.1875,2.21,2.2236,2.2236,2.2637,2.2818,2.2818,2.3003,2.3091,2.3091,2.3091,2.3091,2.3091,2.3091,2.3091,2.3091,2.3091,2.3091,2.311,2.3398,2.3496,2.3535,2.3965,2.4287,2.4521,2.4707,2.5049,2.5421,2.5518,2.544,2.5284]}]]